[[{"header":{"parameterUnit":"m.s-1","parameterCategory":1,"la1":30.6,"la2":28.766,"lo1":-90.7593,"lo2":-88.6598,"dy":0.0162,"dx":0.0183,"nx":116,"ny":114,"refTime":"2023-07-19T12:00:00:Z","depth":0,"parameterNumber":2,"parameterNumberName":"U-component_of_WINDS"},"data":[0.0,0.0,0.0,0.0,0.0,0.0,0.0,0.0,0.0,0.0,0.0,0.0,0.0,0.0,0.0,0.0,0.0,0.0,0.0,0.0,0.0,0.0,0.0,0.0,0.0,0.0,0.0,0.0,0.0,0.0,0.0,0.0,0.0,0.0,0.0,0.0,0.0,0.0,0.0,0.0,0.0,0.0,0.0,0.0,0.0,0.0,0.0,0.0,0.0,0.0,0.0,0.0,0.0,0.0,0.0,0.0,0.0,0.0,0.0,0.0,0.0,0.0,0.0,0.0,0.0,0.0,0.0,0.0,0.0,0.0,0.0,0.0,0.0,0.0,0.0,0.0,0.0,0.0,0.0,0.0,0.0,0.0,0.0,0.0,0.0,0.0,0.0,0.0,0.0,0.0,0.0,0.0,0.0,0.0,0.0,0.0,0.0,0.0,0.0,0.0,0.0,0.0,0.0,0.0,0.0,0.0,0.0,0.0,0.0,0.0,0.0,0.0,0.0,0.0,0.0,0.0,0.0,0.0,0.0,0.0,0.0,0.0,0.0,0.0,0.0,0.0,0.0,0.0,0.0,0.0,0.0,0.0,0.0,0.0,0.0,0.0,0.0,0.0,0.0,0.0,0.0,0.0,0.0,0.0,0.0,0.0,0.0,0.0,0.0,0.0,0.0,0.0,0.0,0.0,0.0,0.0,0.0,0.0,0.0,0.0,0.0,0.0,0.0,0.0,0.0,0.0,0.0,0.0,0.0,0.0,0.0,0.0,0.0,0.0,0.0,0.0,0.0,0.0,0.0,0.0,0.0,0.0,0.0,0.0,0.0,0.0,0.0,0.0,0.0,0.0,0.0,0.0,0.0,0.0,0.0,0.0,0.0,0.0,0.0,0.0,0.0,0.0,0.0,0.0,0.0,0.0,0.0,0.0,0.0,0.0,0.0,0.0,0.0,0.0,0.0,0.0,0.0,0.0,0.0,0.0,0.0,0.0,0.0,0.0,0.0,0.0,0.0,0.0,0.0,0.0,0.0,0.0,0.0,0.0,0.0,0.0,0.0,0.0,0.0,0.0,0.0,0.0,0.0,0.0,0.0,0.0,0.0,0.0,0.0,0.0,0.0,0.0,0.0,0.0,0.0,0.0,0.0,0.0,0.0,0.0,0.0,0.0,0.0,0.0,0.0,0.0,0.0,0.0,0.0,0.0,0.0,0.0,0.0,0.0,0.0,0.0,0.0,0.0,0.0,0.0,0.0,0.0,0.0,0.0,0.0,0.0,0.0,0.0,0.0,0.0,0.0,0.0,0.0,0.0,0.0,0.0,0.0,0.0,0.0,0.0,0.0,0.0,0.0,0.0,0.0,0.0,0.0,0.0,0.0,0.0,0.0,0.0,0.0,0.0,0.0,0.0,0.0,0.0,0.0,0.0,0.0,0.0,0.0,0.0,0.0,0.0,0.0,0.0,0.0,0.0,0.0,0.0,0.0,0.0,0.0,0.0,0.0,0.0,0.0,0.0,0.0,0.0,0.0,0.0,0.0,0.0,0.0,0.0,0.0,0.0,0.0,0.0,0.0,0.0,0.0,0.0,0.0,0.0,0.0,0.0,0.0,0.0,0.0,0.0,0.0,0.0,0.0,0.0,0.0,0.0,0.0,0.0,0.0,0.0,0.0,0.0,0.0,0.0,0.0,0.0,0.0,0.0,0.0,0.0,0.0,0.0,0.0,0.0,0.0,0.0,0.0,0.0,0.0,0.0,0.0,0.0,0.0,0.0,0.0,0.0,0.0,0.0,0.0,0.0,0.0,0.0,0.0,0.0,0.0,0.0,0.0,0.0,0.0,0.0,0.0,0.0,0.0,0.0,0.0,0.0,0.0,0.0,0.0,0.0,0.0,0.0,0.0,0.0,0.0,0.0,0.0,0.0,0.0,0.0,0.0,0.0,0.0,0.0,0.0,0.0,0.0,0.0,0.0,0.0,0.0,0.0,0.0,0.0,0.0,0.0,0.0,0.0,0.0,0.0,0.0,0.0,0.0,0.0,0.0,0.0,0.0,0.0,0.0,0.0,0.0,0.0,0.0,0.0,0.0,0.0,0.0,0.0,0.0,0.0,0.0,0.0,0.0,0.0,0.0,0.0,0.0,0.0,0.0,0.0,0.0,0.0,0.0,0.0,0.0,0.0,0.0,0.0,0.0,0.0,0.0,0.0,0.0,0.0,0.0,0.0,0.0,0.0,0.0,0.0,0.0,0.0,0.0,0.0,0.0,0.0,0.0,0.0,0.0,0.0,0.0,0.0,0.0,0.0,0.0,0.0,0.0,0.0,0.0,0.0,0.0,0.0,0.0,0.0,0.0,0.0,0.0,0.0,0.0,0.0,0.0,0.0,0.0,0.0,0.0,0.0,0.0,0.0,0.0,0.0,0.0,0.0,0.0,0.0,0.0,0.0,0.0,0.0,0.0,0.0,0.0,0.0,0.0,0.0,0.0,0.0,0.0,0.0,0.0,0.0,0.0,0.0,0.0,0.0,0.0,0.0,0.0,0.0,0.0,0.0,0.0,0.0,0.0,0.0,0.0,0.0,0.0,0.0,0.0,0.0,0.0,0.0,0.0,0.0,0.0,0.0,0.0,0.0,0.0,0.0,0.0,0.0,0.0,0.0,0.0,0.0,0.0,0.0,0.0,0.0,0.0,0.0,0.0,0.0,0.0,0.0,0.0,0.0,0.0,0.0,0.0,0.0,0.0,0.0,0.0,0.0,0.0,0.0,0.0,0.0,0.0,0.0,0.0,0.0,0.0,0.0,0.0,0.0,0.0,0.0,0.0,0.0,0.0,0.0,0.0,0.0,0.0,0.0,0.0,0.0,0.0,0.0,0.0,0.0,0.0,0.0,0.0,0.0,0.0,0.0,0.0,0.0,0.0,0.0,0.0,0.0,0.0,0.0,0.0,0.0,0.0,0.0,0.0,0.0,0.0,0.0,0.0,0.0,0.0,0.0,0.0,0.0,0.0,0.0,0.0,0.0,0.0,0.0,0.0,0.0,0.0,0.0,0.0,0.0,0.0,0.0,0.0,0.0,0.0,0.0,0.0,0.0,0.0,0.0,0.0,0.0,0.0,0.0,0.0,0.0,0.0,0.0,0.0,0.0,0.0,0.0,0.0,0.0,0.0,0.0,0.0,0.0,0.0,0.0,0.0,0.0,0.0,0.0,0.0,0.0,0.0,0.0,0.0,0.0,0.0,0.0,0.0,0.0,0.0,0.0,0.0,0.0,0.0,0.0,0.0,0.0,0.0,0.0,0.0,0.0,0.0,0.0,0.0,0.0,0.0,0.0,0.0,0.0,0.0,0.0,0.0,0.0,0.0,0.0,0.0,0.0,0.0,0.0,0.0,0.0,0.0,0.0,0.0,0.0,0.0,0.0,0.0,0.0,0.0,0.0,0.0,0.0,0.0,0.0,0.0,0.0,0.0,0.0,0.0,0.0,0.0,0.0,0.0,0.0,0.0,0.0,0.0,0.0,0.0,0.0,0.0,0.0,0.0,0.0,0.0,0.0,0.0,0.0,0.0,0.0,0.0,0.0,0.0,0.0,0.0,0.0,0.0,0.0,0.0,0.0,0.0,0.0,0.0,0.0,0.0,0.0,0.0,0.0,0.0,0.0,0.0,0.0,0.0,0.0,0.0,0.0,0.0,0.0,0.0,0.0,0.0,0.0,0.0,0.0,0.0,0.0,0.0,0.0,0.0,0.0,0.0,0.0,0.0,0.0,0.0,0.0,0.0,0.0,0.0,0.0,0.0,0.0,0.0,0.0,0.0,0.0,0.0,0.0,0.0,0.0,0.0,0.0,0.0,0.0,0.0,0.0,0.0,0.0,0.0,0.0,0.0,0.0,0.0,0.0,0.0,0.0,0.0,0.0,0.0,0.0,0.0,0.0,0.0,0.0,0.0,0.0,0.0,0.0,0.0,0.0,0.0,0.0,0.0,0.0,0.0,0.0,0.0,0.0,0.0,0.0,0.0,0.0,0.0,0.0,0.0,0.0,0.0,0.0,0.0,0.0,0.0,0.0,0.0,0.0,0.0,0.0,0.0,0.0,0.0,0.0,0.0,0.0,0.0,0.0,0.0,0.0,0.0,0.0,0.0,0.0,0.0,0.0,0.0,0.0,0.0,0.0,0.0,0.0,0.0,0.0,0.0,0.0,0.0,0.0,0.0,0.0,0.0,0.0,0.0,0.0,0.0,0.0,0.0,0.0,0.0,0.0,0.0,0.0,0.0,0.0,0.0,0.0,0.0,0.0,0.0,0.0,0.0,0.0,0.0,0.0,0.0,0.0,0.0,0.0,0.0,0.0,0.0,0.0,0.0,0.0,0.0,0.0,0.0,0.0,0.0,0.0,0.0,0.0,0.0,0.0,0.0,0.0,0.0,0.0,0.0,0.0,0.0,0.0,0.0,0.0,0.0,0.0,0.0,0.0,0.0,0.0,0.0,0.0,0.0,0.0,0.0,0.0,0.0,0.0,0.0,0.0,0.0,0.0,0.0,0.0,0.0,0.0,0.0,0.0,0.0,0.0,0.0,0.0,0.0,0.0,0.0,0.0,0.0,0.0,0.0,0.0,0.0,0.0,0.0,0.0,0.0,0.0,0.0,0.0,0.0,0.0,0.0,0.0,0.0,0.0,0.0,0.0,0.0,0.0,0.0,0.0,0.0,0.0,0.0,0.0,0.0,0.0,0.0,0.0,0.0,0.0,0.0,0.0,0.0,0.0,0.0,0.0,0.0,0.0,0.0,0.0,0.0,0.0,0.0,0.0,0.0,0.0,0.0,0.0,0.0,0.0,0.0,0.0,0.0,0.0,0.0,0.0,0.0,0.0,0.0,0.0,0.0,0.0,0.0,0.0,0.0,0.0,0.0,0.0,0.0,0.0,0.0,0.0,0.0,0.0,0.0,0.0,0.0,0.0,0.0,0.0,0.0,0.0,0.0,0.0,0.0,0.0,0.0,0.0,0.0,0.0,0.0,0.0,0.0,0.0,0.0,0.0,0.0,0.0,0.0,0.0,0.0,0.0,0.0,0.0,0.0,0.0,0.0,0.0,0.0,0.0,0.0,0.0,0.0,0.0,0.0,0.0,0.0,0.0,0.0,0.0,0.0,0.0,0.0,0.0,0.0,0.0,0.0,0.0,0.0,0.0,0.0,0.0,0.0,0.0,0.0,0.0,0.0,0.0,0.0,0.0,0.0,0.0,0.0,0.0,0.0,0.0,0.0,0.0,0.0,0.0,0.0,0.0,0.0,0.0,0.0,0.0,0.0,0.0,0.0,0.0,0.0,0.0,0.0,0.0,0.0,0.0,0.0,0.0,0.0,0.0,0.0,0.0,0.0,0.0,0.0,0.0,0.0,0.0,0.0,0.0,0.0,0.0,0.0,0.0,0.0,0.0,0.0,0.0,0.0,0.0,0.0,0.0,0.0,0.0,0.0,0.0,0.0,0.0,0.0,0.0,0.0,0.0,0.0,0.0,0.0,0.0,0.0,0.0,0.0,0.0,0.0,0.0,0.0,0.0,0.0,0.0,0.0,0.0,0.0,0.0,0.0,0.0,0.0,0.0,0.0,0.0,0.0,0.0,0.0,0.0,0.0,0.0,0.0,0.0,0.0,0.0,0.0,0.0,0.0,0.0,0.0,0.0,0.0,0.0,0.0,0.0,0.0,0.0,0.0,0.0,0.0,0.0,0.0,0.0,0.0,0.0,0.0,0.0,0.0,0.0,0.0,0.0,0.0,0.0,0.0,0.0,0.0,0.0,0.0,0.0,0.0,0.0,0.0,0.0,0.0,0.0,0.0,0.0,0.0,0.0,0.0,0.0,0.0,0.0,0.0,0.0,0.0,0.0,0.0,0.0,0.0,0.0,0.0,0.0,0.0,0.0,0.0,0.0,0.0,0.0,0.0,0.0,0.0,0.0,0.0,0.0,0.0,0.0,0.0,0.0,0.0,0.0,0.0,0.0,0.0,0.0,0.0,0.0,0.0,0.0,0.0,0.0,0.0,0.0,0.0,0.0,0.0,0.0,0.0,0.0,0.0,0.0,0.0,0.0,0.0,0.0,0.0,0.0,0.0,0.0,-4.785,0.0,0.0,0.0,0.0,0.0,0.0,0.0,0.0,0.0,0.0,0.0,0.0,0.0,0.0,0.0,0.0,0.0,0.0,0.0,0.0,0.0,0.0,0.0,0.0,0.0,0.0,0.0,0.0,0.0,0.0,0.0,0.0,0.0,0.0,0.0,0.0,0.0,0.0,0.0,0.0,0.0,0.0,0.0,0.0,0.0,0.0,0.0,0.0,0.0,0.0,0.0,0.0,0.0,0.0,0.0,0.0,0.0,0.0,0.0,0.0,0.0,0.0,0.0,0.0,0.0,0.0,0.0,0.0,0.0,0.0,0.0,0.0,0.0,0.0,0.0,0.0,0.0,0.0,0.0,0.0,0.0,0.0,0.0,0.0,0.0,0.0,0.0,0.0,0.0,0.0,0.0,0.0,0.0,0.0,0.0,0.0,0.0,0.0,0.0,0.0,0.0,0.0,0.0,0.0,0.0,0.0,0.0,0.0,0.0,0.0,0.0,0.0,0.0,0.0,0.0,0.0,-4.8598,0.0,0.0,0.0,0.0,0.0,0.0,0.0,0.0,0.0,0.0,0.0,0.0,0.0,0.0,0.0,0.0,0.0,0.0,0.0,0.0,0.0,0.0,0.0,0.0,0.0,0.0,0.0,0.0,0.0,0.0,0.0,0.0,0.0,0.0,0.0,0.0,0.0,0.0,0.0,0.0,0.0,0.0,0.0,0.0,0.0,0.0,0.0,0.0,0.0,0.0,0.0,0.0,0.0,0.0,0.0,0.0,0.0,0.0,0.0,0.0,0.0,0.0,0.0,0.0,0.0,0.0,0.0,0.0,0.0,0.0,0.0,0.0,0.0,0.0,0.0,0.0,0.0,0.0,0.0,0.0,0.0,0.0,0.0,0.0,0.0,0.0,0.0,0.0,0.0,0.0,0.0,0.0,0.0,0.0,0.0,0.0,0.0,0.0,0.0,0.0,0.0,0.0,0.0,0.0,0.0,0.0,0.0,0.0,-5.3188,-5.3739,-5.4231,-5.3702,-5.383,-5.4359,-5.2767,-5.1741,-5.085,-4.6318,0.0,0.0,0.0,0.0,0.0,0.0,0.0,0.0,0.0,0.0,0.0,0.0,0.0,0.0,0.0,0.0,0.0,0.0,0.0,0.0,0.0,0.0,0.0,0.0,0.0,0.0,0.0,0.0,0.0,0.0,0.0,0.0,0.0,0.0,0.0,0.0,0.0,0.0,-3.9162,-3.9743,-3.9835,-3.9505,0.0,0.0,0.0,0.0,0.0,0.0,0.0,0.0,0.0,0.0,0.0,0.0,0.0,0.0,0.0,0.0,0.0,0.0,0.0,0.0,0.0,0.0,0.0,0.0,0.0,0.0,0.0,0.0,0.0,0.0,0.0,0.0,0.0,0.0,0.0,0.0,0.0,0.0,0.0,0.0,0.0,0.0,0.0,0.0,-4.2387,-4.2832,0.0,0.0,0.0,0.0,0.0,0.0,0.0,0.0,0.0,0.0,0.0,0.0,0.0,-5.073,-5.1742,-5.4454,-5.5611,-5.5174,-5.796,-5.8988,-5.8432,-5.9024,-5.9355,-5.9344,-5.7824,0.0,-5.1445,-4.92,0.0,0.0,0.0,0.0,0.0,0.0,0.0,0.0,0.0,0.0,0.0,0.0,0.0,0.0,0.0,0.0,0.0,0.0,0.0,0.0,0.0,0.0,0.0,0.0,0.0,0.0,0.0,0.0,0.0,0.0,0.0,0.0,0.0,0.0,0.0,0.0,-3.9334,-4.1137,-4.1279,-4.2072,-4.2429,-4.2396,-4.1691,-4.0314,-3.8436,-3.6916,0.0,0.0,0.0,0.0,0.0,0.0,0.0,0.0,0.0,0.0,0.0,0.0,0.0,0.0,0.0,0.0,0.0,0.0,0.0,0.0,0.0,0.0,0.0,0.0,0.0,0.0,0.0,0.0,0.0,0.0,0.0,0.0,0.0,0.0,0.0,0.0,0.0,0.0,0.0,-4.4855,-4.962,-5.1432,-5.1658,-4.951,0.0,0.0,0.0,0.0,0.0,0.0,0.0,0.0,0.0,-5.2447,-5.2716,-5.3647,-5.5354,-5.7226,-5.8437,-5.8988,-6.0401,-6.1135,-6.1184,-6.0658,-6.0658,-6.0946,-5.8486,-5.6363,-5.4518,-5.2972,-4.9499,-4.4761,0.0,0.0,0.0,0.0,-4.1161,-4.2864,0.0,0.0,0.0,0.0,0.0,0.0,0.0,0.0,0.0,0.0,0.0,0.0,0.0,0.0,0.0,-3.1416,0.0,0.0,0.0,0.0,0.0,0.0,0.0,0.0,0.0,0.0,0.0,0.0,-4.2114,-4.3511,-4.3301,-4.3517,-4.369,-4.3814,-4.3476,-4.2008,-3.9677,-3.8216,-3.5657,0.0,0.0,0.0,0.0,0.0,0.0,0.0,0.0,0.0,0.0,0.0,0.0,0.0,0.0,0.0,0.0,0.0,0.0,0.0,0.0,0.0,0.0,0.0,0.0,0.0,0.0,0.0,0.0,0.0,0.0,0.0,0.0,0.0,0.0,0.0,0.0,0.0,0.0,-4.7665,-5.162,-5.4015,-5.7209,-5.5578,0.0,0.0,0.0,0.0,0.0,0.0,-5.3764,-5.382,-5.4107,-5.473,-5.5519,-5.6895,-5.8896,-5.9722,-6.0731,-6.1906,-6.1686,-6.1906,-6.2456,-6.1043,-6.0731,-6.1123,-5.8179,-5.6893,-5.6797,-5.5531,-5.3093,-4.963,-4.4427,-4.2373,-4.2387,-4.238,-4.3793,-4.6149,0.0,0.0,0.0,0.0,0.0,0.0,0.0,0.0,0.0,0.0,0.0,0.0,0.0,0.0,-3.1562,-3.1753,-3.1871,-3.1923,0.0,0.0,0.0,0.0,0.0,0.0,0.0,0.0,0.0,-4.1808,-4.2703,-4.3934,-4.5395,-4.3492,-4.286,-4.3322,-4.2978,-4.2406,-4.1516,-3.9343,-3.6861,-3.4176,0.0,0.0,0.0,0.0,0.0,0.0,0.0,0.0,0.0,0.0,0.0,0.0,0.0,0.0,0.0,0.0,0.0,0.0,0.0,0.0,0.0,0.0,0.0,0.0,0.0,0.0,0.0,0.0,0.0,0.0,0.0,0.0,0.0,0.0,0.0,0.0,0.0,0.0,0.0,-4.4219,-5.5077,0.0,0.0,0.0,0.0,-5.4868,-5.5681,-5.5945,-5.5508,-5.5467,-5.6532,-5.8817,-5.9685,-6.0529,-6.141,-6.2236,-6.2652,-6.275,-6.1961,-6.1612,-6.163,-6.0786,-6.0419,-6.0329,-5.7944,-5.6908,-5.6786,-5.5529,-5.4308,-5.2955,-4.9783,-4.8544,-4.8553,-4.8532,-4.8636,-4.9215,0.0,0.0,0.0,0.0,0.0,0.0,0.0,0.0,0.0,0.0,0.0,0.0,0.0,-2.9646,-3.0896,-3.1029,-3.1569,-3.1426,-3.0305,0.0,0.0,0.0,0.0,0.0,0.0,0.0,-4.0048,-4.2053,-4.2795,-4.3463,-4.4035,-4.2996,-4.2514,-4.2511,-4.2184,-4.1397,-4.0288,-4.0028,-3.7815,-3.4399,-3.3161,-3.0974,0.0,0.0,0.0,0.0,0.0,0.0,0.0,0.0,0.0,0.0,0.0,0.0,0.0,0.0,0.0,0.0,0.0,0.0,0.0,0.0,0.0,0.0,0.0,0.0,0.0,0.0,0.0,0.0,0.0,0.0,0.0,0.0,0.0,0.0,0.0,0.0,0.0,-6.1927,-5.9792,0.0,-6.0014,-5.9682,-5.9837,-6.0963,-5.9757,-5.9117,-5.9428,-5.8969,-5.9318,-6.0694,-6.0529,-6.0786,-6.1575,-6.1374,-6.1263,-6.1263,-6.097,-6.0823,-6.0805,-5.9997,-5.9648,-5.9504,-5.7155,-5.6113,-5.6009,-5.4606,-5.3825,-5.3386,-5.2306,-5.1909,-5.1893,-5.1899,-5.1904,-5.206,0.0,0.0,0.0,0.0,0.0,0.0,0.0,0.0,0.0,0.0,0.0,-2.665,-2.7462,-2.9112,-3.0173,-3.0216,-3.0759,-3.0603,-2.9434,0.0,0.0,0.0,0.0,0.0,0.0,-3.8155,-3.9867,-4.1282,-4.1733,-4.2083,-4.2344,-4.1431,-4.0959,-4.0832,-4.0602,-3.9824,-3.8746,-3.9545,-3.7943,-3.4783,-3.3876,-3.1949,-2.9536,0.0,0.0,0.0,0.0,0.0,0.0,0.0,0.0,0.0,0.0,0.0,0.0,0.0,0.0,0.0,0.0,0.0,0.0,0.0,0.0,0.0,0.0,0.0,0.0,0.0,0.0,0.0,0.0,0.0,0.0,0.0,0.0,0.0,0.0,-6.0226,-6.7688,-6.7629,-6.2604,-6.0225,-6.297,-6.3487,-6.3835,-6.4339,-6.2935,-6.2181,-6.242,-6.1942,-6.1759,-6.1998,-6.1502,-6.1337,-6.1594,-6.1062,-6.0676,-6.0401,-6.0126,-6.0015,-5.9979,-5.9171,-5.8668,-5.833,-5.6482,-5.5581,-5.5215,-5.3703,-5.3094,-5.309,-5.3007,-5.287,-5.2697,-5.2711,-5.303,-5.3348,0.0,0.0,0.0,0.0,0.0,0.0,0.0,0.0,0.0,0.0,-2.5715,-2.6458,-2.6688,-2.8335,-2.9426,-2.9428,-2.9413,-2.9391,-2.9351,-2.8513,0.0,0.0,0.0,0.0,-3.4544,-3.6952,-3.8663,-3.9583,-3.9448,-3.9786,-4.0511,-3.8814,-3.8112,-3.8304,-3.8211,-3.7747,-3.7045,-3.7823,-3.7137,-3.5391,-3.4076,-3.2321,-3.0381,0.0,0.0,0.0,0.0,0.0,0.0,0.0,0.0,0.0,0.0,0.0,0.0,0.0,0.0,0.0,0.0,0.0,0.0,0.0,0.0,0.0,0.0,0.0,0.0,0.0,0.0,0.0,0.0,0.0,0.0,0.0,0.0,0.0,-6.2924,-6.5661,-6.5329,-5.9091,-6.2972,-6.4413,-5.9936,-6.308,-6.5044,-6.4237,-6.4879,-6.4952,-6.4127,-6.4053,-6.3649,-6.2805,-6.2725,-6.2346,-6.152,-6.1484,-6.1098,-6.0327,-5.9515,-5.9148,-5.9129,-5.8322,-5.7546,-5.6825,-5.5996,-5.5209,-5.4406,-5.288,-5.2266,-5.2249,-5.2048,-5.1645,-5.1176,-5.1203,-5.2138,-5.2942,0.0,0.0,0.0,0.0,0.0,0.0,0.0,0.0,0.0,0.0,-2.5313,-2.5967,-2.6684,-2.7237,-2.7558,-2.7614,-2.7566,-2.7184,-2.6362,0.0,0.0,0.0,0.0,0.0,-3.3551,-3.5485,-3.663,-3.6931,-3.6808,-3.6907,-3.7212,-3.6585,-3.6183,-3.5993,-3.5779,-3.5378,-3.4844,-3.4889,-3.4309,-3.3425,-3.4104,-3.3153,-3.1201,0.0,0.0,0.0,0.0,0.0,0.0,0.0,0.0,0.0,0.0,0.0,0.0,0.0,0.0,0.0,0.0,0.0,0.0,0.0,0.0,0.0,0.0,0.0,0.0,0.0,0.0,0.0,0.0,0.0,0.0,0.0,-5.5893,-6.23,-6.5864,-6.6467,-6.6445,-6.621,-6.6809,-6.699,-6.6311,-6.6714,-6.6696,-6.5888,-6.5503,-6.4952,-6.4127,-6.3503,-6.2787,-6.1961,-6.1374,-6.0676,-5.9887,-5.9281,-5.8877,-5.8657,-5.8437,-5.8327,-5.8304,-5.7559,-5.6808,-5.6021,-5.4684,-5.3686,-5.2943,-5.1909,-5.1505,-5.1505,-5.1438,-5.1137,-5.0736,-5.1068,-5.0779,-5.0137,0.0,0.0,0.0,0.0,0.0,0.0,0.0,0.0,0.0,0.0,-2.5086,-2.5522,-2.6186,-2.6283,-2.6309,-2.6348,-2.6227,-2.5844,-2.5159,0.0,0.0,0.0,0.0,-3.1326,-3.2449,-3.349,-3.4068,-3.4211,-3.384,-3.3651,-3.3688,-3.3595,-3.335,-3.301,-3.3118,-3.2899,-3.2501,-3.2598,-3.2244,-3.1709,-3.2533,-3.2353,-3.1409,-3.0088,-2.9304,-2.8868,-2.8275,-2.8105,-2.8079,-2.7804,0.0,0.0,0.0,0.0,0.0,0.0,0.0,0.0,0.0,0.0,0.0,0.0,0.0,0.0,0.0,0.0,0.0,0.0,0.0,0.0,0.0,0.0,0.0,0.0,-5.7108,-6.0707,-6.4448,-6.5225,-6.5833,-6.6997,-6.6867,-6.688,-6.7357,-6.6971,-6.6494,-6.6035,-6.5576,-6.4952,-6.4127,-6.3282,-6.2438,-6.163,-6.0823,-6.0015,-5.9203,-5.8749,-5.8327,-5.7997,-5.7997,-5.7813,-5.7478,-5.6769,-5.5829,-5.4729,-5.3549,-5.2602,-5.184,-5.1068,-5.0744,0.0,0.0,0.0,0.0,0.0,-4.9731,-4.9004,0.0,0.0,0.0,0.0,0.0,0.0,0.0,0.0,0.0,0.0,0.0,-2.5192,-2.5446,-2.5525,-2.5584,-2.5582,-2.5332,-2.5149,0.0,0.0,0.0,-2.6984,-2.8609,-2.9962,-3.0994,-3.1115,-3.1264,-3.1423,-3.0761,-3.0416,-3.0331,-3.0372,-3.0215,-2.9894,-3.0371,-3.0426,-3.0205,-3.0698,-3.0573,-3.0064,-3.0144,-3.0545,-3.0936,-2.9102,-2.9012,-2.9664,-2.8343,-2.8239,-2.8712,-2.8657,0.0,0.0,0.0,0.0,0.0,0.0,0.0,0.0,0.0,0.0,0.0,0.0,0.0,0.0,0.0,0.0,0.0,0.0,0.0,0.0,0.0,0.0,0.0,0.0,-5.6762,-5.8698,-6.0698,-6.2745,-6.4051,-6.4097,-6.4732,-6.5209,-6.5301,-6.5319,-6.5264,-6.5173,-6.5081,-6.4677,-6.3851,0.0,0.0,0.0,0.0,-5.9887,-5.9056,-5.9056,-5.8712,-5.7997,-5.7997,-5.7574,-5.6781,-5.6104,-5.4868,-5.3254,-5.2561,-5.1777,-5.0913,-5.0253,-4.9965,-4.9965,-4.9965,-4.9898,-4.9729,-4.9086,-4.8904,-4.8954,0.0,0.0,0.0,0.0,0.0,0.0,0.0,0.0,0.0,-2.4474,-2.4866,-2.5142,-2.5249,-2.5377,-2.5467,-2.5513,-2.5211,-2.4917,0.0,0.0,-2.4985,-2.594,-2.6985,-2.7723,-2.81,-2.8806,-2.8944,-2.8511,-2.838,-2.8427,-2.8661,-2.8613,-2.8558,-2.8468,-2.8151,-2.8304,-2.8772,-2.8564,-2.8254,-2.795,-2.8483,-2.8827,-2.9014,-2.9059,-2.8705,-2.8189,-2.8326,-2.8578,-2.8788,-2.8377,-2.8624,-2.9122,-2.9225,0.0,0.0,0.0,0.0,0.0,0.0,0.0,0.0,0.0,0.0,0.0,0.0,0.0,0.0,0.0,0.0,0.0,0.0,0.0,0.0,-5.239,-5.5677,-5.8373,-5.9428,-6.0517,-6.1912,-6.3851,-6.4237,-6.4585,-6.5246,-6.5319,-6.5044,-6.4383,-6.3686,-6.2934,-6.2126,-6.1318,-6.0511,-5.9703,-5.9496,-5.9061,-5.8235,-5.8235,-5.8143,-5.7997,0.0,0.0,-5.6781,-5.6037,-5.4538,-5.2484,-5.1747,-5.0682,-4.9407,-4.9272,-4.9221,-4.9221,-4.9221,-4.8734,-4.7997,-4.7845,-4.829,-4.8677,0.0,0.0,0.0,0.0,0.0,0.0,0.0,0.0,0.0,0.0,-2.4771,-2.5004,-2.5174,-2.5317,-2.5423,-2.5483,-2.5134,0.0,0.0,-2.4266,-2.4597,-2.5514,-2.5959,-2.647,-2.7092,-2.7138,-2.7047,-2.6842,-2.6554,-2.6487,-2.6659,-2.6791,-2.6814,-2.6749,-2.6752,-2.6817,-2.6891,-2.685,-2.669,-2.6405,-2.6402,-2.6398,-2.6524,-2.7694,-2.7954,-2.7716,-2.7851,-2.8308,-2.885,-2.8574,-2.896,-2.951,-2.9571,-2.9761,-2.9956,0.0,0.0,0.0,0.0,0.0,0.0,0.0,0.0,0.0,0.0,0.0,0.0,0.0,0.0,-4.8122,-4.8659,0.0,-5.205,-5.4087,-5.6088,-5.7761,-5.8806,-5.9081,-6.0042,-6.2313,-6.2395,-6.2506,-6.3144,-6.2996,-6.2677,-6.2273,-6.1851,-6.1429,-6.1025,-6.0254,-5.9606,-5.9203,-5.8822,-5.8419,-5.7997,-5.7593,-5.7409,-5.7391,-5.6987,-5.6381,-5.557,-5.4821,-5.3655,-5.2133,-5.1067,-5.0183,-4.9462,-4.9138,-4.9001,-4.8968,-4.8595,-4.8142,-4.7625,-4.6986,-4.7047,-4.7206,0.0,0.0,0.0,0.0,0.0,0.0,0.0,0.0,0.0,0.0,0.0,-2.4809,-2.5082,-2.5299,-2.5391,0.0,0.0,0.0,0.0,-2.4161,-2.4426,-2.4957,-2.5104,-2.5519,-2.6256,-2.5699,-2.5507,-2.5706,-2.5252,-2.5056,-2.5115,-2.5425,-2.5602,-2.5673,-2.6044,-2.6037,-2.577,-2.587,-2.5712,-2.5387,-2.475,-2.438,-2.4378,-2.5913,-2.6689,-2.6993,-2.7107,-2.762,-2.8311,-2.875,-2.9164,-2.9503,-2.9729,-2.9935,-3.005,-2.9618,-3.0522,0.0,0.0,0.0,0.0,0.0,0.0,0.0,0.0,-4.3205,-4.5575,-4.457,-4.7704,-5.0702,-5.0982,-5.194,-5.3579,-5.626,-5.6982,-5.7522,-5.8559,-5.8442,-5.8878,-6.0584,-6.0489,-6.0539,-6.1179,-6.08,-6.053,-6.053,-6.0325,-6.0181,-6.0181,-5.9386,-5.8964,-5.8964,-5.8198,-5.7776,-5.7776,-5.6969,-5.6565,-5.6565,-5.5904,-5.517,-5.4378,-5.3781,-5.3013,-5.2024,-5.0591,-4.9919,-4.9763,-4.9059,-4.8883,-4.8917,-4.8037,-4.7699,-4.7551,-4.6387,-4.5841,-4.5607,0.0,0.0,0.0,0.0,0.0,0.0,0.0,0.0,0.0,0.0,0.0,0.0,0.0,0.0,0.0,0.0,0.0,0.0,-2.3798,-2.4026,-2.3963,-2.3471,-2.4013,-2.4248,-2.4062,-2.4268,-2.4469,-2.4676,-2.4779,-2.4924,-2.5111,-2.5373,-2.5884,-2.6546,-2.6315,-2.6521,-2.7046,-2.6229,-2.5631,-2.5195,-2.4695,-2.4095,-2.3587,-2.4329,-2.4511,-2.4596,-2.6068,-2.6336,-2.6276,-2.8223,-2.8649,-2.8473,-2.9478,-2.9819,-2.9706,-2.9033,0.0,-2.9917,-2.9671,-3.2144,-3.5309,-3.7458,-3.8899,-4.0874,0.0,-4.5761,-4.6541,-4.9401,-5.1506,-5.264,-5.1985,-5.3683,-5.5457,-5.6229,-5.7553,-5.8541,-5.8676,-5.9009,-5.9323,-5.9565,-5.981,-6.0416,-6.162,-6.1302,-6.1026,-6.1026,-5.9987,-5.9313,-5.9313,-5.8565,-5.8125,-5.8125,-5.7354,-5.6932,-5.6932,-5.6143,-5.5721,-5.5721,-5.5629,-5.517,-5.4399,-5.4316,-5.3476,-5.2024,-5.0591,-4.9664,-4.9057,-4.8321,-4.8426,-4.8866,-4.7462,-4.6921,-4.6836,-4.6017,-4.5306,-4.4731,0.0,0.0,0.0,0.0,0.0,0.0,0.0,0.0,0.0,0.0,0.0,0.0,0.0,0.0,0.0,0.0,0.0,0.0,-2.4201,-2.4182,-2.4074,-2.3795,-2.4054,-2.4123,-2.3996,-2.4141,-2.4247,-2.433,-2.4537,-2.4975,-2.5641,-2.5936,-2.6552,-2.7375,-2.7056,-2.6918,-2.6901,-2.6281,-2.5524,-2.4705,-2.4181,-2.3724,-2.3338,-2.3197,-2.3094,-2.3188,-2.4544,-2.5071,0.0,0.0,-2.6556,-2.6791,-2.763,-2.7906,-2.7851,-2.7278,-2.843,0.0,-3.3036,-3.4546,-3.6104,-3.9096,-4.0888,-4.2577,-4.526,-4.634,-4.7374,-4.9671,-5.1019,-5.198,-5.2595,-5.3715,-5.5089,-5.6719,-5.7361,-5.8086,-5.9326,-5.8612,-5.8311,-5.9331,-5.934,-5.9675,-6.0725,-6.0391,-6.0001,-5.9719,-5.921,-5.8781,-5.8534,-5.818,-5.7795,-5.7317,-5.6987,-5.6583,-5.6106,-5.5299,-5.4895,-5.4895,-5.4436,-5.4032,-5.3702,-5.3702,-5.2904,-5.1476,-5.0426,-4.9381,-4.8308,-4.7564,-4.7445,-4.7614,-4.6566,-4.6413,-4.6701,-4.5974,-4.5223,-4.4603,0.0,0.0,0.0,0.0,0.0,0.0,0.0,0.0,0.0,0.0,0.0,0.0,0.0,0.0,0.0,0.0,0.0,0.0,0.0,-2.4302,-2.419,-2.3927,-2.4006,-2.4016,-2.3927,-2.4016,-2.4064,-2.4064,-2.4631,-2.5421,-2.6375,-2.7002,-2.7881,-2.8925,-2.859,-2.8126,-2.7555,-2.68,-2.5756,-2.4564,-2.3653,-2.3272,-2.3227,-2.2556,-2.2309,-2.2435,-2.3414,-2.3908,0.0,0.0,-2.4944,-2.5525,-2.6115,-2.6446,-2.6587,-2.6368,-2.7993,-3.075,-3.4769,-3.5828,-3.6613,-3.9809,-4.1921,-4.3518,-4.4721,-4.623,-4.7745,-4.8981,-4.978,-5.0706,-5.2088,-5.2865,-5.4051,-5.644,-5.6775,-5.7425,-5.9449,-5.8327,-5.7872,-5.9485,-5.9262,-5.9341,-6.0201,-5.987,-5.9441,-5.9121,-5.8971,-5.8694,-5.8235,-5.819,-5.7773,-5.684,-5.6583,-5.6088,-5.5262,-5.4473,-5.4069,-5.4069,-5.3482,-5.3185,-5.3185,-5.2968,-5.2204,-5.0994,-5.0054,-4.8976,-4.7763,-4.6874,-4.6616,-4.6701,-4.5754,-4.5838,-4.6397,-4.5669,-4.5179,-4.4886,0.0,0.0,0.0,0.0,0.0,0.0,0.0,0.0,0.0,0.0,0.0,0.0,0.0,0.0,0.0,0.0,0.0,0.0,0.0,-2.4318,-2.4109,-2.3271,-2.3544,-2.3566,-2.3242,-2.3555,-2.3714,-2.3714,-2.5229,-2.6397,-2.7293,-2.8672,-3.0117,-3.1561,-3.1166,-3.059,-2.9786,-2.8063,-2.6544,-2.5103,-2.3208,-2.2785,-2.3227,-2.2556,-2.2309,-2.2355,-2.2932,0.0,0.0,0.0,-2.4463,-2.5109,-2.5643,-2.6233,0.0,-2.699,-2.8236,-3.0132,-3.2936,-3.4673,-3.6257,-3.8503,-4.1053,-4.3217,-4.4037,-4.5732,-4.7351,-4.8177,-4.8678,-4.9201,-5.0037,-5.1162,-5.2651,-5.4822,-5.581,-5.6896,-5.8602,-5.8496,-5.8717,-5.9932,-5.9709,-5.9827,0.0,-6.0351,-6.0069,-6.0055,-5.9644,-5.9158,-5.8694,-5.8674,-5.8092,-5.6822,-5.6033,-5.5244,-5.4436,-5.3647,-5.3243,-5.3243,-5.3203,-5.3185,-5.3167,-5.238,-5.1624,-5.0834,-4.9434,-4.8415,-4.7582,-4.6277,-4.616,-4.665,-4.5207,-4.5077,-4.5652,-4.4919,-4.506,-4.5568,0.0,0.0,0.0,0.0,0.0,0.0,0.0,0.0,0.0,0.0,0.0,0.0,0.0,0.0,0.0,0.0,0.0,0.0,0.0,-2.471,-2.4402,-2.3761,-2.384,-2.3684,-2.3212,-2.3786,-2.4106,-2.4106,-2.5906,-2.7303,-2.8326,-2.9864,-3.1086,-3.1971,-3.2193,-3.1288,-2.9569,-2.9128,-2.7832,-2.5981,-2.4717,-2.4222,-2.4198,-2.3312,-2.2726,-2.2391,0.0,0.0,0.0,0.0,-2.3217,-2.3491,-2.4041,-2.4963,-2.6195,-2.8008,-2.9304,-3.0798,-3.4057,-3.5276,-3.639,-3.9474,-4.1281,-4.2565,-4.3662,-4.5155,-4.6434,-4.6938,-4.6259,-4.59,-4.6914,-4.8136,-4.9771,-5.219,-5.4006,-5.6084,-5.8865,-5.8212,-5.7997,-5.951,-5.9576,-5.9627,0.0,0.0,0.0,-6.0132,-5.9946,-5.9661,-5.9195,-5.8874,-5.7999,-5.6518,-5.5902,-5.495,-5.3628,-5.3332,-5.3185,-5.3185,-5.2656,-5.2123,-5.161,-5.1334,-5.0803,-5.0023,-4.8657,-4.7633,-4.6834,-4.496,-4.4333,-4.4502,-4.4012,-4.3961,-4.4136,-4.391,-4.3961,-4.4147,0.0,0.0,0.0,0.0,0.0,0.0,0.0,0.0,0.0,0.0,0.0,0.0,0.0,0.0,0.0,0.0,0.0,0.0,0.0,0.0,-2.4728,-2.4294,-2.398,-2.3663,-2.332,-2.3582,-2.3739,-2.3739,-2.5744,-2.7374,-2.8636,-3.0643,-3.166,-3.1804,-3.2412,-3.1089,-2.8432,-2.8334,-2.7229,-2.5434,-2.4731,-2.4387,-2.4274,-2.3851,-2.3312,0.0,0.0,0.0,0.0,0.0,-2.2862,-2.3299,-2.3588,-2.4786,-2.651,-2.8673,-2.9997,-3.1464,-3.4706,-3.5739,-3.6544,-3.9376,-4.0682,-4.1511,-4.2325,-4.347,-4.4412,-4.4649,-4.3758,-4.3284,-4.4297,-4.551,-4.7097,-4.9354,-5.1387,-5.3953,-5.7627,-5.6973,-5.708,-5.9665,-5.9954,-5.9954,-5.9954,-6.0742,0.0,-6.0403,-6.0638,-6.0471,-5.9696,-5.9354,-5.8315,-5.6368,-5.6012,-5.4999,-5.3225,-5.3185,-5.3185,-5.3185,-5.238,-5.172,-5.1206,-5.0618,-4.9939,-4.9122,-4.7761,-4.6601,-4.5583,-4.3992,-4.3212,-4.3014,-4.3014,-4.3014,-4.3014,-4.3014,-4.3014,-4.3014,0.0,0.0,0.0,0.0,0.0,0.0,0.0,0.0,0.0,0.0,0.0,0.0,0.0,0.0,0.0,0.0,0.0,0.0,0.0,0.0,0.0,-2.4795,-2.3987,-2.3529,-2.3483,-2.2998,-2.2764,-2.279,-2.492,-2.6746,-2.8272,-3.0996,-3.1877,-3.1197,-3.1957,-3.0198,-2.6646,-2.6115,-2.5064,-2.3793,-2.3522,-2.3474,-2.3663,-2.4291,0.0,0.0,0.0,0.0,0.0,0.0,-2.3496,-2.4544,-2.4517,-2.5893,-2.7787,-2.9132,-3.0513,-3.221,-3.4908,-3.6058,-3.6811,-3.8287,-3.9403,-4.0185,-4.0203,-4.0942,-4.1609,-4.1586,-4.1366,-4.1386,-4.2141,-4.3311,-4.4767,-4.6546,-4.8393,-5.1077,-5.5264,-5.5254,-5.6321,-6.0323,-6.0831,-6.0839,-6.08,-6.1601,0.0,-6.0858,0.0,-6.1486,-6.0199,-6.0079,-5.8913,-5.6444,-5.6275,-5.5258,-5.3248,-5.3206,-5.317,-5.3057,-5.2307,-5.1885,-5.1756,-5.0235,-4.9058,-4.8157,-4.6783,-4.5427,-4.4089,-4.3415,-4.2808,-4.2289,-4.2262,-4.2236,-4.2236,-4.2236,-4.2236,-4.2236,0.0,0.0,0.0,0.0,0.0,0.0,0.0,0.0,0.0,0.0,0.0,0.0,0.0,0.0,0.0,0.0,0.0,0.0,0.0,0.0,0.0,0.0,0.0,0.0,0.0,0.0,0.0,0.0,0.0,-2.749,-2.8473,-3.0884,-3.1484,-3.0581,-3.1775,-3.0196,-2.6725,-2.6792,-2.621,-2.5156,0.0,-2.5218,-2.5972,0.0,0.0,0.0,0.0,0.0,0.0,-2.4809,-2.5462,-2.689,-2.8354,-2.9557,-3.0688,-3.1976,-3.34,-3.4818,-3.614,-3.6845,-3.7536,-3.8877,-3.9479,-3.9841,-4.0194,-4.1134,-4.1788,-4.1457,-4.0302,-3.9328,-3.9169,-4.0949,-4.3246,-4.5684,-4.9613,-5.3685,-5.7416,-5.8756,-5.9736,-6.0809,-6.1428,-6.1524,-6.0858,-6.1601,-6.1735,0.0,-6.1012,-6.0976,-6.0654,-5.9666,-5.8568,-5.7309,-5.6008,-5.48,-5.3662,-5.3339,-5.2601,-5.1408,-5.1206,-5.0453,-4.9242,-4.882,-4.8196,-4.7369,-4.6565,-4.5657,-4.4638,-4.3028,-4.2306,-4.211,-4.1665,-4.1474,-4.1474,-4.1474,-4.1474,-4.1407,0.0,0.0,0.0,0.0,0.0,0.0,0.0,0.0,0.0,0.0,0.0,0.0,0.0,0.0,0.0,0.0,0.0,0.0,0.0,0.0,0.0,0.0,0.0,0.0,0.0,0.0,0.0,0.0,0.0,0.0,0.0,-3.0267,-3.071,-2.9545,-3.0505,-2.8956,-2.5556,0.0,0.0,0.0,0.0,0.0,0.0,0.0,0.0,0.0,0.0,0.0,0.0,-2.8892,-2.9166,-2.9688,-3.1173,-3.2517,-3.3785,-3.4797,-3.5945,-3.6963,-3.7391,-3.7839,-3.8284,-3.8642,-3.8799,-3.8824,-3.8692,-3.9101,-3.9431,-3.9193,-3.8186,-3.7377,-3.7537,-3.9642,-4.2104,-4.4388,-4.873,-5.3169,-5.7067,-5.8674,-6.0005,-6.148,-6.202,-6.2056,-6.1502,-6.1906,-6.1794,-6.087,-6.08,-6.0627,-6.0242,-5.9178,-5.8112,-5.7118,-5.6128,-5.4859,-5.3292,-5.3217,-5.2399,-5.0802,-5.0802,-5.0123,-4.8838,-4.8122,-4.7314,-4.6544,0.0,-4.495,-4.3915,-4.2807,-4.2058,-4.1549,-4.1204,-4.0916,-4.0713,-4.0713,-4.0713,-4.0646,0.0,0.0,0.0,0.0,0.0,0.0,0.0,0.0,0.0,0.0,0.0,0.0,0.0,0.0,0.0,0.0,0.0,0.0,0.0,0.0,0.0,0.0,0.0,0.0,0.0,0.0,0.0,0.0,0.0,0.0,0.0,0.0,0.0,0.0,0.0,0.0,0.0,0.0,0.0,0.0,0.0,0.0,0.0,0.0,0.0,0.0,0.0,0.0,0.0,0.0,-3.3402,-3.2703,-3.363,-3.517,-3.6791,-3.7469,-3.8145,-3.8677,-3.8679,-3.8942,-3.9022,-3.8225,-3.8019,-3.7773,-3.6771,-3.6455,-3.634,-3.6306,-3.5929,-3.5858,-3.6678,-3.8813,-4.1194,-4.3405,-4.7171,-5.144,-5.6104,-5.7498,-5.9158,-6.2185,-6.2521,-6.2413,-6.2186,-6.2138,-6.1718,-6.0745,-6.0535,-6.0185,-5.9531,-5.8627,-5.7546,-5.6259,-5.6227,-5.511,-5.2789,-5.3002,-5.2332,-5.0802,-5.0692,-5.0196,-4.9372,-4.781,-4.6654,-4.5865,-4.5057,-4.3981,-4.2807,-4.2731,-4.2038,-4.1018,-4.0926,-4.0577,-4.0096,-4.0096,-4.0096,-4.0096,0.0,0.0,0.0,0.0,0.0,0.0,0.0,0.0,0.0,0.0,-1.9048,0.0,0.0,0.0,0.0,0.0,0.0,0.0,0.0,0.0,0.0,0.0,0.0,0.0,0.0,0.0,0.0,0.0,0.0,0.0,0.0,0.0,0.0,0.0,0.0,0.0,0.0,0.0,0.0,0.0,0.0,0.0,0.0,0.0,0.0,0.0,0.0,0.0,0.0,0.0,-3.5471,-3.5651,-3.7121,-3.8241,-3.9105,-3.9517,-3.9626,-3.9734,-4.0046,-4.0,-3.9649,-3.8773,-3.8589,-3.8239,-3.671,-3.6546,-3.6535,-3.5867,-3.5703,-3.5725,-3.5895,-3.7463,-4.0259,-4.495,-4.8116,-5.2247,-5.8762,-6.0332,-6.1283,-6.2597,-6.2606,-6.2224,-6.1538,-6.1318,-6.0882,0.0,-5.9211,-5.8954,-5.9473,-5.805,-5.6637,-5.5368,-5.533,-5.4773,-5.3591,-5.2995,-5.2065,-5.0802,-5.0123,-4.9352,-4.8489,-4.7535,-4.6654,-4.5865,-4.5057,0.0,-4.3339,-4.2883,-4.2282,-4.1599,-4.1087,-4.0577,-4.0096,-4.0096,-4.0096,-4.0096,0.0,0.0,0.0,0.0,0.0,0.0,0.0,0.0,0.0,0.0,-1.9761,-2.0343,0.0,0.0,0.0,0.0,0.0,0.0,0.0,0.0,0.0,0.0,0.0,0.0,0.0,0.0,0.0,0.0,0.0,0.0,0.0,0.0,0.0,0.0,0.0,0.0,0.0,0.0,0.0,0.0,0.0,0.0,0.0,0.0,0.0,0.0,0.0,0.0,0.0,0.0,-3.6879,-3.7613,-3.9383,-4.0679,-4.1461,-4.1169,-4.1366,-4.1526,-4.083,-4.0881,-4.0776,-3.9476,-3.8639,-3.767,-3.6023,-3.5563,-3.5272,-3.4516,-3.4779,-3.5424,-3.6352,-3.7954,-4.0558,-4.4874,-4.7746,-5.1538,-5.7578,-5.9116,-6.0433,-6.2643,-6.2425,-6.2073,-6.2082,-6.1573,-6.0845,-5.9861,-5.8924,-5.8344,-5.8215,-5.7022,-5.6052,-5.5442,-5.5212,-5.4382,-5.2874,-5.269,-5.1566,-4.9499,-4.9574,-4.8912,-4.7645,-4.6837,-4.6049,-4.5241,-4.4415,-4.3864,-4.3479,-4.3214,-4.2599,-4.1771,-4.149,-4.0844,-4.0096,-4.0096,-4.0096,-4.0096,0.0,0.0,0.0,0.0,0.0,0.0,0.0,-1.8839,-1.9574,-2.0233,-2.0981,-2.1688,-2.2385,-2.2086,-2.2217,0.0,0.0,0.0,0.0,0.0,0.0,0.0,0.0,0.0,0.0,0.0,0.0,-2.6763,-2.8035,0.0,0.0,0.0,0.0,0.0,-2.6974,0.0,0.0,0.0,0.0,0.0,0.0,0.0,0.0,0.0,0.0,0.0,0.0,0.0,0.0,0.0,-3.7698,-3.8391,-4.0129,-4.1659,-4.2676,-4.2059,-4.2498,-4.2939,-4.1851,-4.1787,-4.1673,-4.0168,-3.8689,-3.7122,-3.5253,-3.4571,-3.413,-3.3369,-3.3955,-3.5166,-3.6972,-3.8418,-4.0586,-4.4375,-4.6719,-5.0137,-5.6055,-5.7305,-5.8965,-6.2578,-6.2226,-6.1853,-6.2254,-6.1649,-6.0703,-5.9437,-5.8331,-5.7406,-5.6763,-5.6069,-5.5703,-5.5703,-5.5399,-5.44,-5.2683,-5.2531,-5.1283,-4.8974,-4.9208,-4.8545,-4.7076,-4.6269,-4.5461,-4.4672,-4.3846,-4.3515,0.0,-4.3515,-4.2903,-4.1979,-4.1853,-4.1173,-4.0254,-4.0146,-4.0096,-4.0096,0.0,0.0,0.0,0.0,0.0,0.0,0.0,-1.9282,-2.0433,-2.1578,-2.2555,-2.3355,-2.3856,-2.3327,-2.3457,0.0,0.0,0.0,0.0,0.0,0.0,0.0,0.0,0.0,0.0,0.0,0.0,-2.7933,-2.8814,0.0,0.0,0.0,0.0,0.0,0.0,-2.5925,-2.5222,0.0,0.0,0.0,0.0,0.0,0.0,0.0,0.0,0.0,0.0,0.0,-3.5468,-3.7496,-3.7719,-3.7307,-3.8268,-3.9797,-4.1234,-4.1406,-4.2074,-4.2925,-4.3766,-4.2921,-4.1596,-4.0644,-3.9181,-3.7305,-3.4845,-3.4376,-3.4231,-3.3381,-3.3997,-3.5234,-3.6973,-3.7422,-3.918,-4.4199,-4.5195,-4.8262,-5.6601,-5.7168,-5.8281,-6.25,-6.2226,-6.1426,-6.0683,-6.0444,-5.9641,-5.8029,-5.6128,-5.5271,-5.5801,-5.5742,-5.5703,-5.5703,-5.5662,-5.5389,-5.4819,-5.2981,-5.1737,-5.1096,-4.927,-4.7976,-4.7076,-4.6269,-4.5461,-4.4672,-4.3846,-4.3515,0.0,-4.3515,-4.3142,-4.2559,-4.2,-4.1402,-4.0756,-4.0286,-4.0096,-4.0096,0.0,0.0,0.0,0.0,0.0,0.0,0.0,-1.9794,-2.1016,-2.2211,-2.333,-2.4206,-2.4726,-2.4804,-2.4912,0.0,0.0,0.0,0.0,0.0,0.0,0.0,0.0,0.0,0.0,0.0,-2.7083,-2.8031,-2.836,0.0,0.0,0.0,0.0,0.0,0.0,-2.5635,-2.5258,0.0,0.0,0.0,0.0,0.0,0.0,0.0,0.0,0.0,0.0,0.0,-3.4861,-3.6273,-3.6213,-3.5512,-3.5305,-3.6118,-3.7458,-3.9067,-4.0878,-4.2431,-4.2856,-4.2862,-4.2557,-4.169,-3.9411,-3.6997,-3.5442,-3.4814,-3.4308,-3.3442,-3.4442,-3.6016,-3.7754,-3.8516,-4.0039,-4.3633,0.0,-4.6933,-5.248,-5.2969,-5.4531,-5.9355,-5.916,-5.9101,-6.0273,-5.9918,-5.8818,-5.6933,-5.5495,-5.4555,-5.4213,-5.4203,-5.4203,-5.4203,-5.4203,-5.3747,-5.2813,-5.1998,-5.0996,-4.9882,-4.8577,-4.7405,-4.6361,-4.5553,-4.4745,-4.3956,-4.3626,-4.3515,0.0,-4.3515,-4.3178,-4.2635,-4.2038,-4.1424,-4.085,-4.0311,-4.0096,-4.0096,0.0,0.0,0.0,0.0,0.0,0.0,-1.9217,-2.0545,-2.1829,-2.3047,-2.4189,-2.5054,-2.5515,-2.6072,-2.6299,-2.609,0.0,0.0,0.0,0.0,0.0,0.0,0.0,0.0,0.0,0.0,-2.7788,-2.8709,-2.898,-2.9456,0.0,0.0,-2.9174,-2.9357,0.0,0.0,0.0,0.0,0.0,0.0,0.0,0.0,0.0,0.0,0.0,0.0,0.0,0.0,0.0,0.0,0.0,-3.4478,0.0,0.0,0.0,0.0,-3.9529,-4.1844,-4.235,-4.2922,-4.3253,-4.2634,-3.9727,-3.6844,-3.6213,-3.5315,-3.4497,-3.4134,-3.5307,-3.6914,-3.8652,-3.9707,-4.1035,0.0,0.0,-4.6211,-4.9707,-5.0195,-5.1836,-5.6211,-5.6191,-5.664,-5.8691,-5.8379,-5.7333,-5.563,-5.4548,-5.3569,-5.2578,-5.2242,-5.2414,-5.3183,-5.3203,-5.2762,-5.187,-5.1259,-5.0337,-4.9092,-4.7881,-4.6691,-4.5535,-4.4966,-4.4268,-4.3515,-4.3515,-4.3515,0.0,-4.3515,-4.3268,-4.2883,-4.2284,-4.1703,-4.111,-4.0546,-4.0254,-4.0096,0.0,0.0,0.0,0.0,0.0,0.0,0.0,-2.1507,-2.3016,-2.422,-2.5316,-2.6106,-2.6438,-2.6966,-2.7587,-2.8306,0.0,0.0,0.0,0.0,0.0,0.0,0.0,0.0,0.0,0.0,0.0,-3.0385,-3.1237,-3.1961,-3.2542,-3.193,-3.1417,-3.0881,0.0,0.0,0.0,0.0,0.0,0.0,0.0,0.0,0.0,0.0,0.0,0.0,0.0,0.0,0.0,0.0,0.0,0.0,0.0,0.0,0.0,0.0,-3.8196,-4.1271,-4.2934,-4.34,-4.3408,-4.3389,-4.0175,-3.7003,-3.6998,-3.5746,-3.4848,-3.5698,-3.6636,-3.7812,-3.957,-4.0605,-4.1738,-4.3437,-4.4433,0.0,-4.9707,-5.0195,-5.1152,-5.373,-5.4023,-5.4375,-5.5273,-5.5351,-5.4917,-5.3891,-5.2894,0.0,-5.0974,-4.9974,-5.0606,-5.3126,-5.3203,-5.3203,-5.3173,-5.1136,-4.9943,-4.9561,-4.7426,-4.5823,-4.4727,-4.4691,-4.4268,-4.3515,-4.3515,-4.3515,0.0,-4.3515,-4.3497,-4.3427,-4.2902,-4.2322,-4.1707,-4.111,-4.0552,-4.0096,0.0,0.0,0.0,0.0,0.0,0.0,0.0,-2.1962,-2.3112,-2.4721,-2.5772,-2.6387,-2.6488,-2.7714,-2.8614,-2.8859,0.0,0.0,0.0,0.0,0.0,0.0,0.0,0.0,0.0,0.0,-2.9327,-3.0404,-3.0673,-3.1206,-3.1968,-3.1174,-3.1047,-3.1381,-2.9344,-2.8526,0.0,0.0,0.0,0.0,0.0,0.0,0.0,0.0,0.0,0.0,0.0,0.0,0.0,0.0,0.0,0.0,0.0,0.0,0.0,0.0,0.0,-3.8617,-4.0339,-4.0838,-4.0879,-4.0879,-3.8589,-3.6313,-3.6315,-3.591,-3.5641,-3.5915,-3.7148,-3.8535,-3.9687,-4.1055,-4.2383,-4.3516,-4.4922,0.0,-4.7383,-4.8555,-5.0254,-5.2812,-5.5215,-5.6308,-5.539,-5.5293,-5.439,-5.2182,-5.1694,-5.0795,-4.9204,-4.8731,-4.8875,-4.9702,-4.9721,-4.9721,-4.9721,-4.9057,-4.8542,-4.815,-4.6693,-4.5668,-4.5022,-4.4223,-4.3736,-4.3515,-4.3515,-4.3515,0.0,-4.3515,-4.3515,-4.3444,-4.292,-4.2322,-4.1746,-4.1133,-4.0552,-4.0028,0.0,0.0,0.0,0.0,0.0,0.0,0.0,-2.2098,-2.3339,-2.5047,-2.5916,-2.6725,-2.7589,-2.8629,-2.9468,-2.993,0.0,0.0,0.0,0.0,0.0,0.0,0.0,0.0,0.0,-2.9148,-2.9799,-3.0885,-3.0885,-3.1327,-3.2141,-3.1288,-3.1346,-3.2077,-3.0222,-2.9589,0.0,0.0,0.0,0.0,0.0,0.0,-3.2551,0.0,0.0,0.0,0.0,0.0,0.0,0.0,0.0,0.0,0.0,0.0,0.0,0.0,-3.5379,-3.683,-3.8629,-3.9385,-3.9672,-3.9691,-3.8051,-3.6559,-3.6894,-3.6738,-3.668,-3.7344,-3.8594,-3.9844,-4.0684,-4.2226,-4.3555,-4.4101,-4.5371,-4.6406,-4.6738,-4.8008,-4.9726,-5.1953,-5.4707,-5.5742,-5.4004,-5.4414,-5.3709,-5.1019,-5.0731,-4.9872,-4.799,-4.7762,-4.7521,-4.7163,-4.7778,-4.8105,-4.8105,-4.7798,-4.7452,-4.7018,-4.5881,-4.5139,-4.4712,-4.3867,-4.3515,-4.3515,-4.3515,0.0,0.0,-4.3515,-4.3515,-4.348,-4.3124,-4.2341,-4.1347,-4.0964,-4.0146,-3.9191,0.0,0.0,0.0,0.0,0.0,0.0,0.0,0.0,0.0,0.0,-2.593,-2.7101,-2.9341,-2.9696,-3.0228,0.0,0.0,0.0,0.0,0.0,0.0,0.0,0.0,0.0,0.0,-2.9893,-3.0519,-3.1584,-3.1596,-3.2025,-3.2795,-3.1987,-3.2064,-3.2833,-3.1212,0.0,0.0,0.0,0.0,0.0,0.0,0.0,0.0,0.0,0.0,0.0,0.0,0.0,0.0,0.0,0.0,0.0,0.0,0.0,0.0,0.0,0.0,0.0,0.0,-3.8863,-3.9513,-3.9575,-3.8438,-3.7515,-3.8397,-3.8008,0.0,-3.957,-4.0586,-4.1445,-4.2246,-4.3769,-4.4922,-4.498,-4.5723,-4.6601,-4.748,-4.8457,-4.9687,-5.1308,-5.2988,-5.332,-5.1562,-5.2851,-5.2773,-5.0293,-4.9923,-4.9028,-4.7209,-4.6995,-4.6525,-4.564,-4.7114,-4.7913,-4.7913,-4.7182,-4.6628,-4.6247,-4.5154,-4.4433,-4.4028,-4.3677,-4.3513,0.0,-4.3441,0.0,0.0,-4.3349,-4.3331,-4.3331,-4.3331,-4.2231,-4.0677,-4.0677,-3.9517,-3.7936,0.0,0.0,0.0,0.0,0.0,0.0,0.0,0.0,0.0,0.0,-2.6394,-2.7414,-2.9386,-3.0613,0.0,0.0,0.0,0.0,0.0,0.0,0.0,0.0,0.0,0.0,0.0,-2.9813,-3.0123,-3.0402,-3.0612,-3.1135,-3.1968,-3.1115,-3.1481,-3.2852,-3.1833,0.0,0.0,0.0,0.0,0.0,0.0,0.0,0.0,0.0,0.0,0.0,-3.4642,-3.503,0.0,0.0,0.0,0.0,0.0,0.0,0.0,0.0,-3.6383,-3.6656,-3.7771,0.0,-3.8462,-3.8467,-3.8299,-3.8186,0.0,-3.8881,-3.9414,-3.9824,-4.0586,-4.1445,-4.2246,-4.3281,-4.4219,-4.4883,-4.5723,-4.6601,-4.748,-4.9453,-5.1211,-5.2266,-5.334,-5.332,-5.1562,-5.1777,-5.123,-4.9355,-4.846,-4.7528,-4.6421,-4.6182,-4.597,-4.5754,-4.6045,-4.6191,-4.6191,-4.599,-4.5848,-4.5754,-4.5235,-4.4793,-4.4447,-4.4061,-4.3742,-4.3478,-4.2837,0.0,-4.2525,-4.1919,-4.1645,-4.1645,-4.1645,-4.1104,-4.0324,-4.0324,-3.9514,-3.8355,0.0,0.0,0.0,0.0,0.0,0.0,0.0,0.0,0.0,0.0,0.0,0.0,0.0,0.0,0.0,0.0,0.0,0.0,0.0,0.0,0.0,0.0,0.0,0.0,-3.0883,-3.1075,-3.1248,-3.1325,-3.1482,-3.1602,-3.1698,-3.1602,-3.2025,-3.2891,-3.2852,0.0,0.0,0.0,0.0,0.0,-3.3693,0.0,0.0,0.0,0.0,0.0,-3.5237,-3.5558,0.0,-3.5995,-3.5996,-3.5996,0.0,0.0,0.0,0.0,-3.7411,-3.8007,-3.8469,-3.8618,-3.8666,-3.8694,-3.9078,-3.948,-3.9572,-4.0016,-4.0424,-4.0488,-4.1172,-4.2012,-4.2832,-4.3711,-4.457,-4.5449,-4.6328,-4.7344,-4.8613,-4.998,-5.1308,-5.2558,-5.3125,-5.2871,0.0,-5.1406,-5.0547,-4.8457,-4.7808,-4.7071,-4.615,-4.5596,-4.5262,-4.5202,-4.4727,-4.4825,-4.5594,-4.5594,-4.5594,-4.5605,-4.5253,-4.4798,-4.4213,-4.3681,-4.315,-4.2601,0.0,0.0,-4.1735,-4.1279,-4.1095,-4.1058,-4.0689,-3.997,-3.9121,-3.8904,-3.7835,-3.6506,0.0,0.0,0.0,0.0,0.0,0.0,0.0,0.0,0.0,0.0,0.0,0.0,0.0,0.0,0.0,0.0,0.0,0.0,0.0,0.0,0.0,0.0,0.0,-3.2381,-3.2545,-3.2607,-3.2716,-3.2852,-3.2878,-3.2545,-3.191,-3.2583,-3.2968,-3.3141,-3.4161,-3.4616,0.0,0.0,-3.4174,-3.486,-3.4188,0.0,0.0,0.0,0.0,0.0,0.0,0.0,0.0,-3.5996,-3.6094,-3.6191,-3.6191,0.0,0.0,0.0,0.0,0.0,-3.9446,-3.9688,-3.9853,-3.9799,-4.0435,-4.1089,-4.114,0.0,0.0,0.0,0.0,-4.2499,-4.3515,-4.4297,-4.5137,-4.6133,-4.7148,-4.8398,-5.0137,-5.0371,-5.082,-5.1973,-5.2246,0.0,-5.0918,-5.082,-4.9922,-4.7754,-4.748,-4.697,-4.5986,-4.5163,-4.4593,-4.4335,-4.353,-4.3792,-4.521,-4.5229,-4.5229,-4.5201,-4.4929,-4.4385,-4.3577,-4.2966,-4.2286,-4.157,0.0,0.0,-4.0912,-4.0783,-4.0655,-4.0471,-3.979,-3.8759,-3.7601,-3.722,-3.5839,-3.4214,0.0,0.0,0.0,0.0,0.0,0.0,0.0,0.0,0.0,0.0,0.0,0.0,0.0,0.0,0.0,0.0,0.0,0.0,0.0,0.0,0.0,0.0,-3.3932,-3.2634,-3.2266,-3.2649,-3.2799,-3.2657,-3.2826,-3.2833,-3.2718,-3.2833,-3.3295,-3.4077,-3.5734,-3.6491,-3.6535,-3.7197,-3.7557,-3.7672,-3.7603,0.0,0.0,0.0,0.0,0.0,0.0,0.0,0.0,-3.5996,-3.6484,-3.7109,-3.7109,0.0,0.0,0.0,0.0,0.0,-4.0157,-4.1393,-4.2343,-4.1617,-4.2135,-4.2659,-4.1989,-4.1897,0.0,0.0,0.0,-4.172,-4.3398,-4.3808,-4.4433,-4.6035,-4.7656,-4.9297,-5.0976,-5.1211,-5.0781,-4.9629,0.0,-4.9941,-4.834,-4.8183,-4.8027,-4.7637,-4.6914,-4.6113,-4.5214,-4.4914,-4.44,-4.3601,-4.3321,-4.3274,-4.347,-4.347,-4.347,-4.347,-4.3436,-4.3148,-4.2682,-4.2363,-4.1997,-4.1533,0.0,-4.0084,-4.0029,-3.935,-3.867,-3.8043,-3.7915,-3.7319,-3.653,-3.6452,-3.5699,-3.4585,0.0,0.0,0.0,0.0,0.0,0.0,0.0,0.0,0.0,0.0,0.0,0.0,0.0,0.0,0.0,0.0,0.0,0.0,0.0,0.0,0.0,0.0,-3.6276,-3.5321,-3.4655,-3.4424,-3.4255,-3.4177,-3.4255,-3.4064,-3.3609,-3.4112,-3.4801,-3.5617,-3.7027,-3.7637,-3.7632,-3.8093,-3.8315,-3.8351,0.0,0.0,0.0,0.0,0.0,0.0,0.0,0.0,0.0,0.0,-3.6582,-3.7226,-3.6758,0.0,0.0,0.0,0.0,0.0,-3.9894,-4.1104,-4.2297,-4.1904,-4.2811,-4.3731,-4.3421,-4.3011,-4.2636,0.0,0.0,0.0,-4.4159,-4.4785,-4.582,-4.8047,-4.8672,-4.9336,-5.0586,-4.9941,-4.9238,-4.8945,0.0,-4.8476,-4.7676,-4.7598,-4.7402,-4.6933,-4.6523,-4.5918,-4.5058,-4.4456,-4.3736,-4.2824,-4.2175,-4.1609,-4.1112,-4.1062,-4.1739,-4.3104,-4.3104,-4.2507,-4.1415,-4.1136,-4.0329,-3.9127,0.0,-3.8095,-3.7918,-3.7551,-3.7184,-3.6813,-3.6321,-3.5917,-3.5522,-3.4878,-3.4281,-3.3769,0.0,0.0,0.0,0.0,0.0,0.0,0.0,0.0,0.0,0.0,0.0,0.0,0.0,0.0,0.0,0.0,0.0,0.0,0.0,0.0,-3.718,-3.8257,-3.8104,-3.7584,-3.6712,-3.5904,-3.5404,-3.5192,-3.4981,-3.4545,-3.3917,-3.5074,-3.5892,-3.6492,-3.7766,-3.8415,-3.8576,-3.8858,-3.9015,-3.9062,0.0,0.0,0.0,0.0,0.0,0.0,0.0,0.0,0.0,0.0,0.0,0.0,0.0,0.0,0.0,-3.8549,-3.9172,-3.9965,-3.9218,-4.0231,-4.1508,-4.1508,-4.2777,-4.4146,-4.4641,-4.4077,-4.3582,-4.4024,0.0,-4.4106,-4.5042,-4.5776,-4.7107,-4.9724,-4.9453,-4.9277,-5.0332,-4.918,-4.8301,-4.8555,-4.8008,-4.7519,-4.7324,-4.7109,-4.6719,-4.6055,-4.5801,-4.5312,-4.4433,-4.3702,-4.2825,-4.1739,-4.0878,-4.0007,-3.9102,-3.9031,-3.9969,-4.1912,-4.1912,-4.12,-3.9892,-3.9621,-3.863,-3.7079,-3.682,-3.6549,-3.6303,-3.6303,-3.6174,-3.5936,-3.5261,-3.4876,-3.4582,-3.3445,-3.2973,-3.2855,0.0,0.0,0.0,0.0,0.0,0.0,0.0,0.0,0.0,0.0,0.0,0.0,0.0,0.0,0.0,0.0,0.0,0.0,0.0,0.0,-3.745,-3.913,-3.843,-3.7584,-3.6712,-3.5904,-3.5096,-3.4302,-3.3487,-3.3064,-3.3032,-3.4773,-3.5635,-3.5766,-3.7587,-3.8848,-3.9648,-4.06,-4.0996,-4.0996,-4.0996,0.0,0.0,0.0,0.0,0.0,0.0,0.0,0.0,0.0,0.0,0.0,0.0,0.0,-3.8631,-3.8443,-3.8425,-3.8435,-3.8241,-3.9367,-4.0593,-4.0593,-4.1893,-4.3594,-4.5169,-4.4842,-4.4495,-4.5453,0.0,-4.4721,-4.5652,-4.5991,-4.6975,-4.9595,-4.9388,-4.9473,-5.1094,0.0,-4.9433,-4.7871,-4.7637,-4.7285,-4.6465,-4.5664,-4.5156,-4.5098,-4.4336,-4.3516,-4.2637,-4.2519,-4.1694,-3.9942,-3.976,-3.9192,-3.82,-3.8137,-3.818,-3.8373,-3.8373,-3.8296,-3.8173,-3.7834,-3.748,-3.7079,-3.682,-3.6549,-3.6303,-3.6303,-3.5826,-3.5096,-3.5023,-3.4546,-3.3781,-3.2874,-3.2536,-3.2421,0.0,0.0,0.0,0.0,0.0,0.0,0.0,0.0,0.0,0.0,0.0,0.0,0.0,0.0,0.0,0.0,0.0,0.0,0.0,0.0,-3.8277,-3.9977,-3.9246,-3.8392,-3.7526,-3.6192,-3.5064,-3.4205,-3.3878,-3.4237,-3.5295,-3.6596,-3.748,-3.8019,-3.9402,-4.0198,-4.0533,-4.0993,-4.1191,-4.1191,-4.1191,-4.0996,0.0,0.0,0.0,0.0,0.0,0.0,0.0,0.0,-3.6582,-3.7207,0.0,-3.7461,-3.8476,-3.7785,-3.7924,-3.8152,-3.752,-3.8891,-4.0381,-3.9881,-4.1027,0.0,0.0,-4.5344,-4.5384,-4.6361,-4.6725,-4.6997,-4.7447,-4.7124,-4.729,-4.8817,-4.8824,-4.8861,-4.9508,-4.8861,-4.8116,-4.7539,-4.6526,-4.5753,-4.5527,-4.4707,-4.4199,-4.4199,-4.3887,-4.332,-4.2441,-4.1933,-4.1093,-3.9858,-3.9197,-3.839,-3.7439,-3.6801,-3.6209,-3.5661,-3.7238,-3.7719,-3.7192,-3.7053,-3.6574,-3.5847,-3.5566,-3.5282,-3.4975,-3.482,-3.4559,-3.4252,-3.4252,-3.4082,-3.3762,-3.3433,-3.3151,-3.2912,0.0,0.0,0.0,0.0,0.0,0.0,0.0,0.0,0.0,0.0,0.0,0.0,0.0,0.0,0.0,0.0,0.0,0.0,0.0,-3.7853,-3.8623,-4.0054,-3.9592,-3.8892,-3.8027,-3.6365,-3.5064,-3.4205,-3.4205,-3.4795,-3.593,-3.7195,-3.8243,-3.9088,-3.9836,-4.0516,-4.1058,-4.0877,-4.0957,-4.1191,-4.1191,-4.1191,0.0,0.0,0.0,0.0,0.0,0.0,0.0,0.0,-3.6621,0.0,0.0,0.0,0.0,-3.6959,-3.7329,-3.7806,-3.7113,-3.8508,-4.0077,-3.9761,0.0,0.0,-4.5017,-4.5594,-4.6022,-4.7465,-4.801,-4.8198,-4.8024,-4.7312,-4.7038,-4.7923,-4.8073,-4.8096,-4.8096,-4.7585,-4.7058,-4.6631,-4.5523,-4.4644,-4.4218,-4.3633,-4.3183,-4.293,-4.291,-4.2539,-4.166,-4.1094,-4.0254,-3.9121,-3.8382,-3.7437,-3.6223,-3.5527,-3.4729,-3.3821,-3.5565,-3.6084,-3.5507,-3.5507,-3.5054,-3.4287,-3.4376,-3.4198,-3.3829,-3.3888,-3.3729,-3.3458,-3.3697,-3.3642,-3.3408,-3.3268,-3.3219,-3.3142,0.0,0.0,0.0,0.0,0.0,0.0,0.0,0.0,0.0,0.0,0.0,0.0,0.0,0.0,0.0,0.0,0.0,0.0,0.0,-3.7507,-3.8373,-3.9265,-3.9284,-3.8892,-3.8027,-3.6385,-3.5084,-3.4205,-3.4205,-3.4205,-3.4263,-3.6068,-3.7414,-3.8296,-3.8376,-3.9437,-4.1113,-4.0254,-4.0391,-4.1191,-4.1191,-4.1191,-4.1191,0.0,0.0,0.0,0.0,0.0,0.0,0.0,-3.6738,-3.6016,0.0,0.0,0.0,-3.5996,-3.6574,-3.716,-3.7021,-3.8166,-3.9576,-4.0318,-4.1162,-4.2489,-4.5017,-4.5594,-4.6326,-4.8856,-4.8682,-4.7836,-4.7038,-4.6298,-4.6074,-4.6959,-4.7148,-4.7172,-4.7172,-4.7172,-4.6583,-4.4985,-4.4777,-4.4135,-4.2539,-4.2383,-4.2031,-4.123,-4.1172,-4.0801,-3.9922,-3.9883,-3.9082,-3.7344,-3.7213,-3.6311,-3.451,-3.4344,-3.3807,-3.2891,-3.2872,-3.2872,-3.2891,-3.2891,-3.2753,-3.2553,-3.3399,-3.3488,-3.3073,-3.3871,-3.3562,-3.2674,-3.3476,-3.3293,-3.2543,-3.214,-3.2498,-3.2931,0.0,0.0,0.0,0.0,0.0,0.0,0.0,0.0,0.0,0.0,0.0,0.0,0.0,0.0,0.0,0.0,0.0,0.0,0.0,-3.7276,-3.7757,-3.9246,-3.87,-3.8546,-3.8911,-3.7834,-3.6257,-3.4205,-3.4205,-3.4795,-3.5988,-3.7234,-3.8001,-3.8325,-3.9019,-3.934,-3.9394,-3.9746,-4.0059,-4.0332,-4.0957,-4.1191,-4.1191,0.0,0.0,0.0,0.0,0.0,0.0,0.0,0.0,0.0,0.0,0.0,0.0,-3.6367,-3.6574,-3.7053,-3.6408,-3.7845,-3.9568,-3.9707,-4.1274,-4.312,-4.4388,-4.5171,0.0,0.0,-4.7336,-4.6451,-4.6836,-4.6224,-4.5734,-4.6012,-4.6059,-4.6058,-4.6058,-4.5537,-4.5027,-4.4621,-4.3549,-4.2459,-4.1516,-4.086,-4.0185,-3.9433,-3.9375,-3.9258,-3.9004,-3.8398,-3.7559,-3.6426,-3.576,-3.487,-3.3672,-3.2966,-3.2442,-3.212,-3.1457,-3.1756,-3.2891,-3.2891,-3.2859,-3.2779,-3.2871,-3.3145,-3.3544,-3.3417,-3.271,-3.177,-3.2008,-3.1971,-3.1739,-3.1618,-3.1968,-3.2356,0.0,0.0,0.0,0.0,0.0,0.0,0.0,0.0,0.0,0.0,0.0,0.0,0.0,0.0,0.0,0.0,0.0,0.0,0.0,0.0,-3.77,-3.8738,-3.8277,-3.8257,-3.8757,-3.8277,-3.7257,-3.5699,-3.5699,-3.624,-3.7263,-3.7876,-3.8209,-3.8344,-3.8578,-3.8635,-3.8633,-3.916,-3.957,-3.998,-4.0859,-4.1191,-4.1191,0.0,0.0,0.0,0.0,0.0,0.0,0.0,0.0,0.0,-3.7336,0.0,0.0,-3.6816,-3.6853,-3.7251,-3.737,-3.8741,-4.0275,-4.0776,-4.2318,-4.3904,-4.4655,-4.549,-4.649,-4.7836,-4.7048,-4.6278,-4.6797,-4.6182,-4.5594,-4.5594,-4.5306,-4.5075,-4.5075,-4.4355,-4.3628,-4.3066,-4.2092,-4.0961,-3.962,-3.9298,-3.8887,-3.8144,-3.8398,-3.8301,-3.7598,-3.707,-3.623,-3.5019,-3.4453,-3.3727,-3.2799,-3.2204,-3.1695,-3.1273,-3.067,-3.0923,-3.191,-3.191,-3.191,-3.1917,-3.1988,-3.2466,-3.3133,-3.2689,-3.1895,-3.0962,-3.1286,-3.1213,-3.0938,-3.1042,-3.1562,-3.2036,0.0,0.0,0.0,0.0,0.0,0.0,0.0,0.0,0.0,0.0,0.0,0.0,0.0,0.0,0.0,0.0,0.0,0.0,0.0,0.0,-3.795,-3.8104,-3.818,-3.8238,-3.8238,-3.8238,-3.8238,-3.8238,-3.8007,-3.7925,-3.7981,-3.7998,-3.8054,-3.8142,-3.7345,-3.7505,-3.8359,-3.8359,-3.8867,-3.9746,-4.0605,-4.1016,-4.1074,-4.1074,0.0,0.0,0.0,0.0,0.0,0.0,0.0,0.0,-3.7587,-3.7336,-3.7329,-3.7282,-3.7285,-3.7616,-3.9079,-4.0182,-4.1267,-4.2756,-4.3878,-4.4769,-4.5357,-4.6086,-4.6874,-4.7605,-4.7182,-4.6635,-4.6558,-4.5913,-4.5364,-4.5364,-4.4701,-4.4162,-4.4085,-4.3374,-4.2291,-4.0758,-4.0505,-3.9583,-3.7381,-3.7823,-3.7962,-3.7226,-3.791,-3.7675,-3.6074,-3.5918,-3.5117,-3.3457,-3.332,-3.2849,-3.1912,-3.1824,-3.1362,-3.0509,-3.0446,-3.0408,-3.0408,-3.039,-3.0404,-3.043,-3.1066,-3.1599,-3.1996,-3.1796,-3.1095,-3.0209,-3.0901,-3.0723,-3.0118,-3.0362,-3.1078,-3.1617,0.0,0.0,0.0,0.0,0.0,0.0,0.0,0.0,0.0,0.0,0.0,0.0,0.0,0.0,0.0,0.0,0.0,0.0,0.0,0.0,-3.7584,-3.895,-3.9631,-3.9958,-3.9958,-3.9958,-3.9958,-3.9958,-3.7969,-3.7038,-3.7154,-3.7208,-3.694,-3.643,-3.6301,-3.6366,-3.6562,-3.6562,-3.7051,-3.7949,-3.8809,-3.957,-4.0176,-4.0176,-4.0059,0.0,0.0,0.0,0.0,0.0,0.0,0.0,-3.915,-3.9096,-3.8887,-3.7549,-3.7219,-3.7383,-3.7713,-3.8943,-4.0519,-4.21,-4.402,-4.5369,-4.4721,-4.472,-4.4913,-4.5086,-4.497,-4.4662,-4.4028,-4.3758,-4.3643,-4.3643,-4.347,-4.3124,-4.2431,-4.1604,-4.0704,-3.9721,-3.8996,-3.8151,-3.707,-3.7128,-3.6934,-3.6243,-3.6364,-3.6337,-3.6016,-3.5351,-3.4492,-3.3437,-3.2793,-3.2031,-3.1151,-3.1014,-3.0852,0.0,-3.0541,-3.0477,-3.0477,-3.0422,-3.0404,-3.0462,-3.1271,-3.1171,-3.0513,-3.0986,-3.0553,-2.9567,-2.952,-2.9409,-2.9262,-2.9317,-2.9495,-2.9619,0.0,0.0,0.0,0.0,0.0,0.0,0.0,0.0,0.0,0.0,0.0,0.0,0.0,0.0,0.0,0.0,0.0,0.0,0.0,0.0,0.0,0.0,-4.0681,-4.1123,-4.1123,-4.1123,-4.0912,-4.0496,-3.8777,-3.8002,-3.8098,-3.8201,-3.7828,-3.7072,-3.6754,-3.6621,-3.6621,-3.6621,-3.7129,-3.8008,-3.8867,-3.9746,-4.0527,-4.0527,-4.0254,-3.9961,-4.041,0.0,0.0,0.0,0.0,0.0,0.0,0.0,-3.8862,-3.7975,-3.7234,-3.6855,-3.7695,-3.8887,-4.0369,-4.2334,-4.402,-4.4924,-4.3943,-4.372,-4.3605,-4.3181,-4.3431,-4.3605,-4.3181,-4.3104,-4.3104,-4.3104,-4.2393,-4.17,-4.1239,-4.0104,-3.8988,-3.8142,-3.7642,-3.7095,-3.635,-3.6283,-3.6153,-3.5836,-3.5869,-3.5736,-3.5342,-3.453,-3.3691,-3.2851,-3.2012,-3.1367,-3.0898,-3.0769,-3.0695,-3.0695,-3.0561,-3.0259,-2.983,-2.9795,-2.9775,-2.9775,-2.9852,-2.9468,-2.8822,-2.9069,-2.9026,-2.8748,-2.8371,-2.8553,-2.9005,-2.9005,-2.8989,-2.8997,0.0,0.0,0.0,0.0,0.0,0.0,0.0,0.0,0.0,0.0,0.0,0.0,0.0,0.0,0.0,0.0,0.0,0.0,0.0,0.0,0.0,0.0,-4.1566,0.0,0.0,-4.1788,-4.1373,-4.0496,-3.9688,-3.9485,-3.9805,-3.9495,-3.8997,-3.8378,-3.761,-3.7363,-3.7519,-3.7363,-3.7793,-3.8652,-3.9394,-4.0195,-4.0976,-4.0976,-4.0625,-4.0117,-4.0117,-4.0031,-3.9911,-3.9834,0.0,0.0,0.0,0.0,-3.8307,-3.8363,-3.7249,-3.6348,-3.7949,-3.9238,-4.066,-4.287,-4.3875,-4.406,-4.3112,-4.2898,-4.2624,-4.1758,-4.2277,-4.2835,-4.2681,-4.2643,-4.2643,-4.2643,-4.1324,-4.0246,-4.0092,-3.8738,-3.7469,-3.6596,-3.6481,-3.6254,-3.5635,-3.5574,-3.5611,-3.5671,-3.565,-3.5316,-3.4649,-3.3683,-3.2851,-3.2226,-3.1348,-3.0898,-3.0898,-3.0793,-3.0723,-3.0722,-3.0448,-2.9891,-2.9107,-2.881,-2.8742,-2.8857,-2.8184,-2.7779,-2.7548,-2.7335,-2.7585,-2.8072,-2.7635,-2.8107,-2.8996,-2.8996,-2.8996,-2.8911,0.0,0.0,0.0,0.0,0.0,0.0,0.0,0.0,0.0,0.0,0.0,0.0,0.0,0.0,0.0,0.0,0.0,0.0,0.0,0.0,0.0,0.0,-4.247,-4.2566,-4.1808,-4.1788,-4.1373,-4.0496,-3.9688,-4.0042,-4.1424,-3.9289,-3.835,-3.8356,-3.7503,-3.7604,-3.8379,-3.7617,-3.7793,-3.8613,-3.873,-3.9297,-4.0078,-4.0078,-4.0469,-4.1035,-4.1035,-4.095,-4.081,-4.0675,-4.066,0.0,0.0,0.0,-3.8292,-3.8307,-3.7205,-3.6211,-3.7207,-3.9219,-4.1444,-4.3142,-4.3559,-4.3297,-4.2369,-4.2054,-4.1739,-4.0854,-4.1373,-4.1739,-4.0997,-4.0843,-4.0843,-4.0843,-4.0073,-3.9207,-3.843,-3.7488,-3.6577,-3.575,-3.5654,-3.5622,-3.5515,-3.5515,-3.5534,-3.5606,-3.4938,-3.4544,-3.4607,-3.306,-3.2198,-3.2207,-3.1348,-3.0898,-3.0898,-3.0879,-3.0878,-3.0859,-2.9979,-2.9421,-2.9141,-2.7619,-2.7351,-2.8049,-2.7953,-2.7879,-2.7832,-2.758,-2.7748,-2.8169,-2.7867,-2.8262,-2.901,-2.901,-2.901,-2.8598,0.0,0.0,0.0,0.0,0.0,0.0,0.0,0.0,0.0,0.0,0.0,0.0,0.0,0.0,0.0,0.0,0.0,0.0,0.0,0.0,0.0,-4.1769,-4.2181,-4.22,-4.1808,-4.1788,-4.1373,-4.0496,-3.9688,-3.9919,-4.1027,-3.9492,-3.9633,-4.1149,-3.986,-3.9571,-3.9961,-3.8613,-3.8535,-3.9336,-3.9336,-3.9844,-4.0625,-4.0625,-4.0879,-4.1133,-4.0644,-4.0696,-4.091,-4.0324,-4.0383,-4.0674,-4.0537,0.0,0.0,0.0,-3.7174,-3.6144,-3.705,-3.8496,-4.0018,-4.1122,-4.1685,-4.1823,-4.1371,-4.1168,-4.095,-4.0573,-4.0804,-4.095,-4.0573,-4.0496,-4.0342,-3.99,-3.913,-3.8277,-3.7392,-3.6538,-3.5904,-3.5538,-3.55,-3.55,-3.55,-3.55,-3.5303,-3.4845,-3.4505,-3.4158,-3.3821,-3.2652,-3.2057,-3.2207,-3.1348,-3.0898,-3.0898,-3.0898,-3.0644,-3.0108,-2.9624,-2.8838,-2.776,-2.6969,-2.6813,-2.714,-2.6659,-2.6447,-2.6432,-2.6185,-2.6573,-2.7198,-2.6175,-2.7102,-2.8778,-2.6972,-2.6313,-2.6109,0.0,0.0,0.0,0.0,0.0,0.0,0.0,0.0,0.0,0.0,0.0,0.0,0.0,0.0,0.0,0.0,0.0,0.0,0.0,0.0,0.0,-4.1769,-4.2,-4.2019,-4.1788,-4.1788,-4.1277,-4.0208,-3.9381,-3.9496,-4.0477,-3.9688,-4.0759,-4.3291,-4.1906,-4.1119,-4.076,-3.9922,-3.9824,-4.0234,-4.0234,-4.0625,-4.1191,-4.1191,-4.1191,-4.1113,-4.0469,-4.0558,-4.089,-4.0146,-4.0267,-4.0674,-4.0537,-3.9398,0.0,0.0,0.0,-3.6138,-3.705,-3.7773,-3.8456,-3.9222,-3.9819,-4.0221,-4.0398,-4.0153,-3.9952,-4.0158,-4.0015,-3.9861,-3.9861,-4.0208,-4.0246,-3.9438,-3.8565,-3.77,-3.6827,-3.6,-3.55,-3.55,-3.55,-3.55,-3.55,-3.55,-3.5135,-3.4263,-3.4046,-3.3626,-3.2884,-3.207,-3.1694,-3.1814,-3.1211,-3.0898,-3.0898,-3.0684,-3.0213,-2.9515,-2.8996,-2.8034,-2.6713,-2.6404,-2.6269,-2.6231,-2.5577,-2.5308,-2.5298,-2.5146,-2.555,-2.6155,-2.495,-2.5834,-2.7494,-2.5087,-2.4208,-2.4208,0.0,0.0,0.0,0.0,0.0,0.0,0.0,0.0,0.0,0.0,0.0,0.0,0.0,-3.7488,-3.768,-3.6846,0.0,0.0,0.0,0.0,0.0,-4.1788,-4.2585,0.0,-4.1808,-4.1788,-4.1008,-3.9361,-3.8488,-3.8892,-4.0477,-3.9688,-4.0691,-4.3174,-4.2397,-4.1195,-3.9876,-4.1501,-4.1797,-4.1133,-4.1133,-4.1152,-4.1191,-4.1191,-4.1191,-4.1191,-4.1152,-4.1087,-4.0968,-4.0792,-4.0718,-4.0674,-4.0537,-3.9398,-3.8125,0.0,0.0,0.0,-3.7051,-3.7324,-3.7578,-3.8437,-3.858,-3.8727,-3.9482,-3.8903,-3.8432,-3.9198,-3.87,-3.8123,-3.8123,-3.9438,-4.0246,-3.9438,-3.8565,-3.77,-3.6827,-3.6,-3.55,-3.55,-3.55,-3.55,-3.55,-3.55,-3.5135,-3.4263,-3.3442,-3.2642,-3.1912,-3.1109,-3.0701,-3.0774,-3.0856,-3.0898,-3.0898,-3.0078,-2.9648,-2.957,-2.7791,-2.6899,-2.6756,-2.5792,-2.5365,-2.5365,-2.5327,-2.5308,-2.5308,-2.5298,-2.5321,-2.5367,-2.5279,-2.4922,-2.4434,-2.4257,-2.4198,-2.4198,0.0,0.0,0.0,0.0,0.0,0.0,0.0,0.0,0.0,0.0,0.0,0.0,0.0,-3.898,-3.9477,-3.9161,-3.9411,0.0,0.0,0.0,0.0,-4.0969,-4.1106,-4.1116,-4.0969,-4.079,-4.0253,0.0,0.0,-3.8315,-3.8873,-3.8027,-3.8127,-3.9116,-4.1184,-4.1828,-4.1372,-4.1559,-4.1465,-4.1191,-4.1191,-4.1191,-4.1191,-4.1191,-4.1191,-4.1191,-4.1191,-4.1503,-4.1864,-4.1685,-4.1628,-4.1563,-4.1384,-3.9822,-3.7848,-3.691,-3.6737,-3.6777,-3.6523,-3.6465,-3.668,-3.7559,-3.7665,-3.7776,-3.8581,-3.8413,-3.8174,-3.8409,-3.8219,-3.8007,-3.8007,-3.8488,-3.8623,-3.7777,-3.7373,-3.6885,-3.6058,-3.5673,-3.55,-3.55,-3.55,-3.55,-3.55,-3.4988,-3.4295,-3.343,-3.2602,-3.1782,-3.1017,-3.0692,-3.0565,-3.0621,-3.0714,-3.0542,-3.0078,-2.9199,-2.8476,-2.793,-2.7208,-2.6545,-2.5958,-2.5549,-2.5344,-2.5308,-2.5308,-2.5308,-2.5308,-2.5308,-2.5302,-2.5308,-2.5304,-2.4849,-2.42,-2.4194,-2.4192,-2.419,0.0,0.0,0.0,0.0,0.0,0.0,0.0,0.0,0.0,0.0,0.0,0.0,0.0,0.0,-4.0397,-4.0489,-4.0766,-4.0931,-4.0931,-4.0931,-4.0888,-4.0775,-4.0606,-4.0406,-4.0212,0.0,0.0,0.0,0.0,0.0,0.0,-3.7123,-3.6865,-3.7233,-3.9702,-4.0692,-4.0567,-4.1275,-4.1268,-4.0781,-4.1074,-4.1367,-4.1601,-4.1601,-4.1777,-4.2031,-4.2031,-4.2187,-4.2401,-4.2516,-4.214,-4.1678,-4.1764,-4.0065,-3.7784,-3.6502,-3.6471,-3.6716,-3.6152,-3.5996,-3.6133,-3.6719,-3.6792,-3.6942,-3.7726,-3.7576,-3.7355,-3.7572,-3.7376,-3.7161,-3.7161,-3.7161,-3.7065,-3.675,-3.6692,-3.6423,-3.5615,-3.55,-3.55,-3.55,-3.55,-3.55,-3.55,-3.4988,-3.4141,-3.2987,-3.241,0.0,-3.0525,-3.0495,-3.0529,-3.06,-3.0671,-3.0451,-2.9977,-2.8867,-2.8008,-2.7422,-2.6786,-2.6136,-2.5537,-2.546,-2.5406,-2.5354,-2.5327,-2.5308,-2.5308,-2.5308,-2.5308,-2.5293,-2.5304,-2.4847,-2.4211,-2.43,-2.4292,-2.419,0.0,0.0,0.0,0.0,0.0,0.0,0.0,0.0,0.0,-3.6829,0.0,0.0,0.0,0.0,0.0,-4.055,-4.1354,-4.1846,-4.1846,-4.1846,-4.1677,-4.1322,0.0,0.0,0.0,0.0,0.0,0.0,0.0,0.0,0.0,0.0,-3.7123,-3.7938,-3.8084,-3.7705,-3.7196,-4.0723,-4.1314,-3.998,-4.0879,-4.1699,-4.2402,-4.2422,-4.2969,-4.3691,-4.3691,-4.3164,-4.2576,-4.3221,-4.2299,-4.0974,-4.1552,-4.0086,-3.8028,-3.7234,-3.6512,-3.5989,0.0,0.0,0.0,-3.5996,-3.5996,-3.619,-3.6902,0.0,-3.5935,-3.6706,-3.6137,-3.5514,-3.5507,-3.5507,-3.5757,-3.65,-3.6654,-3.6385,-3.5615,-3.55,-3.55,-3.55,-3.55,-3.55,-3.55,-3.5481,-3.475,-3.3026,-3.2872,-3.2141,-3.05,-3.0462,-3.0525,-3.0597,-3.0648,-3.0654,-3.0656,-2.9098,-2.8281,-2.8242,-2.6474,-2.5621,-2.5599,-2.5535,-2.5494,-2.5483,-2.5369,-2.5288,-2.5308,-2.5308,-2.5308,-2.5293,-2.531,-2.4854,-2.4256,-2.4511,-2.4421,-2.4199,0.0,0.0,0.0,0.0,0.0,0.0,0.0,0.0,-3.8315,0.0,0.0,0.0,-3.8876,-4.0124,-4.1361,-4.2299,-4.2604,-4.2739,-4.2739,-4.2739,-4.2311,-4.1341,-4.1672,0.0,0.0,0.0,0.0,0.0,0.0,0.0,0.0,0.0,0.0,0.0,-3.6832,-3.6694,-3.6187,-3.9165,-4.0222,-4.0039,-4.1484,-4.2207,-4.2461,-4.3105,-4.3496,-4.3691,-4.3691,-4.3945,-4.4295,-4.4329,-4.3603,-4.2371,-4.0563,-3.9984,-3.9583,-3.7591,-3.7333,-3.7451,-3.6307,0.0,0.0,0.0,0.0,0.0,-3.6204,0.0,-3.5883,-3.6013,-3.5834,-3.563,-3.5588,-3.5566,-3.5415,-3.4969,-3.543,-3.575,-3.5538,-3.55,-3.55,-3.55,-3.55,-3.55,-3.55,-3.493,-3.4103,0.0,-3.2352,-3.1538,-3.0462,-3.0425,-3.0457,-3.0521,-2.9988,-2.9739,-2.9835,-2.8805,-2.7988,-2.7344,-2.6855,-2.6263,-2.5601,-2.5579,-2.5484,-2.5351,-2.5321,-2.5299,-2.5308,-2.5308,-2.5308,-2.5303,-2.5306,-2.5055,-2.4695,-2.4631,-2.4519,-2.4401,0.0,0.0,0.0,0.0,0.0,0.0,0.0,0.0,-3.9418,0.0,0.0,0.0,-4.0133,-4.1205,-4.231,-4.3302,-4.3723,-4.3999,-4.4143,-4.3663,-4.3015,-4.2183,-4.2304,-4.193,0.0,0.0,0.0,0.0,0.0,0.0,0.0,0.0,0.0,0.0,0.0,0.0,-3.5756,-3.8085,-3.9143,-3.9428,-4.1191,-4.2324,-4.3008,-4.3516,-4.4141,-4.4785,-4.4785,-4.4842,-4.4945,-4.5133,-4.4336,-4.2877,-4.054,-3.9955,-3.9779,-3.7982,-3.7603,-3.7491,-3.6214,-3.5924,-3.5951,-3.5951,0.0,0.0,-3.5948,-3.5914,-3.5777,0.0,-3.522,-3.5079,-3.4663,-3.4611,-3.4414,-3.3871,-3.4204,-3.4643,-3.4924,-3.5269,-3.55,-3.55,-3.55,-3.55,-3.55,-3.5045,-3.4237,-3.2987,-3.2468,-3.1679,-3.0462,-3.0404,-3.0425,-3.0457,-3.0024,-2.9849,-2.9959,-2.9182,-2.8552,-2.8086,-2.7344,-2.6776,-2.6339,-2.5861,-2.5577,-2.5451,-2.5344,-2.5294,-2.5305,-2.5289,-2.5308,-2.5308,-2.5308,-2.513,-2.4897,-2.4796,-2.4644,-2.4486,0.0,0.0,0.0,0.0,0.0,0.0,0.0,0.0,0.0,0.0,-4.115,-4.1293,-4.1816,-4.2429,-4.3122,-4.3946,-4.466,-4.5218,-4.5611,-4.4532,-4.3707,-4.3265,-4.3039,-4.2394,-4.1258,0.0,0.0,0.0,0.0,0.0,0.0,0.0,0.0,0.0,0.0,0.0,0.0,-3.7494,-3.8338,-3.8694,-4.0679,-4.2363,-4.3711,-4.3926,-4.4941,-4.6308,-4.6308,-4.5736,-4.5033,-4.5472,-4.4509,-4.281,-4.1043,-4.0015,-3.9256,-3.8361,-3.7594,-3.6837,-3.5931,-3.5794,-3.5877,-3.59,-3.5868,0.0,-3.5859,-3.5734,-3.5401,0.0,-3.4425,-3.4143,-3.3369,-3.321,-3.3187,-3.306,-3.3138,-3.3409,-3.4004,-3.4847,-3.538,-3.538,-3.538,-3.538,-3.538,-3.529,-3.4546,-3.2897,-3.2692,-3.1968,-3.0481,-3.0404,-3.0404,-3.0404,-3.0472,-3.0529,-3.0591,-2.9944,-2.9576,-2.9433,-2.7871,-2.7168,-2.7187,-2.6163,-2.5703,-2.5696,-2.5449,-2.5335,-2.5302,-2.5302,-2.5308,-2.5308,-2.5308,-2.5159,-2.4946,-2.4973,-2.4802,-2.4537,-3.7166,0.0,0.0,0.0,0.0,0.0,0.0,0.0,0.0,-4.198,-4.1515,-4.1714,-4.3356,-4.31,-4.3493,-4.526,-4.4972,-4.4991,-4.571,-4.4934,-4.3975,-4.2946,-4.3465,-4.324,-4.2084,-4.213,0.0,0.0,0.0,0.0,0.0,0.0,0.0,0.0,0.0,0.0,0.0,-3.7702,-3.8641,-3.9598,-4.2126,-4.3351,-4.3848,-4.5254,-4.5996,-4.6308,-4.6308,-4.6172,-4.5795,-4.4374,-4.3573,-4.2866,-4.1069,-4.04,-3.9969,-3.8535,-3.7981,-3.7549,-3.6083,-3.5717,-3.5764,-3.5873,-3.5381,0.0,-3.4941,-3.4394,-3.3846,0.0,-3.3629,-3.3543,-3.3314,-3.3286,-3.3037,-3.2279,-3.273,-3.3241,-3.3379,-3.4155,-3.4703,-3.4703,-3.4703,-3.4703,-3.4703,-3.3955,-3.3077,-3.2082,-3.1306,-3.075,-3.0423,-3.0404,-3.0404,-3.0404,-3.0472,-3.0511,-3.0513,-3.0472,-2.98,-2.8478,-2.8182,-2.7344,-2.6016,-2.58,-2.5698,-2.5697,-2.5641,-2.5492,-2.5294,-2.5302,-2.5308,-2.5308,-2.5308,-2.5274,-2.5184,-2.4923,-2.4811,-2.4693,-3.7162,0.0,0.0,0.0,0.0,0.0,0.0,0.0,0.0,-4.332,-4.3149,-4.3254,-4.4243,-4.3999,-4.4231,-4.5394,0.0,0.0,0.0,-4.4631,-4.4031,-4.3416,-4.3611,-4.331,-4.2323,-4.2304,0.0,0.0,0.0,0.0,0.0,0.0,0.0,0.0,0.0,0.0,0.0,0.0,-3.904,-3.9649,-4.1549,0.0,-4.3808,-4.4668,-4.5547,-4.6308,-4.6308,-4.6267,-4.5898,-4.3957,-4.353,0.0,-4.1219,-4.0804,-4.0831,-3.9173,-3.8389,-3.779,-3.6533,-3.5926,-3.5678,-3.5728,-3.5151,0.0,0.0,-3.4621,-3.3883,-3.3476,-3.3398,-3.3124,-3.2258,-3.2099,-3.1959,-3.1474,-3.176,-3.2053,-3.2053,-3.3092,-3.3842,-3.3842,-3.3842,-3.3842,-3.3842,-3.341,-3.2736,-3.1873,-3.0937,-3.0404,-3.0404,-3.0404,-3.0404,-3.0404,-3.0419,-3.0472,-3.0498,-3.0606,-3.0045,-2.8858,-2.8786,-2.8125,-2.6973,-2.6094,-2.5702,-2.5696,-2.5708,-2.5559,-2.5308,-2.5306,-2.5302,-2.5308,-2.5308,-2.5308,-2.5264,-2.4993,-2.4862,-2.476,-3.6966,0.0,0.0,0.0,0.0,0.0,0.0,0.0,0.0,-4.4455,-4.4837,-4.5002,-4.515,-4.515,-4.5457,-4.6203,-4.5549,0.0,-4.5293,-4.4431,-4.3893,-4.3893,-4.3646,-4.3112,-4.2323,-4.2304,-4.1589,0.0,0.0,0.0,0.0,0.0,0.0,0.0,0.0,0.0,0.0,-3.87,-3.943,-3.973,0.0,-4.2046,-4.3729,-4.4041,-4.5058,-4.6308,-4.6308,-4.6127,-4.564,-4.4035,-4.3837,-4.3859,-4.1496,-4.1239,0.0,-3.9796,-3.8681,-3.7815,-3.6942,-3.6145,-3.5574,-3.56,-3.4896,-3.4422,0.0,0.0,0.0,-3.3005,-3.289,-3.246,-3.1133,0.0,0.0,-3.0684,0.0,0.0,0.0,-3.1861,0.0,-3.2992,-3.3012,-3.3012,-3.3012,-3.2822,-3.2386,-3.1611,-3.0848,-3.0414,-3.0404,-3.0404,-3.0404,-3.0404,-3.0404,-3.0428,-3.0482,-3.0395,-3.0027,-2.9352,-2.9019,-2.8476,-2.7754,-2.6348,-2.5703,-2.5703,-2.5691,-2.5542,-2.5309,-2.5324,-2.532,-2.5308,-2.5308,-2.5308,-2.5274,-2.5063,-2.4923,-2.4775,-3.7566,-3.8999,0.0,0.0,0.0,0.0,0.0,0.0,0.0,0.0,-4.5333,-4.6049,-4.6746,-4.6837,-4.7719,-4.9981,-4.6856,-4.5643,-4.774,-4.5164,-4.3565,-4.3565,-4.3513,-4.3112,-4.2323,-4.2304,-4.1864,0.0,0.0,0.0,0.0,0.0,0.0,0.0,-3.8334,0.0,-3.9015,0.0,-3.9778,0.0,-4.0749,-4.1947,0.0,-4.526,-4.6023,-4.6308,-4.6308,-4.5781,-4.5055,0.0,-4.4076,-4.3311,0.0,-4.1712,-4.147,-3.9796,0.0,0.0,0.0,0.0,0.0,0.0,-3.4371,-3.3231,-3.3459,0.0,-3.105,-3.1006,0.0,-3.0983,-3.0918,0.0,0.0,0.0,0.0,0.0,-2.9863,-3.0566,-3.1443,-3.2225,-3.2303,-3.2303,-3.2303,-3.1505,-3.0899,-3.0651,-3.0543,-3.0467,-3.039,-3.0404,-3.0404,-3.0404,-3.0404,-3.039,-3.0414,-2.9769,-2.9255,-2.8874,-2.8015,-2.7031,-2.5996,-2.5781,-2.5703,-2.5703,-2.5691,-2.5542,-2.5309,-2.5428,-2.5406,-2.5308,-2.5308,-2.5308,-2.5274,-2.5063,-2.4923,-2.4775,-3.8212,-3.9332,0.0,0.0,0.0,0.0,0.0,0.0,0.0,0.0,0.0,-4.7425,-4.7755,-4.7791,-4.8416,-4.9958,-4.8067,-4.6819,-4.6911,-4.5204,-4.3993,-4.3533,-4.3515,-4.3112,-4.2323,-4.2763,-4.2378,-4.1095,-4.0763,0.0,0.0,0.0,0.0,0.0,-3.9319,-3.94,-3.9323,0.0,-4.0215,0.0,0.0,-4.1998,0.0,-4.4198,-4.5368,-4.623,-4.5723,-4.5312,-4.4823,0.0,-4.3341,0.0,0.0,0.0,0.0,-4.0362,0.0,0.0,0.0,0.0,0.0,0.0,0.0,0.0,-3.3701,0.0,-3.1322,-3.1381,0.0,0.0,0.0,0.0,0.0,0.0,-3.0487,0.0,0.0,0.0,-3.0895,-3.1386,0.0,0.0,-3.2207,-3.1299,-3.068,-3.0611,-3.0581,-3.0525,-3.0462,-3.0457,-3.0672,-3.1141,-3.0654,-3.0635,-3.1154,-3.0428,-2.9624,-2.8782,-2.8209,-2.7148,-2.5703,-2.5703,-2.5703,-2.5703,-2.5701,-2.5581,-2.5411,-2.5479,-2.5421,-2.5308,-2.5308,-2.5308,-2.5274,-2.5063,-2.4923,-2.4775,-3.891,-3.9705,-4.0096,0.0,0.0,0.0,0.0,0.0,0.0,0.0,-4.6764,-4.8233,-4.8912,-4.9003,-4.9517,-5.0784,-4.9315,-4.7921,-4.6966,-4.5516,-4.4342,-4.3551,-4.3515,-4.3112,-4.2323,-4.2873,-4.2598,-4.1425,0.0,0.0,0.0,0.0,0.0,0.0,0.0,-4.0189,-3.9669,-4.0246,-4.0496,-4.0569,-4.1332,-4.184,-4.2266,-4.3313,-4.4492,-4.5508,-4.4863,-4.4492,-4.4121,-4.3022,-4.2858,0.0,-4.1505,0.0,-4.1682,0.0,0.0,0.0,-3.8161,0.0,0.0,0.0,0.0,0.0,0.0,0.0,0.0,0.0,0.0,0.0,0.0,0.0,0.0,0.0,0.0,-3.0197,0.0,-3.0311,0.0,0.0,0.0,0.0,0.0,-3.1169,-3.0744,-3.0696,-3.0642,-3.0603,-3.0533,-3.0525,-3.078,-3.1339,-3.0755,-3.0736,-3.1353,-3.0618,-2.9928,-2.9284,-2.8135,-2.6914,-2.5703,-2.5703,-2.5703,-2.5703,-2.5703,-2.5634,-2.5552,-2.5517,-2.5431,-2.5336,-2.5298,-2.5308,-2.5274,-2.5141,-2.4987,-2.4835,-3.9631,-4.007,-4.0096,0.0,0.0,0.0,0.0,0.0,0.0,-4.5535,-4.6617,-4.8048,-5.0472,-5.0729,-5.1665,-5.4032,-5.06,-4.8636,-4.9427,-4.6489,-4.4342,-4.3551,-4.3515,-4.3112,-4.2323,-4.2323,-4.2304,-4.2268,0.0,0.0,0.0,0.0,0.0,0.0,-4.0718,-4.0496,-4.0458,-4.0496,-4.0496,-4.0512,-4.0675,-4.1352,-4.2407,0.0,-4.373,-4.3789,-4.375,0.0,0.0,-4.3312,-4.3019,0.0,0.0,0.0,0.0,0.0,0.0,0.0,0.0,0.0,0.0,-3.5519,0.0,0.0,0.0,0.0,-3.0455,0.0,0.0,0.0,0.0,0.0,0.0,-2.8443,0.0,0.0,0.0,-2.9572,-3.0606,-3.0611,0.0,0.0,0.0,-3.0836,-3.0837,-3.0717,-3.0693,-3.0673,-3.0606,-3.06,-3.0581,-3.0537,-3.0513,-3.0513,-3.0533,-2.9735,-2.9759,-3.0498,-2.7301,-2.5742,-2.5703,-2.5703,-2.5703,-2.5703,-2.5703,-2.57,-2.5676,-2.5554,-2.5465,-2.5383,-2.5336,-2.5308,-2.5308,-2.5284,-2.5163,-2.4974,-3.9063,-3.9731,-4.0096,-4.0096,-4.0096,0.0,0.0,-4.2793,-4.4407,-4.7303,-4.8768,-5.049,-5.2931,-5.2711,-5.2931,-5.4289,-5.1683,-4.9848,-4.9629,-4.7517,-4.592,-4.5112,-4.5094,-4.4709,-4.392,-4.3901,-4.3626,-4.3075,0.0,0.0,0.0,0.0,0.0,0.0,0.0,-4.0496,0.0,0.0,0.0,0.0,0.0,-4.0984,-4.1412,0.0,-4.3203,-4.3613,-4.3047,-4.2656,0.0,-4.2106,-4.176,-4.1439,-4.1398,-4.0863,-4.0225,-3.9935,-3.8968,0.0,0.0,0.0,-3.6173,-3.5635,0.0,0.0,0.0,0.0,0.0,0.0,0.0,0.0,0.0,0.0,0.0,0.0,0.0,0.0,0.0,-3.01,-3.0472,-3.0472,-3.0561,-3.0857,0.0,0.0,-2.9951,-2.9918,-2.9941,-2.995,-2.9872,-3.0379,-3.0896,-3.1416,-3.0872,-3.0833,-3.1413,-3.0638,-3.0347,-3.0597,-2.9606,-2.793,-2.5703,-2.5703,-2.5703,-2.5703,-2.5703,-2.57,-2.5697,-2.5593,-2.5504,-2.5387,-2.5336,-2.5308,-2.5308,-2.5308,-2.5168,-2.4968,-3.9129,-3.974,-4.0096,-4.0096,-4.0333,0.0,0.0,0.0,-4.5878,-4.8275,-5.0125,-5.1922,-5.3775,-5.3518,-5.3427,-5.394,-5.2032,-5.0453,-4.9647,-4.7755,-4.6452,-4.592,-4.5351,-4.4929,-4.4727,-4.4415,-4.4011,-4.3515,0.0,-4.1754,0.0,0.0,0.0,0.0,0.0,-4.0496,-4.0496,-4.0496,-4.0496,0.0,0.0,-4.0784,0.0,0.0,-4.2241,-4.2671,0.0,-4.1973,-4.1855,-4.1016,-4.068,-4.0547,-4.0182,-3.9575,-3.8996,-3.8988,-3.8292,-3.743,-3.6846,-3.6481,0.0,-3.5635,-3.4603,0.0,-3.3744,0.0,-3.1231,0.0,0.0,0.0,0.0,0.0,0.0,0.0,0.0,0.0,0.0,-3.026,-3.035,-3.0595,-3.0574,-3.0658,-3.0921,-3.0302,-2.9642,-2.9074,-2.9365,-2.9551,0.0,0.0,-3.0675,-3.1459,-3.0935,-3.0916,-3.1476,-3.0952,-3.0701,-3.0711,-3.0839,-2.9062,-2.5703,-2.5703,-2.5703,-2.5703,-2.5703,-2.5702,-2.5691,-2.5601,-2.5502,-2.5441,-2.5335,-2.5308,-2.5308,-2.5308,-2.5154,-2.4948,-3.9731,-4.0104,-4.0146,-4.0146,-4.0696,0.0,0.0,0.0,-4.6877,-4.8433,-5.0557,-5.2305,-5.3203,-5.324,-5.3185,-5.3185,-5.1701,-5.0398,-4.9592,-4.7278,-4.5938,-4.5902,-4.4415,-4.3956,-4.4673,-4.3956,-4.3551,-4.3515,0.0,0.0,0.0,0.0,0.0,0.0,-4.0557,0.0,-4.0496,-4.0496,-4.0496,-4.0512,-4.0655,-4.0742,-4.0801,-4.0952,-4.0976,-4.0963,-4.113,-4.1172,-4.1016,-4.0176,-3.9863,-3.9667,-3.871,-3.8322,-3.8214,-3.8142,-3.743,-3.6635,-3.6635,-3.6058,-3.5442,-3.5442,0.0,0.0,0.0,0.0,-3.0462,0.0,0.0,0.0,0.0,0.0,0.0,0.0,0.0,0.0,-2.9742,-2.9972,-3.0228,-3.0852,-3.0631,-3.0117,-2.9324,-2.9984,-2.9832,-2.831,-2.8996,-2.9516,0.0,0.0,-3.0036,-3.0699,-3.0717,-3.0717,-3.0717,-3.0717,-3.0771,-3.0898,-3.0898,-2.9062,-2.5703,-2.5703,-2.5703,-2.5703,-2.5703,-2.5703,-2.5683,-2.5556,-2.551,-2.5498,-2.5346,-2.5308,-2.5308,-2.5308,-2.5141,-2.4927,-3.9032,-4.0141,-4.0916,0.0,-4.0612,-4.0807,0.0,0.0,0.0,0.0,-5.024,-5.2144,-5.4704,-5.3922,-5.3185,-5.3185,-5.1169,-4.9536,-4.8691,-4.748,-4.6544,-4.592,-4.5498,-4.5094,-4.4727,-4.4507,-4.4103,-4.3515,-4.2488,0.0,-4.1387,0.0,0.0,0.0,0.0,-4.0321,-4.0496,-4.0496,-4.0496,-4.0512,-4.0655,-4.0701,-4.0747,0.0,-4.0604,-4.0143,-4.0915,-4.0781,-4.0195,-3.998,-3.9391,-3.8731,-3.8486,-3.7881,-3.7259,-3.7249,-3.656,-3.5808,-3.5808,-3.518,-3.4526,-3.4526,-3.3718,-3.2891,0.0,0.0,0.0,0.0,0.0,0.0,0.0,0.0,0.0,-2.8838,-2.8676,-2.8707,-2.906,-2.9497,-2.9849,-3.0005,-2.9558,-2.9385,-2.9762,-2.911,-2.8508,-2.8087,-2.8942,0.0,0.0,0.0,0.0,-3.0857,-3.0857,-3.0857,-3.0857,-3.0857,-3.0878,-3.0898,-3.0898,-2.9062,-2.5703,-2.5703,-2.5703,-2.5703,-2.5703,-2.5703,-2.5703,-2.5653,-2.5588,-2.5498,-2.5346,-2.5308,-2.5308,-2.5308,-2.5262,-2.5157,-3.9226,-4.0628,-4.1779,-4.2117,0.0,0.0,-4.3115,-4.4421,0.0,-4.8229,-5.0235,0.0,-5.2988,-5.284,-5.2399,-5.1683,-5.0031,-4.8673,-4.7828,-4.6691,-4.6012,-4.5902,-4.5223,-4.48,-4.4691,-4.4011,-4.3608,-4.3515,-4.1992,0.0,-4.1075,0.0,0.0,0.0,0.0,-4.0241,-4.0496,-4.0496,-4.0496,-4.0504,-4.0575,-4.0655,0.0,-4.0407,-4.0029,-3.9674,-3.987,-3.9634,-3.9193,-3.8841,-3.8295,-3.772,-3.7316,-3.6782,-3.6327,-3.63,-3.592,-3.5423,-3.5045,-3.4564,-3.4109,-3.3725,-3.3006,-3.2372,-3.2372,-3.1737,-3.1135,0.0,0.0,-3.0404,0.0,0.0,0.0,-2.9107,-2.8932,-2.8891,-2.9163,-2.9413,-2.9523,-2.9407,-2.9203,-2.9238,-2.9691,-2.8663,-2.811,-2.8502,-2.9049,0.0,0.0,0.0,0.0,-3.0918,-3.0898,-3.0898,-3.0898,-3.0898,-3.0898,-3.0879,-2.9355,-2.7598,-2.5703,-2.5703,-2.5703,-2.5703,-2.5703,-2.5703,-2.5703,-2.5693,-2.5593,-2.5418,-2.5327,-2.5308,-2.5308,-2.5308,-2.5292,-2.5261,-4.0056,-4.1496,-4.2642,0.0,0.0,0.0,0.0,-4.6454,0.0,-4.7732,0.0,-5.1331,-4.9874,-5.0787,-5.0894,-4.9408,-4.8471,-4.7626,-4.6837,-4.548,-4.4966,-4.5553,-4.414,-4.3718,-4.4544,-4.2965,-4.2543,-4.3332,0.0,0.0,0.0,0.0,0.0,0.0,0.0,0.0,0.0,-4.0342,-4.04,-4.0496,-4.0496,-4.0511,-4.0452,-3.9683,-3.9345,-3.9155,-3.8406,-3.8177,-3.8102,-3.7418,-3.7008,-3.667,-3.5863,-3.5595,-3.5557,-3.5374,-3.5327,-3.5135,-3.4276,-3.3955,-3.3686,-3.2929,-3.2141,-3.1525,-3.1525,-3.0942,-3.0404,-3.0404,-3.0404,-3.0404,0.0,0.0,0.0,0.0,0.0,0.0,-2.966,-2.9533,-2.931,-2.9078,-2.9177,0.0,-2.9384,-2.8662,-2.8483,-2.9241,0.0,0.0,0.0,0.0,0.0,-3.0898,-3.0898,-3.0898,-3.0898,0.0,-3.0898,-3.0859,-2.7363,-2.5703,-2.5703,-2.5703,-2.5703,-2.5703,-2.5703,-2.5703,-2.5703,-2.5707,-2.5547,-2.5293,-2.5295,-2.5308,-2.5308,-2.5308,-2.5299,-2.5294,-4.1496,-4.2611,-4.3267,0.0,0.0,-4.4637,-4.5399,-4.6355,-4.6988,-4.6914,-4.8895,-4.9935,-4.8951,-4.8885,-4.8581,-4.7608,-4.6801,0.0,0.0,0.0,0.0,-4.3938,-4.3002,-4.2892,-4.3681,-4.2139,-4.1699,-4.2506,0.0,0.0,0.0,0.0,0.0,0.0,0.0,0.0,-3.9515,-3.9515,0.0,-4.0496,-4.0496,-4.0151,-3.9605,-3.9456,-3.8593,-3.7446,-3.7274,-3.7245,-3.7215,-3.7079,-3.6507,-3.582,-3.5654,-3.5562,-3.5367,-3.4635,-3.443,-3.4237,-3.3353,-3.2641,-3.2102,-3.1948,-3.125,-3.0635,-3.0635,-3.0519,-3.0404,-3.0404,-3.0404,-3.0404,-3.0404,0.0,0.0,0.0,0.0,0.0,0.0,-2.9625,-2.9382,-2.9341,-2.8877,-2.8782,-2.9348,0.0,0.0,0.0,0.0,0.0,0.0,0.0,0.0,0.0,-3.0898,0.0,0.0,0.0,-3.0898,-3.0859,-2.7363,-2.5703,-2.5703,-2.5703,-2.5703,-2.5703,-2.5703,-2.5703,-2.5703,-2.5701,-2.5547,-2.5292,-2.5303,-2.5308,-2.5308,-2.5308,-2.5293,-2.5301,-4.2354,0.0,-4.3511,-4.3944,0.0,0.0,0.0,-4.5754,-4.5931,-4.5093,-4.6187,-4.6604,-4.5427,-4.6077,-4.6329,-4.5508,-4.5333,-4.4947,-4.4121,-4.3699,-4.3277,-4.2892,-4.2121,-4.1864,-4.2249,-4.1093,-4.0873,-4.168,0.0,0.0,0.0,0.0,0.0,0.0,0.0,-3.9547,0.0,0.0,0.0,-3.9881,-3.9881,-3.9401,-3.8614,-3.817,-3.7518,-3.6792,-3.6366,-3.6211,-3.6221,-3.625,-3.595,-3.5552,-3.5552,-3.5226,-3.4737,-3.4321,-3.3878,-3.3333,-3.2506,-3.1987,-3.1583,-3.1135,-3.0712,-3.0404,-3.0404,-3.0404,-3.0404,-3.0404,-3.0404,-3.0404,-3.0404,-3.0058,0.0,0.0,0.0,0.0,0.0,0.0,-2.9392,-2.8942,-2.8609,-2.8649,-2.928,0.0,0.0,0.0,0.0,0.0,0.0,0.0,0.0,0.0,0.0,0.0,0.0,0.0,0.0,-3.0859,-2.7363,-2.5703,-2.5703,-2.5703,-2.5703,-2.5703,-2.5703,-2.5702,-2.5694,-2.5554,-2.5424,-2.5303,-2.5293,-2.5308,-2.5308,-2.5308,-2.5308,-2.5298,-4.2412,-4.3057,0.0,0.0,-4.4587,-4.4773,-4.4209,-4.4604,-4.4604,-4.3527,-4.3975,-4.3828,-4.2337,-4.3659,-4.4381,-4.3705,-4.387,-4.3777,-4.3277,-4.2488,-4.2047,-4.2047,-4.1277,-4.093,-4.1095,-4.0139,-4.0047,0.0,0.0,0.0,0.0,0.0,0.0,0.0,0.0,0.0,0.0,0.0,-3.9708,-3.9284,-3.9111,-3.8507,-3.7642,-3.6962,-3.6596,-3.6365,-3.5731,-3.55,-3.5482,-3.535,-3.527,-3.5192,-3.5,-3.4487,-3.3898,-3.3725,-3.3179,-3.2468,-3.166,-3.1429,-3.125,-3.0577,-3.0404,-3.0404,-3.0404,-3.0404,-3.0404,-3.0404,-3.0404,-3.0404,-3.0404,-3.0404,0.0,0.0,0.0,0.0,0.0,0.0,-2.9401,-2.8574,-2.8567,-2.8679,-2.8836,0.0,0.0,0.0,0.0,0.0,-3.1782,0.0,0.0,0.0,0.0,-3.1111,-3.0897,0.0,-3.0898,-3.0859,-2.7363,-2.5703,-2.5703,-2.5703,-2.5703,-2.5703,-2.5703,-2.5673,-2.5591,-2.5392,-2.5302,-2.531,-2.5307,-2.5308,-2.5308,-2.5308,-2.5308,-2.5308,0.0,0.0,0.0,0.0,0.0,0.0,-4.2523,-4.2557,-4.2811,-4.3325,-4.3975,-4.3821,-4.2282,-4.2743,-4.3087,-4.2835,-4.2136,-4.1923,-4.2381,-4.1645,-4.1205,-4.1205,-4.0432,-4.0359,-4.1077,-3.9606,-3.9203,0.0,0.0,-3.8486,0.0,0.0,0.0,0.0,0.0,0.0,0.0,-3.8546,-3.8642,-3.9227,-3.843,-3.7603,-3.6808,-3.6731,-3.625,-3.5596,-3.5538,-3.55,-3.5391,-3.4603,-3.4334,-3.4186,-3.3391,-3.3083,-3.2872,-3.216,-3.1891,-3.1621,-3.075,-3.0519,-3.05,-3.0423,-3.0404,-3.0404,-3.0404,-3.0404,-3.0404,-3.0404,-3.0404,-3.0404,-3.0404,-3.0404,-3.0317,0.0,0.0,0.0,0.0,0.0,-2.9479,-2.8839,-2.9078,-2.8792,-2.7512,-2.9142,0.0,0.0,-3.1385,0.0,0.0,0.0,0.0,-3.0631,0.0,-3.1822,-3.0903,-3.0895,-3.0898,-3.0859,-2.7363,-2.5703,-2.5703,-2.5703,-2.5703,-2.5703,-2.5694,-2.5563,-2.5337,-2.53,-2.5294,-2.5303,-2.5293,-2.5308,-2.5308,-2.5308,-2.5308,-2.5308,0.0,0.0,0.0,0.0,0.0,0.0,0.0,-4.0984,-4.0764,-4.0189,-4.1495,-4.1911,-4.04,-4.1031,-4.1345,-4.0824,-4.0601,-4.0602,-4.0838,-3.9643,-3.8927,-3.8927,-3.8175,-3.812,-3.8909,-3.7845,-3.7881,0.0,0.0,0.0,0.0,0.0,0.0,0.0,0.0,-3.9015,-3.8488,-3.8142,-3.7892,-3.7719,-3.7353,-3.6712,-3.5981,-3.5981,-3.5788,-3.5423,-3.4911,-3.4718,-3.4507,-3.316,-3.3372,-3.4052,-3.316,-3.2564,-3.2122,-3.1795,-3.1327,-3.0846,-3.05,-3.0019,-2.9756,-3.0269,-3.0,-2.9756,-3.0288,-3.0,-2.9775,-3.0288,-3.0404,-3.0404,-3.0404,-3.0404,-3.0361,0.0,0.0,0.0,0.0,0.0,0.0,-2.8344,0.0,-2.7633,-2.7403,-2.8876,0.0,0.0,0.0,0.0,0.0,0.0,0.0,-3.2042,0.0,-3.1235,-3.0897,-3.0894,-3.0898,-3.0859,-2.7363,-2.5703,-2.5703,-2.5703,-2.5703,-2.5683,-2.5536,-2.5403,-2.5304,-2.5306,-2.5297,-2.5308,-2.5308,-2.5308,-2.5308,-2.5308,-2.5308,-2.5308,-3.8856,0.0,-3.9454,0.0,-4.0863,-4.0663,-3.9606,-3.9445,-3.9073,-3.8041,-3.9259,-3.9834,-3.8785,-3.9152,-3.9403,-3.9168,-3.8888,-3.8857,-3.9184,-3.7915,-3.7144,-3.7144,-3.6597,0.0,-3.7125,-3.6578,-3.6853,-3.7991,-3.7503,0.0,0.0,0.0,0.0,0.0,-3.8911,-3.8584,-3.7988,-3.7738,-3.7257,-3.6673,-3.6442,-3.6,-3.55,-3.55,-3.55,-3.5385,-3.4507,-3.4205,-3.3936,-3.2275,-3.2487,-3.3314,-3.2449,-3.1775,-3.1308,-3.1308,-3.0692,-3.0019,-3.0019,-2.939,-2.8896,-2.9506,-2.9198,-2.8915,-2.9525,-2.9198,-2.8992,-2.9833,-3.0019,-3.0096,-3.0346,-3.0404,-3.0367,-3.0299,0.0,0.0,0.0,-2.9397,0.0,-2.7881,-2.7344,-2.7064,-2.7138,-2.8575,0.0,0.0,0.0,0.0,0.0,0.0,0.0,0.0,0.0,0.0,0.0,-3.1125,-3.0391,-2.9336,-2.6875,-2.5703,-2.5703,-2.5703,-2.5703,-2.5681,-2.5494,-2.5362,-2.5293,-2.5299,-2.5308,-2.5308,-2.5308,-2.5308,-2.5308,-2.5308,-2.5308,-2.5308,-3.4765,-3.5889,-3.6859,-3.6859,-3.746,-3.7956,-3.7939,-3.7939,-3.7922,-3.7905,-3.7922,-3.7939,-3.7922,-3.7269,-3.7237,-3.8239,-3.687,-3.6415,-3.7466,-3.6776,-3.6303,0.0,0.0,-3.6303,-3.6303,-3.6303,-3.6303,-3.6321,0.0,0.0,-3.5956,0.0,-3.7192,-3.8027,-3.8027,-3.8007,-3.795,-3.7084,-3.6712,-3.6635,-3.5827,-3.5519,-3.55,-3.55,-3.55,-3.5385,-3.4507,-3.4205,-3.3936,-3.2275,-3.1718,-3.1583,-3.0712,-3.0423,-3.0423,-3.0423,-2.9794,-2.9127,-2.9127,-2.853,-2.7915,-2.7934,-2.7915,-2.7915,-2.7934,-2.7915,-2.8145,-2.8953,-2.9127,-2.9371,-3.0231,-3.0404,-3.0311,-3.0054,0.0,0.0,0.0,-2.8812,0.0,-2.7616,-2.7848,-2.7622,-2.6432,-2.8125,0.0,0.0,0.0,0.0,0.0,0.0,0.0,-3.0462,-3.3697,0.0,-3.3197,-3.1665,-2.918,-2.5762,-2.5723,-2.5703,-2.5703,-2.5703,-2.57,-2.5698,-2.5693,-2.5532,-2.5305,-2.5302,-2.5308,-2.5308,-2.5308,-2.5308,-2.5308,-2.5308,-2.5308,-2.5308,-3.4679,-3.5785,-3.6754,-3.6788,-3.7415,-3.7381,-3.5825,-3.6011,-3.5955,-3.4957,-3.4844,-3.4844,-3.4844,-3.5856,-3.6347,0.0,-3.5293,-3.513,0.0,-3.5037,-3.4596,-3.4596,-3.4596,-3.4853,-3.5389,-3.489,-3.5252,-3.6576,0.0,0.0,0.0,-3.7172,-3.7515,-3.7969,-3.7373,-3.7123,-3.7065,-3.6231,-3.5885,-3.5865,-3.5596,-3.5135,-3.4603,-3.4603,-3.4237,-3.3622,-3.2795,-3.2506,-3.2314,-3.1192,-3.0808,-3.0654,-2.9794,-2.9929,-3.0288,-2.9698,-2.9319,-2.8973,-2.8434,-2.7659,-2.7159,-2.7761,-2.7448,-2.7178,-2.7761,-2.7895,-2.7972,-2.8222,-2.8723,-2.9377,-3.0231,-3.0404,-3.0367,-3.0292,-3.0329,0.0,-2.9134,0.0,-2.7856,-2.6987,-2.6479,-2.6047,-2.5661,-2.7115,0.0,0.0,0.0,0.0,0.0,0.0,0.0,0.0,-3.2048,0.0,-3.32,-3.167,-2.9154,-2.5699,-2.5704,-2.5692,-2.5692,-2.5692,-2.5697,-2.5693,-2.5701,-2.555,-2.5305,-2.5302,-2.5308,-2.5308,-2.5308,-2.5308,-2.5308,-2.5308,-2.5308,-2.5308,-3.3072,-3.3986,-3.4816,-3.5105,-3.5733,-3.574,-3.4303,-3.4489,-3.4433,-3.3525,-3.3406,-3.3288,-3.3017,-3.4277,0.0,-3.4394,-3.3938,-3.3939,-3.4518,-3.4082,-3.3807,-3.3807,-3.3807,-3.4045,-3.4546,-3.4064,0.0,-3.5618,-3.5328,-3.5734,-3.6761,-3.6761,-3.6853,-3.7046,-3.6481,-3.6058,-3.5738,-3.5218,-3.4814,-3.4519,-3.4519,-3.4199,-3.3705,-3.3705,-3.3372,-3.2795,-3.1987,-3.1698,-3.1564,-3.0692,-3.0173,-2.9813,-2.928,-2.9275,-2.9352,-2.8819,-2.8415,-2.8044,-2.7544,-2.6774,-2.6231,-2.6794,-2.6505,-2.625,-2.6794,-2.6928,-2.7024,-2.7332,-2.7813,-2.8429,-2.9294,-2.9717,-2.9813,-2.95,-2.9717,-2.9506,-2.8332,0.0,-2.7176,0.0,0.0,0.0,0.0,-2.6772,-2.7502,0.0,0.0,0.0,0.0,0.0,0.0,-3.1968,-3.095,0.0,-3.2133,-2.9927,-2.7707,-2.5539,-2.5642,-2.5705,-2.5698,-2.5606,-2.5554,-2.5559,-2.5551,-2.5457,-2.5299,-2.5298,-2.5301,-2.5305,-2.529,-2.5295,-2.5293,-2.5302,-2.5307,-2.5308,-3.0253,-3.1003,-3.1682,0.0,-3.2837,0.0,-3.3203,-3.322,-3.3237,-3.3186,-3.3136,-3.2852,-3.2181,-3.2511,-3.2927,-3.3369,0.0,0.0,0.0,-3.3623,-3.3623,-3.3623,-3.3623,-3.3623,-3.3623,-3.3697,-3.376,-3.3868,-3.4453,-3.4988,-3.5404,-3.5404,-3.5385,-3.5327,-3.5327,-3.4872,-3.4109,-3.4109,-3.3641,-3.2891,-3.2891,-3.2872,-3.2814,-3.2814,-3.2776,-3.2622,-3.1891,-3.1621,-3.1487,-3.0673,-2.9813,-2.9088,-2.903,-2.8453,-2.7818,-2.7818,-2.7236,-2.6582,-2.6524,-2.5923,-2.5308,-2.5308,-2.5308,-2.5308,-2.5308,-2.5308,-2.5558,-2.6428,-2.6601,-2.6871,-2.7741,-2.8511,-2.878,-2.803,-2.853,-2.8453,-2.6832,-2.6601,-2.6486,0.0,0.0,0.0,0.0,-2.6911,-2.6854,0.0,0.0,0.0,0.0,0.0,-3.2006,-3.0442,-3.0404,-3.0408,-3.0393,-2.7242,-2.5529,-2.5302,-2.5554,-2.5671,-2.5651,-2.5431,-2.5319,-2.5299,-2.5293,-2.5311,-2.5335,-2.5335,-2.5335,-2.533,-2.5329,-2.5321,-2.5327,-2.5318,-2.5309,-2.5313,0.0,0.0,-3.1805,-3.0818,-3.1699,-3.2171,-3.1055,-3.136,-3.1529,-3.0954,-3.0395,-3.007,-3.0141,-3.0265,-3.0641,-3.1387,-3.1853,-3.2087,-3.1964,-3.1966,-3.1966,-3.1966,-3.1966,-3.1966,-3.1966,-3.2577,-3.3401,-3.4494,-3.5034,-3.5031,-3.4507,-3.4507,-3.4141,-3.3526,-3.3526,-3.3391,-3.3218,-3.3218,-3.3083,-3.2891,-3.2891,-3.2526,-3.1987,-3.1987,-3.1564,-3.0962,-3.0788,-3.0712,-3.0673,-3.0462,-2.9813,-2.8992,-2.8376,-2.7601,-2.6909,-2.6909,-2.6755,-2.6447,-2.5788,-2.5462,-2.5308,-2.5308,-2.5308,-2.5308,-2.5308,-2.5308,-2.5558,-2.6428,-2.6601,-2.6871,-2.7741,-2.8068,-2.8126,-2.7934,-2.8068,-2.7813,-2.6755,-2.6601,-2.6336,0.0,-2.5693,-2.6,-2.6466,-2.6096,-2.6483,0.0,0.0,0.0,0.0,-3.0558,-3.0808,-3.0404,-3.04,-3.0395,-3.0397,-2.9603,-2.7886,-2.5307,-2.5353,-2.5389,-2.5395,-2.5531,-2.5496,-2.5295,-2.5295,-2.542,-2.5608,-2.5608,-2.562,-2.5607,-2.5603,-2.5609,-2.5598,-2.5499,-2.5454,-2.5459,-2.7998,-2.9256,-3.0208,-2.9698,-3.0262,-3.0516,-2.9719,-2.9939,-3.004,-2.9651,-2.9264,-2.9066,-2.9247,-2.9606,-2.9871,-2.9972,-3.0891,-3.1447,-3.1408,-3.1397,-3.1397,-3.1397,-3.1397,-3.1458,-3.1584,-3.1881,-3.256,-3.3562,-3.395,-3.3937,-3.3603,-3.3603,-3.3353,-3.2891,-3.2891,-3.2699,-3.2352,-3.2352,-3.2122,-3.1756,-3.1756,-3.15,-3.1115,-3.1115,-3.0808,-3.0404,-3.0404,-3.0135,-2.9813,-2.9813,-2.8986,-2.7871,-2.7448,-2.6717,-2.6,-2.6,-2.6,-2.5904,-2.5423,-2.5308,-2.5308,-2.5308,-2.5308,-2.5308,-2.5308,-2.5308,-2.5423,-2.5904,-2.6,-2.6154,-2.6621,-2.7044,-2.7178,-2.6774,-2.7044,-2.7005,-2.6135,-2.6,0.0,-2.5365,-2.5654,-2.5923,-2.6,-2.5942,-2.6308,-2.7294,-2.7332,0.0,-2.8615,-2.9038,-2.9615,-3.0385,-3.0396,-3.0394,-3.0398,-2.8846,-2.7147,-2.5307,-2.5307,-2.5302,-2.5292,-2.5441,-2.5432,-2.5303,-2.5429,-2.5573,-2.5707,-2.5707,-2.5704,-2.5708,-2.5708,-2.5673,-2.5651,-2.5619,-2.5554,-2.551,-2.6887,-2.7416,-2.7973,-2.8547,-2.8654,-2.8688,-2.8807,-2.8824,-2.8824,-2.8824,-2.8722,-2.8708,-2.8816,-2.944,-2.9609,-2.9037,-2.9942,-3.0671,-3.1023,-3.1035,-3.1035,-3.1035,-3.1035,-3.115,-3.1374,-3.1348,-3.1633,-3.2241,-3.2466,-3.2613,-3.2718,-3.2718,-3.2641,-3.2526,-3.2526,-3.2141,-3.1506,-3.1506,-3.1077,-3.0404,-3.0404,-3.0404,-3.0385,-3.025,-3.0288,-3.0365,-3.0115,-2.9621,-2.9088,-2.8953,-2.789,-2.6601,-2.6601,-2.6,-2.5308,-2.5308,-2.5308,-2.5308,-2.5308,-2.5308,-2.5308,-2.5308,-2.5308,-2.5308,-2.5308,-2.5308,-2.5308,-2.5308,-2.5308,-2.5308,-2.5308,-2.5904,-2.6154,-2.5423,-2.5923,-2.6154,-2.5404,0.0,-2.5308,-2.5308,-2.5942,-2.6154,-2.5558,-2.6058,-2.6154,-2.5538,-2.6058,-2.6467,-2.6601,-2.7294,-2.8429,-2.9962,-3.0106,-2.9988,-2.9635,-2.6759,-2.5302,-2.5308,-2.5308,-2.5325,-2.5354,-2.5348,-2.5347,-2.5307,-2.5584,-2.5691,-2.5707,-2.5702,-2.57,-2.5708,-2.5702,-2.5672,-2.5621,-2.5676,-2.5629,-2.5537,-2.5552,-2.5975,-2.647,-2.6978,-2.7063,-2.7266,-2.7891,-2.7993,-2.7993,-2.7993,-2.7435,-2.7331,-2.7987,-2.8179,-2.8469,-2.8968,-2.9162,-2.9313,-2.9372,-2.9372,-2.9372,-2.9372,-2.9372,-2.9395,-2.9423,-3.0501,-3.1523,-3.2447,-3.2718,-3.2519,-3.1891,-3.1891,-3.1481,-3.0788,-3.0788,-3.0712,-3.0596,-3.0596,-3.0519,-3.0404,-3.0404,-3.0404,-3.0327,-2.9583,-2.9756,-3.0212,-2.8794,-2.8646,-2.8992,-2.8319,-2.7428,-2.6601,-2.6601,-2.6,-2.5308,-2.5308,-2.5308,-2.5308,-2.5308,-2.5308,-2.5308,-2.5308,-2.5308,-2.5308,-2.5308,-2.5308,-2.5308,-2.5308,-2.5308,-2.5308,-2.5308,-2.5404,-2.5462,-2.5327,-2.5404,-2.5442,-2.5327,0.0,-2.5308,-2.5308,-2.5423,-2.5731,-2.6346,-2.5846,-2.575,-2.6346,-2.5846,-2.5827,-2.6563,-2.6736,-2.7255,-2.8255,-2.8739,-2.8035,-2.6114,-2.5566,-2.5302,-2.5308,-2.5292,-2.5418,-2.5631,-2.5637,-2.5505,-2.5308,-2.5576,-2.5709,-2.5703,-2.5703,-2.5703,-2.5703,-2.5703,-2.5683,-2.5681,-2.5702,-2.5682,-2.5662,-2.4403,-2.4826,-2.5262,-2.5491,-2.5523,-2.5761,-2.6488,-2.6285,-2.6167,-2.6556,-2.5964,-2.5743,-2.6277,-2.65,-2.6996,-2.7955,-2.8235,-2.8528,-2.8968,-2.9005,-2.9005,-2.9005,-2.9005,-2.9067,-2.9203,-3.0179,-3.0822,-3.1142,-3.1418,-3.1365,-3.1,-3.1,-3.0788,-3.0404,-3.0404,-3.0135,-2.9698,-2.9698,-2.9698,-2.9698,-2.9698,-2.9987,-3.0308,-2.9429,-2.9357,-2.9544,-2.8332,-2.7838,-2.7698,-2.7313,-2.6621,-2.5904,-2.5904,-2.5615,-2.5308,-2.5308,-2.5308,-2.5308,-2.5308,-2.5308,-2.5308,-2.5308,-2.5308,-2.5308,-2.5308,-2.5308,-2.5308,-2.5308,-2.5308,-2.5308,-2.5308,-2.5308,-2.5308,-2.5308,-2.5308,0.0,0.0,-2.5308,-2.5308,-2.5308,-2.5308,-2.5462,-2.5865,-2.5538,-2.5462,-2.5865,-2.5538,-2.5481,-2.5885,-2.5904,-2.6077,-2.6486,-2.7343,-2.6972,-2.5326,-2.5364,-2.54,-2.5404,-2.5415,-2.5518,-2.5695,-2.571,-2.5636,-2.5522,-2.5647,-2.5694,-2.5703,-2.5703,-2.5703,-2.5703,-2.5703,-2.5703,-2.5703,-2.5703,-2.5703,-2.5625,-2.3687,-2.3881,-2.4148,-2.4441,-2.4355,-2.4491,-2.5236,-2.4863,-2.4694,-2.527,-2.4908,-2.4729,-2.5073,-2.542,-2.5999,-2.6977,-2.7342,-2.7787,-2.84,-2.8436,-2.8601,-2.8987,-2.9055,-2.9143,-2.9251,-2.9751,-2.9864,-2.9516,-2.9729,-2.9827,-2.9827,-2.9827,-2.9827,-2.9827,-2.9827,-2.9448,-2.8819,-2.8819,-2.8819,-2.8819,-2.8819,-2.9217,-2.9712,-2.8852,-2.8646,-2.8684,-2.7659,-2.7005,-2.6563,-2.637,-2.5846,-2.5308,-2.5308,-2.5308,-2.5308,-2.5308,-2.5308,-2.5308,-2.5308,-2.5308,-2.5308,-2.5308,-2.5308,-2.5308,-2.5308,-2.5308,-2.5308,-2.5308,-2.5308,-2.5308,-2.5308,-2.5308,-2.5308,-2.5308,0.0,0.0,0.0,-2.5308,-2.5308,-2.5308,-2.5308,-2.5308,-2.5308,-2.5308,-2.5308,-2.5308,-2.5308,-2.5308,-2.5308,-2.5308,-2.5303,-2.5312,-2.6188,-2.6227,-2.5351,-2.5453,-2.5538,-2.5554,-2.5539,-2.5591,-2.5698,-2.5697,-2.5701,-2.5703,-2.5696,-2.5698,-2.5703,-2.5703,-2.5703,-2.5703,-2.5703,-2.5703,-2.5703,-2.5703,-2.5703,-2.5586,-2.362,-2.3178,-2.3107,-2.4278,-2.3932,-2.3729,-2.4474,-2.4525,-2.4508,-2.4575,-2.481,-2.5101,-2.5416,-2.5766,-2.6151,-2.6603,-2.6664,-2.6712,-2.6767,-2.6767,-2.7446,-2.8932,-2.9235,-2.9214,-2.885,-2.8881,-2.8638,-2.8047,-2.8077,-2.8082,-2.8082,-2.8082,-2.8082,-2.8082,-2.8082,-2.8049,-2.7992,-2.7992,-2.7992,-2.7992,-2.7992,-2.803,-2.7986,-2.7121,-2.7294,-2.7775,-2.6096,-2.5962,-2.6486,-2.5673,-2.5346,-2.5308,-2.5308,-2.5308,-2.5308,-2.5308,-2.5308,-2.5308,-2.5308,-2.5308,-2.5308,-2.5308,-2.5308,-2.5308,-2.5308,-2.5308,-2.5308,-2.5308,-2.5308,-2.5308,-2.5308,-2.5308,-2.5308,-2.5308,0.0,0.0,-2.5308,-2.5308,-2.5308,-2.5308,-2.5308,-2.5308,-2.5308,-2.5308,-2.5308,-2.5308,-2.5308,-2.5308,-2.5308,-2.5308,-2.5326,-2.5398,-2.5538,-2.5573,-2.5488,-2.5562,-2.562,-2.5681,-2.5618,-2.5638,-2.5701,-2.5699,-2.5703,-2.5703,-2.5703,-2.5703,-2.5703,-2.5703,-2.5703,-2.5703,-2.5703,-2.5703,-2.5703,-2.5703,-2.5703,-2.5586,-2.2792,-2.2605,-2.258,-2.3059,-2.2902,-2.297,-2.3712,-2.3427,-2.3379,-2.4036,-2.3812,-2.3789,-2.4319,-2.4498,-2.4922,-2.5784,-2.587,-2.6062,-2.6576,-2.6602,-2.6859,-2.7482,-2.7848,-2.7957,-2.7813,-2.8083,-2.8123,-2.7895,-2.7895,-2.7895,-2.7895,-2.7895,-2.7895,-2.7895,-2.7895,-2.7601,-2.7082,-2.7082,-2.7082,-2.7082,-2.7082,-2.7409,-2.7799,-2.6928,-2.6813,-2.6948,-2.5731,-2.5519,-2.5731,-2.5404,-2.5308,-2.5308,-2.5308,-2.5308,-2.5308,-2.5308,-2.5308,-2.5308,-2.5308,-2.5308,-2.5308,-2.5308,-2.5308,-2.5308,-2.5308,-2.5308,-2.5308,-2.5308,-2.5308,-2.5308,-2.5308,-2.5308,-2.5308,-2.5308,0.0,-2.5308,-2.5308,-2.5308,-2.5308,-2.5308,-2.5308,-2.5308,-2.5308,-2.5308,-2.5308,-2.5308,-2.5308,-2.5322,-2.5354,-2.5406,-2.5438,-2.5451,-2.5532,-2.5532,-2.5507,-2.5574,-2.5619,-2.5639,-2.5652,-2.568,-2.57,-2.5703,-2.5703,-2.5703,-2.5703,-2.5703,-2.5703,-2.5703,-2.5703,-2.5703,-2.5703,-2.5703,-2.5625,-2.5098,-2.4883,-2.4707,-2.2296,-2.2296,-2.2296,-2.2296,-2.2296,-2.2465,-2.2987,-2.2697,-2.2692,-2.3434,-2.3222,-2.3189,-2.366,-2.3795,-2.4166,-2.4951,-2.5026,-2.5264,-2.5805,-2.5913,-2.6177,-2.6764,-2.7058,-2.7146,-2.7006,-2.7322,-2.7351,-2.7082,-2.7082,-2.7082,-2.7082,-2.7082,-2.7082,-2.7082,-2.7082,-2.6755,-2.6192,-2.6192,-2.6198,-2.6217,-2.6217,-2.6587,-2.7082,-2.6483,-2.6251,-2.6174,-2.5575,-2.5363,-2.5363,-2.5363,-2.5363,-2.5363,-2.5363,-2.5363,-2.5363,-2.5363,-2.5361,-2.533,-2.5326,-2.5317,-2.5308,-2.5308,-2.5308,-2.5308,-2.5308,-2.5308,-2.5308,-2.5308,-2.5308,-2.5308,-2.5308,-2.5308,-2.5308,-2.5308,-2.5308,-2.5308,-2.5308,-2.5308,-2.5308,-2.5308,-2.5308,-2.5308,-2.5308,-2.5308,-2.5308,-2.5308,-2.5327,-2.5363,-2.5421,-2.5482,-2.552,-2.5537,-2.5588,-2.5595,-2.5561,-2.5605,-2.5633,-2.5633,-2.5682,-2.5703,-2.5703,-2.5703,-2.5703,-2.5703,-2.5703,-2.5703,-2.5703,-2.5703,-2.5547,-2.5291,-2.5293,-2.5116,-2.4779,-2.4197,-2.3981,-2.3763,-2.2296,-2.2296,-2.2296,-2.2296,-2.2296,-2.231,-2.231,-2.2541,-2.2708,-2.2708,-2.3288,-2.3703,-2.3703,-2.3996,-2.419,-2.419,-2.419,-2.419,-2.4199,-2.4393,-2.5294,-2.7102,-2.7185,-2.7006,-2.6591,-2.6601,-2.6173,-2.5308,-2.5308,-2.5308,-2.5308,-2.5308,-2.5308,-2.5308,-2.5308,-2.5308,-2.5308,-2.5308,-2.5348,-2.5394,-2.5394,-2.5447,-2.5491,-2.5491,-2.5491,-2.5491,-2.5491,-2.5491,-2.5491,-2.5491,-2.5491,-2.5491,-2.5491,-2.5491,-2.5491,-2.5491,-2.544,-2.539,-2.5402,-2.5342,-2.5308,-2.5308,-2.5308,-2.5308,-2.5308,-2.5308,-2.5308,-2.5308,-2.5308,-2.5308,-2.5308,-2.5308,-2.5308,-2.5308,-2.5308,-2.5308,-2.5308,-2.5308,-2.5308,-2.5308,-2.5308,-2.5308,-2.5308,-2.5308,-2.5308,-2.5308,-2.5352,-2.5434,-2.5508,-2.5493,-2.5539,-2.5601,-2.5602,-2.5634,-2.5703,-2.5703,-2.5703,-2.5703,-2.5703,-2.5703,-2.5703,-2.5703,-2.5703,-2.5703,-2.5703,-2.5703,-2.5703,-2.5684,-2.5173,-2.4399,-2.4393,-2.3816,-2.3001,-2.3078,-2.305,-2.2865,-2.2296,-2.2296,-2.2296,-2.2296,-2.245,-2.2573,-2.2573,-2.2853,-2.3129,-2.3369,-2.3577,-2.3795,-2.4034,-2.4151,-2.419,-2.419,-2.419,-2.4266,-2.4401,-2.4591,-2.4985,-2.5621,-2.5665,-2.5603,-2.5476,-2.5627,-2.5558,-2.5308,-2.5308,-2.5308,-2.5308,-2.5308,-2.5308,-2.5308,-2.5308,-2.5321,-2.5364,-2.5364,-2.5401,-2.546,-2.546,-2.5473,-2.5491,-2.5491,-2.5491,-2.5491,-2.5491,-2.5491,-2.5491,-2.5491,-2.5491,-2.5491,-2.5491,-2.5491,-2.5491,-2.5491,-2.5498,-2.546,-2.5477,-2.5459,-2.5411,-2.5312,-2.5308,-2.5308,-2.5308,-2.5308,-2.5308,-2.5308,-2.5308,-2.5308,-2.5308,-2.5308,-2.5308,-2.5308,-2.5308,-2.5308,-2.5308,-2.5308,-2.5308,-2.5308,-2.5329,-2.5379,-2.5371,-2.5404,-2.5441,-2.5441,-2.5493,-2.5552,-2.5564,-2.5607,-2.5658,-2.5662,-2.5662,-2.5683,-2.5703,-2.5703,-2.5703,-2.5703,-2.5703,-2.5703,-2.5703,-2.5703,-2.5662,-2.5633,-2.5633,-2.5603,-2.552,-2.4958,-2.4563,-2.4261,-2.3652,-2.3254,-2.2939,-2.2346,-2.2107,-2.1979,-2.2296,-2.2296,-2.2296,-2.2296,-2.2527,-2.2708,-2.2708,-2.3093,-2.3459,-2.3671,-2.3816,-2.3958,-2.418,-2.419,-2.419,-2.419,-2.4266,-2.441,-2.4599,-2.4785,-2.4949,-2.5105,-2.5111,-2.5111,-2.5111,-2.5248,-2.5308,-2.5308,-2.5308,-2.5308,-2.5308,-2.5308,-2.5313,-2.5339,-2.5339,-2.5387,-2.5444,-2.5444,-2.549,-2.5545,-2.5545,-2.5556,-2.557,-2.557,-2.557,-2.557,-2.557,-2.557,-2.557,-2.557,-2.557,-2.557,-2.557,-2.557,-2.557,-2.557,-2.5559,-2.5545,-2.5545,-2.5273,-2.496,-2.4891,-2.5116,-2.5372,-2.5372,-2.5372,-2.5372,-2.5372,-2.5372,-2.5372,-2.5372,-2.5372,-2.5372,-2.5372,-2.5372,-2.5372,-2.5372,-2.5372,-2.5372,-2.5372,-2.5411,-2.5444,-2.5438,-2.5485,-2.55,-2.5543,-2.559,-2.5606,-2.5636,-2.5682,-2.5703,-2.5703,-2.5703,-2.5703,-2.5703,-2.5662,-2.5662,-2.5703,-2.5662,-2.566,-2.566,-2.5634,-2.5601,-2.5559,-2.5559,-2.5543,-2.5433,-2.4622,-2.4085,-2.3655,-2.2827,-2.2265,-2.187,-2.1347,-2.1143,-2.1067,-2.2296,-2.2296,-2.231,-2.2335,-2.2563,-2.2759,-2.2784,-2.3335,-2.3735,-2.3735,-2.4006,-2.419,-2.419,-2.419,-2.4199,-2.4228,-2.4418,-2.4631,-2.4818,-2.4956,-2.5105,-2.5284,-2.5308,-2.5308,-2.5308,-2.5308,-2.5308,-2.5308,-2.5317,-2.5303,-2.5303,-2.5317,-2.5342,-2.5413,-2.5413,-2.5447,-2.552,-2.552,-2.5551,-2.5605,-2.5605,-2.5657,-2.5703,-2.5703,-2.5703,-2.5703,-2.5703,-2.5703,-2.5703,-2.5703,-2.5703,-2.5703,-2.5703,-2.5703,-2.5684,-2.5605,-2.5542,-2.5488,-2.5391,-2.476,-2.4116,-2.4097,-2.4704,-2.5288,-2.5279,-2.5335,-2.5374,-2.5374,-2.5452,-2.5491,-2.5491,-2.5491,-2.5491,-2.5491,-2.5491,-2.5491,-2.5491,-2.5491,-2.5491,-2.5491,-2.5515,-2.552,-2.552,-2.5505,-2.5547,-2.5603,-2.5605,-2.5635,-2.5703,-2.5703,-2.5703,-2.5703,-2.5683,-2.5683,-2.5683,-2.5611,-2.5611,-2.5683,-2.5611,-2.5597,-2.5595,-2.5535,-2.5508,-2.5481,-2.5425,-2.5384,-2.532,-2.4411,-2.3542,-2.2685,-2.1898,-2.1047,-2.03,-2.0308,-2.0308,-2.03,-2.2296,-2.2296,-2.2377,-2.259,-2.2873,-2.3177,-2.3437,-2.3827,-2.4094,-2.4094,-2.4161,-2.419,-2.419,-2.419,-2.4257,-2.4428,-2.4704,-2.4911,-2.4949,-2.5135,-2.5259,-2.5303,-2.5308,-2.5308,-2.5308,-2.5308,-2.5308,-2.5308,-2.535,-2.5372,-2.5387,-2.5431,-2.5451,-2.5488,-2.5488,-2.5524,-2.557,-2.557,-2.5628,-2.5682,-2.5682,-2.5683,-2.5703,-2.5703,-2.5703,-2.5703,-2.5703,-2.5703,-2.5703,-2.5703,-2.5703,-2.5703,-2.5703,-2.5703,-2.5566,-2.4883,-2.4668,-2.451,-2.3827,-2.3532,-2.3393,-2.3354,-2.3511,-2.3679,-2.3573,-2.402,-2.4472,-2.4472,-2.5022,-2.5491,-2.5491,-2.5491,-2.5491,-2.5491,-2.5491,-2.5491,-2.5491,-2.5491,-2.5491,-2.5491,-2.5549,-2.557,-2.557,-2.5632,-2.5661,-2.5682,-2.5682,-2.5683,-2.5703,-2.5703,-2.5703,-2.5703,-2.5658,-2.561,-2.561,-2.5556,-2.5556,-2.563,-2.5554,-2.5511,-2.5509,-2.5517,-2.5479,-2.5395,-2.4762,-2.4453,-2.4284,-2.274,-2.1991,-2.1718,-2.0911,-2.0484,-2.0292,-2.0296,-2.0308,-2.0281,-2.2409,-2.2487,-2.259,-2.2885,-2.323,-2.3511,-2.3671,-2.3986,-2.419,-2.419,-2.4275,-2.4339,-2.4339,-2.4436,-2.436,-2.4045,-2.3891,-2.381,-2.381,-2.4373,-2.4736,-2.4736,-2.5096,-2.5308,-2.5308,-2.5326,-2.5357,-2.5342,-2.5411,-2.5453,-2.545,-2.5473,-2.5526,-2.5551,-2.5551,-2.5575,-2.5657,-2.5657,-2.5661,-2.5703,-2.5703,-2.5703,-2.5703,-2.5703,-2.5703,-2.5703,-2.5703,-2.5703,-2.5703,-2.5703,-2.543,-2.5078,-2.5078,-2.4824,-2.4414,-2.3965,-2.3828,-2.373,-2.3262,-2.2871,-2.2578,-2.2539,-2.2246,-2.2167,-2.2928,-2.3409,-2.3781,-2.421,-2.466,-2.5091,-2.5521,-2.5599,-2.5599,-2.5599,-2.5599,-2.5599,-2.5599,-2.5599,-2.5599,-2.5599,-2.5632,-2.5657,-2.5657,-2.5683,-2.5703,-2.5703,-2.5703,-2.5683,-2.5659,-2.5658,-2.5635,-2.5604,-2.5566,-2.5554,-2.5554,-2.5498,-2.546,-2.5496,-2.5479,-2.544,-2.5459,-2.5415,-2.5379,-2.5322,-2.4811,-2.4332,-2.385,-2.2462,-2.1653,-2.1224,-2.0394,-2.0069,-2.0069,-2.0069,-2.0069,-2.005,-2.2205,-2.2389,-2.2489,-2.2822,-2.3117,-2.3316,-2.3358,-2.3626,-2.3814,-2.3814,-2.3992,-2.4107,-2.4107,-2.4283,-2.4114,-2.3395,-2.2846,-2.2555,-2.2555,-2.353,-2.4122,-2.4122,-2.4902,-2.5335,-2.5335,-2.5402,-2.5415,-2.5409,-2.5488,-2.5526,-2.5526,-2.5537,-2.5561,-2.5628,-2.5628,-2.5658,-2.5703,-2.5703,-2.5703,-2.5703,-2.5703,-2.5703,-2.5703,-2.5703,-2.5703,-2.5703,-2.5703,-2.5703,-2.5703,-2.5703,-2.5117,-2.4394,-2.4394,-2.3848,-2.3164,-2.3027,-2.2988,-2.2949,-2.2773,-2.2207,-2.1659,-2.1658,-2.1092,-2.0935,-2.2381,-2.2812,-2.3105,-2.3828,-2.4082,-2.4414,-2.5117,-2.5371,-2.5488,-2.5488,-2.5605,-2.5703,-2.5703,-2.5703,-2.5703,-2.5703,-2.5703,-2.5703,-2.5703,-2.5683,-2.5683,-2.5683,-2.5662,-2.5636,-2.5594,-2.5573,-2.5558,-2.5493,-2.5498,-2.5473,-2.5473,-2.5411,-2.5376,-2.5321,-2.5321,-2.5321,-2.5336,-2.5269,-2.5243,-2.5192,-2.4883,-2.4364,-2.3679,-2.2697,-2.1809,-2.1003,-2.0287,-1.9922,-1.979,-1.979,-1.9792,-1.975,-2.1029,-2.1064,-2.117,-2.1496,-2.1586,-2.1712,-2.1999,-2.2181,-2.2304,-2.2304,-2.241,-2.2506,-2.2506,-2.2685,-2.2749,-2.2654,-2.2704,-2.2771,-2.2771,-2.3655,-2.4198,-2.4198,-2.5004,-2.5463,-2.5463,-2.5543,-2.5522,-2.5402,-2.5531,-2.5594,-2.5595,-2.5657,-2.5682,-2.5683,-2.5683,-2.5683,-2.5703,-2.5703,-2.5703,-2.5703,-2.5703,-2.5703,-2.5703,-2.5703,-2.5703,-2.5703,-2.5703,-2.5703,-2.5703,-2.5703,-2.5117,-2.4394,-2.4394,-2.3809,-2.2988,-2.2285,-2.207,-2.1894,-2.1084,-2.0786,-2.0683,-2.0615,-2.0508,-2.0487,-2.0722,-2.1432,-2.2109,-2.2207,-2.2832,-2.3379,-2.3437,-2.4062,-2.457,-2.457,-2.5215,-2.5703,-2.5703,-2.5703,-2.5703,-2.5703,-2.5703,-2.5703,-2.5703,-2.5657,-2.5607,-2.5607,-2.5559,-2.5511,-2.5505,-2.5503,-2.552,-2.5491,-2.5444,-2.542,-2.542,-2.5357,-2.5225,-2.505,-2.505,-2.505,-2.505,-2.5046,-2.4981,-2.4818,-2.4032,-2.364,-2.3464,-2.2587,-2.1732,-2.1004,-2.0891,-2.0407,-1.979,-1.979,-1.9719,-1.9623,-2.0973,-2.1082,-2.1191,-2.1516,-2.1589,-2.1625,-2.1777,-2.1916,-2.2009,-2.2009,-2.2214,-2.2381,-2.2381,-2.2111,-2.1934,-2.1934,-2.1621,-2.1392,-2.1392,-2.2287,-2.2793,-2.2793,-2.3638,-2.41,-2.41,-2.4174,-2.4177,-2.4127,-2.5155,-2.5405,-2.4937,-2.5468,-2.5703,-2.5684,-2.5195,-2.5234,-2.5644,-2.4668,-2.4531,-2.4922,-2.4473,-2.4277,-2.4258,-2.4297,-2.457,-2.4961,-2.4961,-2.4668,-2.4258,-2.4255,-2.369,-2.2988,-2.2916,-2.2311,-2.1575,-2.1172,-2.105,-2.097,-2.0563,-2.044,-2.0435,-2.0414,-2.0408,-2.0408,-2.0408,-2.0735,-2.1207,-2.1696,-2.2086,-2.2497,-2.2966,-2.3765,-2.4349,-2.4349,-2.5031,-2.5595,-2.5595,-2.5595,-2.5595,-2.5595,-2.5595,-2.5595,-2.5595,-2.5559,-2.5549,-2.5549,-2.5415,-2.5369,-2.5444,-2.5343,-2.5313,-2.5387,-2.5259,-2.5173,-2.5173,-2.5071,-2.4975,-2.4884,-2.4884,-2.4884,-2.4884,-2.4884,-2.4862,-2.4778,-2.4276,-2.3802,-2.3315,-2.2364,-2.177,-2.1358,-2.0417,-1.9759,-1.9328,-1.9178,-1.9093,-1.9048]},{"header":{"parameterUnit":"m.s-1","parameterCategory":1,"la1":30.6,"la2":28.766,"lo1":-90.7593,"lo2":-88.6598,"dy":0.0162,"dx":0.0183,"nx":116,"ny":114,"refTime":"2023-07-19T12:00:00:Z","depth":0,"parameterNumber":3,"parameterNumberName":"V-component_of_WINDS"},"data":[0.0,0.0,0.0,0.0,0.0,0.0,0.0,0.0,0.0,0.0,0.0,0.0,0.0,0.0,0.0,0.0,0.0,0.0,0.0,0.0,0.0,0.0,0.0,0.0,0.0,0.0,0.0,0.0,0.0,0.0,0.0,0.0,0.0,0.0,0.0,0.0,0.0,0.0,0.0,0.0,0.0,0.0,0.0,0.0,0.0,0.0,0.0,0.0,0.0,0.0,0.0,0.0,0.0,0.0,0.0,0.0,0.0,0.0,0.0,0.0,0.0,0.0,0.0,0.0,0.0,0.0,0.0,0.0,0.0,0.0,0.0,0.0,0.0,0.0,0.0,0.0,0.0,0.0,0.0,0.0,0.0,0.0,0.0,0.0,0.0,0.0,0.0,0.0,0.0,0.0,0.0,0.0,0.0,0.0,0.0,0.0,0.0,0.0,0.0,0.0,0.0,0.0,0.0,0.0,0.0,0.0,0.0,0.0,0.0,0.0,0.0,0.0,0.0,0.0,0.0,0.0,0.0,0.0,0.0,0.0,0.0,0.0,0.0,0.0,0.0,0.0,0.0,0.0,0.0,0.0,0.0,0.0,0.0,0.0,0.0,0.0,0.0,0.0,0.0,0.0,0.0,0.0,0.0,0.0,0.0,0.0,0.0,0.0,0.0,0.0,0.0,0.0,0.0,0.0,0.0,0.0,0.0,0.0,0.0,0.0,0.0,0.0,0.0,0.0,0.0,0.0,0.0,0.0,0.0,0.0,0.0,0.0,0.0,0.0,0.0,0.0,0.0,0.0,0.0,0.0,0.0,0.0,0.0,0.0,0.0,0.0,0.0,0.0,0.0,0.0,0.0,0.0,0.0,0.0,0.0,0.0,0.0,0.0,0.0,0.0,0.0,0.0,0.0,0.0,0.0,0.0,0.0,0.0,0.0,0.0,0.0,0.0,0.0,0.0,0.0,0.0,0.0,0.0,0.0,0.0,0.0,0.0,0.0,0.0,0.0,0.0,0.0,0.0,0.0,0.0,0.0,0.0,0.0,0.0,0.0,0.0,0.0,0.0,0.0,0.0,0.0,0.0,0.0,0.0,0.0,0.0,0.0,0.0,0.0,0.0,0.0,0.0,0.0,0.0,0.0,0.0,0.0,0.0,0.0,0.0,0.0,0.0,0.0,0.0,0.0,0.0,0.0,0.0,0.0,0.0,0.0,0.0,0.0,0.0,0.0,0.0,0.0,0.0,0.0,0.0,0.0,0.0,0.0,0.0,0.0,0.0,0.0,0.0,0.0,0.0,0.0,0.0,0.0,0.0,0.0,0.0,0.0,0.0,0.0,0.0,0.0,0.0,0.0,0.0,0.0,0.0,0.0,0.0,0.0,0.0,0.0,0.0,0.0,0.0,0.0,0.0,0.0,0.0,0.0,0.0,0.0,0.0,0.0,0.0,0.0,0.0,0.0,0.0,0.0,0.0,0.0,0.0,0.0,0.0,0.0,0.0,0.0,0.0,0.0,0.0,0.0,0.0,0.0,0.0,0.0,0.0,0.0,0.0,0.0,0.0,0.0,0.0,0.0,0.0,0.0,0.0,0.0,0.0,0.0,0.0,0.0,0.0,0.0,0.0,0.0,0.0,0.0,0.0,0.0,0.0,0.0,0.0,0.0,0.0,0.0,0.0,0.0,0.0,0.0,0.0,0.0,0.0,0.0,0.0,0.0,0.0,0.0,0.0,0.0,0.0,0.0,0.0,0.0,0.0,0.0,0.0,0.0,0.0,0.0,0.0,0.0,0.0,0.0,0.0,0.0,0.0,0.0,0.0,0.0,0.0,0.0,0.0,0.0,0.0,0.0,0.0,0.0,0.0,0.0,0.0,0.0,0.0,0.0,0.0,0.0,0.0,0.0,0.0,0.0,0.0,0.0,0.0,0.0,0.0,0.0,0.0,0.0,0.0,0.0,0.0,0.0,0.0,0.0,0.0,0.0,0.0,0.0,0.0,0.0,0.0,0.0,0.0,0.0,0.0,0.0,0.0,0.0,0.0,0.0,0.0,0.0,0.0,0.0,0.0,0.0,0.0,0.0,0.0,0.0,0.0,0.0,0.0,0.0,0.0,0.0,0.0,0.0,0.0,0.0,0.0,0.0,0.0,0.0,0.0,0.0,0.0,0.0,0.0,0.0,0.0,0.0,0.0,0.0,0.0,0.0,0.0,0.0,0.0,0.0,0.0,0.0,0.0,0.0,0.0,0.0,0.0,0.0,0.0,0.0,0.0,0.0,0.0,0.0,0.0,0.0,0.0,0.0,0.0,0.0,0.0,0.0,0.0,0.0,0.0,0.0,0.0,0.0,0.0,0.0,0.0,0.0,0.0,0.0,0.0,0.0,0.0,0.0,0.0,0.0,0.0,0.0,0.0,0.0,0.0,0.0,0.0,0.0,0.0,0.0,0.0,0.0,0.0,0.0,0.0,0.0,0.0,0.0,0.0,0.0,0.0,0.0,0.0,0.0,0.0,0.0,0.0,0.0,0.0,0.0,0.0,0.0,0.0,0.0,0.0,0.0,0.0,0.0,0.0,0.0,0.0,0.0,0.0,0.0,0.0,0.0,0.0,0.0,0.0,0.0,0.0,0.0,0.0,0.0,0.0,0.0,0.0,0.0,0.0,0.0,0.0,0.0,0.0,0.0,0.0,0.0,0.0,0.0,0.0,0.0,0.0,0.0,0.0,0.0,0.0,0.0,0.0,0.0,0.0,0.0,0.0,0.0,0.0,0.0,0.0,0.0,0.0,0.0,0.0,0.0,0.0,0.0,0.0,0.0,0.0,0.0,0.0,0.0,0.0,0.0,0.0,0.0,0.0,0.0,0.0,0.0,0.0,0.0,0.0,0.0,0.0,0.0,0.0,0.0,0.0,0.0,0.0,0.0,0.0,0.0,0.0,0.0,0.0,0.0,0.0,0.0,0.0,0.0,0.0,0.0,0.0,0.0,0.0,0.0,0.0,0.0,0.0,0.0,0.0,0.0,0.0,0.0,0.0,0.0,0.0,0.0,0.0,0.0,0.0,0.0,0.0,0.0,0.0,0.0,0.0,0.0,0.0,0.0,0.0,0.0,0.0,0.0,0.0,0.0,0.0,0.0,0.0,0.0,0.0,0.0,0.0,0.0,0.0,0.0,0.0,0.0,0.0,0.0,0.0,0.0,0.0,0.0,0.0,0.0,0.0,0.0,0.0,0.0,0.0,0.0,0.0,0.0,0.0,0.0,0.0,0.0,0.0,0.0,0.0,0.0,0.0,0.0,0.0,0.0,0.0,0.0,0.0,0.0,0.0,0.0,0.0,0.0,0.0,0.0,0.0,0.0,0.0,0.0,0.0,0.0,0.0,0.0,0.0,0.0,0.0,0.0,0.0,0.0,0.0,0.0,0.0,0.0,0.0,0.0,0.0,0.0,0.0,0.0,0.0,0.0,0.0,0.0,0.0,0.0,0.0,0.0,0.0,0.0,0.0,0.0,0.0,0.0,0.0,0.0,0.0,0.0,0.0,0.0,0.0,0.0,0.0,0.0,0.0,0.0,0.0,0.0,0.0,0.0,0.0,0.0,0.0,0.0,0.0,0.0,0.0,0.0,0.0,0.0,0.0,0.0,0.0,0.0,0.0,0.0,0.0,0.0,0.0,0.0,0.0,0.0,0.0,0.0,0.0,0.0,0.0,0.0,0.0,0.0,0.0,0.0,0.0,0.0,0.0,0.0,0.0,0.0,0.0,0.0,0.0,0.0,0.0,0.0,0.0,0.0,0.0,0.0,0.0,0.0,0.0,0.0,0.0,0.0,0.0,0.0,0.0,0.0,0.0,0.0,0.0,0.0,0.0,0.0,0.0,0.0,0.0,0.0,0.0,0.0,0.0,0.0,0.0,0.0,0.0,0.0,0.0,0.0,0.0,0.0,0.0,0.0,0.0,0.0,0.0,0.0,0.0,0.0,0.0,0.0,0.0,0.0,0.0,0.0,0.0,0.0,0.0,0.0,0.0,0.0,0.0,0.0,0.0,0.0,0.0,0.0,0.0,0.0,0.0,0.0,0.0,0.0,0.0,0.0,0.0,0.0,0.0,0.0,0.0,0.0,0.0,0.0,0.0,0.0,0.0,0.0,0.0,0.0,0.0,0.0,0.0,0.0,0.0,0.0,0.0,0.0,0.0,0.0,0.0,0.0,0.0,0.0,0.0,0.0,0.0,0.0,0.0,0.0,0.0,0.0,0.0,0.0,0.0,0.0,0.0,0.0,0.0,0.0,0.0,0.0,0.0,0.0,0.0,0.0,0.0,0.0,0.0,0.0,0.0,0.0,0.0,0.0,0.0,0.0,0.0,0.0,0.0,0.0,0.0,0.0,0.0,0.0,0.0,0.0,0.0,0.0,0.0,0.0,0.0,0.0,0.0,0.0,0.0,0.0,0.0,0.0,0.0,0.0,0.0,0.0,0.0,0.0,0.0,0.0,0.0,0.0,0.0,0.0,0.0,0.0,0.0,0.0,0.0,0.0,0.0,0.0,0.0,0.0,0.0,0.0,0.0,0.0,0.0,0.0,0.0,0.0,0.0,0.0,0.0,0.0,0.0,0.0,0.0,0.0,0.0,0.0,0.0,0.0,0.0,0.0,0.0,0.0,0.0,0.0,0.0,0.0,0.0,0.0,0.0,0.0,0.0,0.0,0.0,0.0,0.0,0.0,0.0,0.0,0.0,0.0,0.0,0.0,0.0,0.0,0.0,0.0,0.0,0.0,0.0,0.0,0.0,0.0,0.0,0.0,0.0,0.0,0.0,0.0,0.0,0.0,0.0,0.0,0.0,0.0,0.0,0.0,0.0,0.0,0.0,0.0,0.0,0.0,0.0,0.0,0.0,0.0,0.0,0.0,0.0,0.0,0.0,0.0,0.0,0.0,0.0,0.0,0.0,0.0,0.0,0.0,0.0,0.0,0.0,0.0,0.0,0.0,0.0,0.0,0.0,0.0,0.0,0.0,0.0,0.0,0.0,0.0,0.0,0.0,0.0,0.0,0.0,0.0,0.0,0.0,0.0,0.0,0.0,0.0,0.0,0.0,0.0,0.0,0.0,0.0,0.0,0.0,0.0,0.0,0.0,0.0,0.0,0.0,0.0,0.0,0.0,0.0,0.0,0.0,0.0,0.0,0.0,0.0,0.0,0.0,0.0,0.0,0.0,0.0,0.0,0.0,0.0,0.0,0.0,0.0,0.0,0.0,0.0,0.0,0.0,0.0,0.0,0.0,0.0,0.0,0.0,0.0,0.0,0.0,0.0,0.0,0.0,0.0,0.0,0.0,0.0,0.0,0.0,0.0,0.0,0.0,0.0,0.0,0.0,0.0,0.0,0.0,0.0,0.0,0.0,0.0,0.0,0.0,0.0,0.0,0.0,0.0,0.0,0.0,0.0,0.0,0.0,0.0,0.0,0.0,0.0,0.0,0.0,0.0,0.0,0.0,0.0,0.0,0.0,0.0,0.0,0.0,0.0,0.0,0.0,0.0,0.0,0.0,0.0,0.0,0.0,0.0,0.0,0.0,0.0,0.0,0.0,0.0,0.0,0.0,0.0,0.0,0.0,0.0,0.0,0.0,0.0,0.0,0.0,0.0,0.0,0.0,0.0,0.0,0.0,0.0,0.0,0.0,0.0,0.0,0.0,0.0,0.0,0.0,0.0,0.0,0.0,0.0,0.0,0.0,0.0,0.0,0.0,0.0,0.0,0.0,0.0,0.0,0.0,0.0,0.0,0.0,0.0,0.0,0.0,0.0,0.0,0.0,0.0,0.0,0.0,0.0,0.0,0.0,0.0,0.0,0.0,0.0,0.0,0.0,0.0,0.0,0.0,0.0,0.0,0.0,0.0,0.0,0.0,0.0,0.0,0.0,0.0,0.0,0.0,0.0,0.0,0.0,0.0,0.0,0.0,0.0,0.0,0.0,0.0,0.0,0.0,0.0,0.0,0.0,0.0,0.0,0.0,0.0,0.0,0.0,0.0,0.0,0.0,0.0,0.0,0.0,0.0,0.0,0.0,0.0,0.0,0.0,0.0,0.0,0.0,0.0,0.0,0.0,0.0,0.0,0.0,0.0,0.0,-1.7062,0.0,0.0,0.0,0.0,0.0,0.0,0.0,0.0,0.0,0.0,0.0,0.0,0.0,0.0,0.0,0.0,0.0,0.0,0.0,0.0,0.0,0.0,0.0,0.0,0.0,0.0,0.0,0.0,0.0,0.0,0.0,0.0,0.0,0.0,0.0,0.0,0.0,0.0,0.0,0.0,0.0,0.0,0.0,0.0,0.0,0.0,0.0,0.0,0.0,0.0,0.0,0.0,0.0,0.0,0.0,0.0,0.0,0.0,0.0,0.0,0.0,0.0,0.0,0.0,0.0,0.0,0.0,0.0,0.0,0.0,0.0,0.0,0.0,0.0,0.0,0.0,0.0,0.0,0.0,0.0,0.0,0.0,0.0,0.0,0.0,0.0,0.0,0.0,0.0,0.0,0.0,0.0,0.0,0.0,0.0,0.0,0.0,0.0,0.0,0.0,0.0,0.0,0.0,0.0,0.0,0.0,0.0,0.0,0.0,0.0,0.0,0.0,0.0,0.0,0.0,0.0,-1.7808,0.0,0.0,0.0,0.0,0.0,0.0,0.0,0.0,0.0,0.0,0.0,0.0,0.0,0.0,0.0,0.0,0.0,0.0,0.0,0.0,0.0,0.0,0.0,0.0,0.0,0.0,0.0,0.0,0.0,0.0,0.0,0.0,0.0,0.0,0.0,0.0,0.0,0.0,0.0,0.0,0.0,0.0,0.0,0.0,0.0,0.0,0.0,0.0,0.0,0.0,0.0,0.0,0.0,0.0,0.0,0.0,0.0,0.0,0.0,0.0,0.0,0.0,0.0,0.0,0.0,0.0,0.0,0.0,0.0,0.0,0.0,0.0,0.0,0.0,0.0,0.0,0.0,0.0,0.0,0.0,0.0,0.0,0.0,0.0,0.0,0.0,0.0,0.0,0.0,0.0,0.0,0.0,0.0,0.0,0.0,0.0,0.0,0.0,0.0,0.0,0.0,0.0,0.0,0.0,0.0,0.0,0.0,0.0,-1.9359,-1.9559,-1.9805,-1.9546,-1.9593,-1.9852,-1.9598,-1.9991,-2.0803,-2.0865,0.0,0.0,0.0,0.0,0.0,0.0,0.0,0.0,0.0,0.0,0.0,0.0,0.0,0.0,0.0,0.0,0.0,0.0,0.0,0.0,0.0,0.0,0.0,0.0,0.0,0.0,0.0,0.0,0.0,0.0,0.0,0.0,0.0,0.0,0.0,0.0,0.0,0.0,-1.0356,-1.1961,-1.2655,-1.2598,0.0,0.0,0.0,0.0,0.0,0.0,0.0,0.0,0.0,0.0,0.0,0.0,0.0,0.0,0.0,0.0,0.0,0.0,0.0,0.0,0.0,0.0,0.0,0.0,0.0,0.0,0.0,0.0,0.0,0.0,0.0,0.0,0.0,0.0,0.0,0.0,0.0,0.0,0.0,0.0,0.0,0.0,0.0,0.0,-1.5795,-1.671,0.0,0.0,0.0,0.0,0.0,0.0,0.0,0.0,0.0,0.0,0.0,0.0,0.0,-1.8402,-1.8705,-1.982,-2.0241,-2.0013,-2.1096,-2.147,-2.134,-2.1483,-2.1603,-2.1746,-2.2777,0.0,-2.1309,-2.1202,0.0,0.0,0.0,0.0,0.0,0.0,0.0,0.0,0.0,0.0,0.0,0.0,0.0,0.0,0.0,0.0,0.0,0.0,0.0,0.0,0.0,0.0,0.0,0.0,0.0,0.0,0.0,0.0,0.0,0.0,0.0,0.0,0.0,0.0,0.0,0.0,-0.8181,-0.9356,-0.9863,-1.2213,-1.3327,-1.3367,-1.4559,-1.5425,-1.6019,-1.6436,0.0,0.0,0.0,0.0,0.0,0.0,0.0,0.0,0.0,0.0,0.0,0.0,0.0,0.0,0.0,0.0,0.0,0.0,0.0,0.0,0.0,0.0,0.0,0.0,0.0,0.0,0.0,0.0,0.0,0.0,0.0,0.0,0.0,0.0,0.0,0.0,0.0,0.0,0.0,-1.539,-1.6542,-1.6402,-1.6785,-1.6746,0.0,0.0,0.0,0.0,0.0,0.0,0.0,0.0,0.0,-1.8766,-1.9057,-1.9526,-2.0147,-2.0828,-2.1269,-2.147,-2.1984,-2.2251,-2.2345,-2.2078,-2.2078,-2.2258,-2.3333,-2.3925,-2.4202,-2.421,-2.4814,-2.5713,0.0,0.0,0.0,0.0,-2.5162,-2.5628,0.0,0.0,0.0,0.0,0.0,0.0,0.0,0.0,0.0,0.0,0.0,0.0,0.0,0.0,0.0,-0.6249,0.0,0.0,0.0,0.0,0.0,0.0,0.0,0.0,0.0,0.0,0.0,0.0,-0.8329,-0.9199,-0.9154,-1.1609,-1.2942,-1.3343,-1.4652,-1.5915,-1.6995,-1.7165,-1.7247,0.0,0.0,0.0,0.0,0.0,0.0,0.0,0.0,0.0,0.0,0.0,0.0,0.0,0.0,0.0,0.0,0.0,0.0,0.0,0.0,0.0,0.0,0.0,0.0,0.0,0.0,0.0,0.0,0.0,0.0,0.0,0.0,0.0,0.0,0.0,0.0,0.0,0.0,-1.6529,-1.7397,-1.645,-1.7627,-1.7991,0.0,0.0,0.0,0.0,0.0,0.0,-1.8907,-1.8927,-1.9227,-1.992,-2.0207,-2.0708,-2.1436,-2.1737,-2.2104,-2.2532,-2.2452,-2.2532,-2.2732,-2.2218,-2.2104,-2.2398,-2.3728,-2.5108,-2.6409,-2.671,-2.7271,-2.7937,-2.7158,-2.6542,-2.6038,-2.6162,-2.6509,-2.6981,0.0,0.0,0.0,0.0,0.0,0.0,0.0,0.0,0.0,0.0,0.0,0.0,0.0,0.0,-0.5105,-0.4216,-0.3385,-0.2863,0.0,0.0,0.0,0.0,0.0,0.0,0.0,0.0,0.0,-0.5643,-0.705,-0.7846,-0.8107,-0.9195,-1.0389,-1.1659,-1.314,-1.5855,-1.9249,-1.8085,-1.8428,-1.9632,0.0,0.0,0.0,0.0,0.0,0.0,0.0,0.0,0.0,0.0,0.0,0.0,0.0,0.0,0.0,0.0,0.0,0.0,0.0,0.0,0.0,0.0,0.0,0.0,0.0,0.0,0.0,0.0,0.0,0.0,0.0,0.0,0.0,0.0,0.0,0.0,0.0,0.0,0.0,-1.7978,-1.9707,0.0,0.0,0.0,0.0,-1.8826,-1.9105,-1.9537,-2.0066,-2.012,-2.0506,-2.148,-2.1724,-2.2031,-2.2352,-2.2652,-2.2881,-2.2839,-2.2552,-2.2425,-2.2432,-2.2124,-2.1991,-2.2182,-2.5045,-2.631,-2.648,-2.7384,-2.8196,-2.8827,-2.8381,-2.7675,-2.6983,-2.7458,-2.7868,-2.8272,0.0,0.0,0.0,0.0,0.0,0.0,0.0,0.0,0.0,0.0,0.0,0.0,0.0,-0.4464,-0.4136,-0.3364,-0.3075,-0.2473,-0.129,0.0,0.0,0.0,0.0,0.0,0.0,0.0,-0.4253,-0.442,-0.5777,-0.6496,-0.663,-0.8601,-1.0158,-1.144,-1.2796,-1.5375,-1.8787,-1.8559,-1.9009,-1.9911,-2.0123,-1.9354,0.0,0.0,0.0,0.0,0.0,0.0,0.0,0.0,0.0,0.0,0.0,0.0,0.0,0.0,0.0,0.0,0.0,0.0,0.0,0.0,0.0,0.0,0.0,0.0,0.0,0.0,0.0,0.0,0.0,0.0,0.0,0.0,0.0,0.0,0.0,0.0,0.0,-1.9229,-2.0661,0.0,-2.0008,-2.0259,-2.0531,-2.062,-2.0941,-2.1225,-2.163,-2.1463,-2.159,-2.2091,-2.2031,-2.2124,-2.2412,-2.2338,-2.2298,-2.2298,-2.2191,-2.2138,-2.2131,-2.1837,-2.171,-2.1878,-2.4852,-2.6166,-2.6341,-2.8806,-2.9759,-2.9745,-2.9593,-2.9145,-2.8691,-2.8842,-2.8993,-2.9155,0.0,0.0,0.0,0.0,0.0,0.0,0.0,0.0,0.0,0.0,0.0,-0.4969,-0.3737,-0.3285,-0.2905,-0.2411,-0.1949,-0.1169,0.0032,0.0,0.0,0.0,0.0,0.0,0.0,-0.1916,-0.2744,-0.3204,-0.4478,-0.5354,-0.5763,-0.7305,-0.908,-1.0989,-1.1882,-1.4446,-1.8119,-1.844,-1.949,-2.0951,-2.1271,-2.0946,-2.03,0.0,0.0,0.0,0.0,0.0,0.0,0.0,0.0,0.0,0.0,0.0,0.0,0.0,0.0,0.0,0.0,0.0,0.0,0.0,0.0,0.0,0.0,0.0,0.0,0.0,0.0,0.0,0.0,0.0,0.0,0.0,0.0,0.0,0.0,-1.9424,-2.0694,-1.9872,-2.1556,-2.2293,-2.1146,-2.1628,-2.2058,-2.2154,-2.2441,-2.2632,-2.2719,-2.2545,-2.2478,-2.2565,-2.2385,-2.2325,-2.2418,-2.2225,-2.2084,-2.1984,-2.1884,-2.1844,-2.183,-2.1537,-2.1717,-2.2391,-2.4926,-2.6288,-2.7005,-2.9615,-3.0499,-3.019,-3.0219,-3.0065,-2.9815,-2.9671,-2.9622,-2.9571,0.0,0.0,0.0,0.0,0.0,0.0,0.0,0.0,0.0,0.0,-0.5466,-0.4368,-0.3632,-0.2168,-0.1253,-0.1221,0.0225,0.1155,0.1185,0.1869,0.0,0.0,0.0,0.0,0.1357,0.0282,-0.0801,-0.1901,-0.3105,-0.4313,-0.5468,-0.5196,-0.6892,-1.0085,-1.0283,-1.2997,-1.7422,-1.7788,-1.985,-2.2819,-2.1866,-2.2317,-2.3418,0.0,0.0,0.0,0.0,0.0,0.0,0.0,0.0,0.0,0.0,0.0,0.0,0.0,0.0,0.0,0.0,0.0,0.0,0.0,0.0,0.0,0.0,0.0,0.0,0.0,0.0,0.0,0.0,0.0,0.0,0.0,0.0,0.0,-1.8564,-2.031,-2.1227,-2.0059,-2.2454,-2.3524,-2.1889,-2.2959,-2.3674,-2.338,-2.3614,-2.3641,-2.334,-2.3313,-2.3166,-2.2859,-2.2908,-2.2692,-2.2392,-2.2378,-2.2238,-2.1957,-2.1735,-2.1601,-2.1594,-2.13,-2.209,-2.3683,-2.5298,-2.6927,-2.8473,-2.969,-3.0176,-3.0166,-3.0201,-3.0194,-3.0145,-2.9711,-2.9573,-2.9498,0.0,0.0,0.0,0.0,0.0,0.0,0.0,0.0,0.0,0.0,-0.4892,-0.3419,-0.2658,-0.1249,-0.015,0.0392,0.1324,0.2348,0.3412,0.0,0.0,0.0,0.0,0.0,0.2346,0.2093,0.1479,0.0403,-0.0763,-0.1853,-0.2888,-0.429,-0.5893,-0.765,-0.9004,-1.1709,-1.5377,-1.6084,-1.892,-2.2918,-2.3275,-2.3648,-2.405,0.0,0.0,0.0,0.0,0.0,0.0,0.0,0.0,0.0,0.0,0.0,0.0,0.0,0.0,0.0,0.0,0.0,0.0,0.0,0.0,0.0,0.0,0.0,0.0,0.0,0.0,0.0,0.0,0.0,0.0,0.0,-1.8161,-1.9345,-1.998,-2.1516,-2.2636,-2.296,-2.3905,-2.4382,-2.4135,-2.4282,-2.4275,-2.3981,-2.3841,-2.3641,-2.334,-2.3113,-2.2853,-2.2552,-2.2338,-2.2084,-2.1797,-2.1577,-2.143,-2.1349,-2.1269,-2.1229,-2.1293,-2.2383,-2.2952,-2.3276,-2.6083,-2.7355,-2.7561,-2.9145,-2.9736,-2.9736,-2.9773,-2.9748,-2.9737,-2.9633,-2.9391,-2.9019,0.0,0.0,0.0,0.0,0.0,0.0,0.0,0.0,0.0,0.0,-0.4933,-0.336,-0.232,-0.1148,-0.0029,0.1006,0.2064,0.3145,0.4323,0.0,0.0,0.0,0.0,0.5453,0.3841,0.3853,0.3205,0.1793,0.0738,-0.0257,-0.125,-0.2792,-0.4502,-0.6342,-0.7798,-1.0491,-1.4006,-1.4942,-1.8011,-2.2306,-2.2833,-2.3885,-2.5208,-2.5641,-2.627,-2.692,-2.7008,-2.78,-2.8761,-2.8293,0.0,0.0,0.0,0.0,0.0,0.0,0.0,0.0,0.0,0.0,0.0,0.0,0.0,0.0,0.0,0.0,0.0,0.0,0.0,0.0,0.0,0.0,0.0,0.0,-1.8969,-2.0092,-2.1096,-2.222,-2.3151,-2.3725,-2.409,-2.4342,-2.4516,-2.4376,-2.4202,-2.4035,-2.3868,-2.3641,-2.334,-2.3033,-2.2726,-2.2432,-2.2138,-2.1844,-2.1621,-2.1383,-2.1229,-2.1109,-2.1109,-2.1042,-2.0991,-2.2577,-2.3483,-2.3868,-2.6408,-2.7749,-2.822,-2.8966,-2.9297,0.0,0.0,0.0,0.0,0.0,-2.8785,-2.8364,0.0,0.0,0.0,0.0,0.0,0.0,0.0,0.0,0.0,0.0,0.0,-0.3877,-0.2478,-0.1449,-0.0279,0.1089,0.2635,0.3899,0.0,0.0,0.0,0.7357,0.7632,0.7055,0.5535,0.5521,0.4603,0.2749,0.1915,0.0896,-0.0265,-0.1061,-0.2876,-0.5473,-0.6664,-0.9302,-1.3016,-1.4071,-1.7078,-2.1149,-2.1205,-2.3333,-2.6422,-2.6261,-2.6995,-2.8212,-2.8529,-2.9178,-2.9862,-2.9806,0.0,0.0,0.0,0.0,0.0,0.0,0.0,0.0,0.0,0.0,0.0,0.0,0.0,0.0,0.0,0.0,0.0,0.0,0.0,0.0,0.0,0.0,0.0,0.0,-1.9683,-2.0714,-2.1793,-2.245,-2.2918,-2.325,-2.3561,-2.3734,-2.3768,-2.3774,-2.3754,-2.3721,-2.3688,-2.3541,-2.324,0.0,0.0,0.0,0.0,-2.1797,-2.1568,-2.1568,-2.137,-2.1109,-2.1109,-2.0955,-2.0737,-2.2241,-2.3644,-2.4903,-2.6421,-2.7967,-2.9394,-2.9014,-2.8848,-2.8848,-2.8848,-2.8809,-2.8711,-2.834,-2.7951,-2.7626,0.0,0.0,0.0,0.0,0.0,0.0,0.0,0.0,0.0,-0.7658,-0.5684,-0.4066,-0.3184,-0.0831,0.1028,0.1924,0.388,0.5638,0.0,0.0,0.8239,0.7807,0.7993,0.7688,0.6779,0.6849,0.6053,0.4261,0.4083,0.2894,0.0782,-0.0062,-0.1434,-0.3244,-0.544,-0.8216,-1.137,-1.2867,-1.5823,-1.9571,-2.0036,-2.2522,-2.6067,-2.657,-2.8025,-2.9901,-3.0442,-3.1878,-3.341,-3.2861,-3.2282,-3.1781,-3.1685,0.0,0.0,0.0,0.0,0.0,0.0,0.0,0.0,0.0,0.0,0.0,0.0,0.0,0.0,0.0,0.0,0.0,0.0,0.0,0.0,-1.881,-2.0059,-2.1102,-2.163,-2.1951,-2.2458,-2.324,-2.338,-2.3507,-2.3748,-2.3774,-2.3674,-2.3434,-2.318,-2.2906,-2.2612,-2.2318,-2.2024,-2.173,-2.1728,-2.1496,-2.1196,-2.1196,-2.1162,-2.1109,0.0,0.0,-2.0737,-2.2356,-2.3572,-2.4474,-2.6083,-2.7447,-2.8525,-2.8447,-2.8418,-2.8418,-2.8418,-2.8207,-2.7921,-2.7832,-2.753,-2.7121,0.0,0.0,0.0,0.0,0.0,0.0,0.0,0.0,0.0,0.0,-0.6406,-0.4945,-0.3454,-0.1327,0.0582,0.2062,0.4573,0.0,0.0,0.8593,0.871,0.8568,0.8654,0.8409,0.7768,0.775,0.7121,0.5797,0.4951,0.3929,0.2714,0.117,-0.0351,-0.19,-0.4387,-0.6998,-0.9721,-1.2342,-1.5177,-1.8063,-1.9581,-2.22,-2.5336,-2.6627,-2.8446,-3.0446,-3.1479,-3.2998,-3.4459,-3.4129,-3.3982,-3.3947,-3.3868,-3.2836,-3.1293,0.0,0.0,0.0,0.0,0.0,0.0,0.0,0.0,0.0,0.0,0.0,0.0,0.0,0.0,-1.8895,-1.741,0.0,-1.8945,-1.9686,-2.0414,-2.0667,-2.0105,-2.0922,-2.1483,-2.138,-2.2095,-2.2365,-2.1665,-2.2385,-2.2812,-2.2665,-2.2512,-2.2358,-2.2211,-2.1931,-2.1769,-2.1621,-2.141,-2.1263,-2.1109,-2.0962,-2.0895,-2.0889,-2.0742,-2.0521,-2.0295,-2.1872,-2.2706,-2.3075,-2.5391,-2.6683,-2.7276,-2.8014,-2.8291,-2.8271,-2.8057,-2.7865,-2.7705,-2.7677,-2.73,-2.6708,0.0,0.0,0.0,0.0,0.0,0.0,0.0,0.0,0.0,0.0,0.0,-0.6013,-0.3945,-0.2158,-0.0028,0.0,0.0,0.0,0.0,0.8883,0.9011,0.9487,0.9261,0.8974,0.869,0.8443,0.789,0.7069,0.5569,0.4672,0.4344,0.228,0.0447,-0.1233,-0.3718,-0.6251,-0.8905,-1.227,-1.4957,-1.7164,-1.9555,-2.2048,-2.4539,-2.6427,-2.8309,-3.0177,-3.1738,-3.2916,-3.3815,-3.4339,-3.4756,-3.516,-3.5429,-3.4664,-3.3155,-3.067,-2.9798,0.0,0.0,0.0,0.0,0.0,0.0,0.0,0.0,-2.084,-2.047,-1.8461,-1.8731,-1.9209,-1.8682,-1.8905,-1.9369,-1.9992,-2.0178,-1.9877,-1.8675,-1.9413,-1.9772,-1.8812,-2.0313,-2.0772,-1.907,-2.0491,-2.1509,-2.1509,-2.1733,-2.1904,-2.1904,-2.1688,-2.1534,-2.1534,-2.1182,-2.1029,-2.1029,-2.0735,-2.0588,-2.0588,-2.0347,-2.008,-1.9859,-2.105,-2.1553,-2.1749,-2.4812,-2.6264,-2.6599,-2.7756,-2.8223,-2.8242,-2.7734,-2.7539,-2.7523,-2.7461,-2.7003,-2.6397,0.0,0.0,0.0,0.0,0.0,0.0,0.0,0.0,0.0,0.0,0.0,0.0,0.0,0.0,0.0,0.0,0.0,0.0,0.9555,0.9133,0.9349,1.0573,0.9489,0.9096,0.963,0.9043,0.8366,0.7603,0.6756,0.5697,0.4371,0.2807,0.0876,-0.1391,-0.3757,-0.6736,-1.0146,-1.2651,-1.5173,-1.7683,-1.9687,-2.1839,-2.4002,-2.5863,-2.7523,-2.9053,-3.0929,-3.1316,-3.1315,-3.371,-3.4143,-3.3933,-3.513,-3.5379,-3.4475,-3.0528,0.0,-2.9272,-2.5736,-2.4554,-2.4211,-2.3864,-2.2233,-2.1221,0.0,-2.2505,-2.1271,-2.0779,-2.1006,-2.0802,-1.9178,-1.9539,-1.957,-1.8202,-1.8423,-1.8669,-1.85,-1.7339,-1.6452,-1.6309,-1.8072,-1.876,-1.7234,-1.8669,-1.9681,-1.9681,-2.0875,-2.1661,-2.1661,-2.1316,-2.1156,-2.1156,-2.0875,-2.0722,-2.0722,-2.0434,-2.0281,-2.0281,-2.0247,-2.008,-1.98,-1.9971,-2.0594,-2.1749,-2.4812,-2.6825,-2.8038,-2.7828,-2.7959,-2.8213,-2.7402,-2.709,-2.7041,-2.6702,-2.6488,-2.6348,0.0,0.0,0.0,0.0,0.0,0.0,0.0,0.0,0.0,0.0,0.0,0.0,0.0,0.0,0.0,0.0,0.0,0.0,0.8481,0.8712,0.9061,0.9614,0.9113,0.8929,0.9211,0.8936,0.8646,0.8348,0.7589,0.678,0.5802,0.3789,0.1624,-0.0657,-0.3532,-0.6431,-0.946,-1.3211,-1.5949,-1.8032,-2.1066,-2.3313,-2.4918,-2.6104,-2.692,-2.7634,-2.925,-2.9879,0.0,0.0,-3.1718,-3.1928,-3.2856,-3.2674,-3.1479,-2.8557,-2.7635,0.0,-2.4669,-2.3632,-2.3334,-2.3783,-2.2723,-2.1753,-2.2197,-2.1241,-2.0109,-1.9441,-1.9584,-1.9694,-1.9273,-1.8693,-1.8232,-1.7951,-1.7264,-1.645,-1.5619,-1.5568,-1.4944,-1.3018,-1.4452,-1.5364,-1.4789,-1.6323,-1.7773,-1.8829,-1.9453,-2.024,-2.1232,-2.1176,-2.1036,-2.0862,-2.0742,-2.0595,-2.0421,-2.0127,-1.998,-1.998,-1.9813,-1.9666,-1.9546,-1.9546,-2.0773,-2.2919,-2.3985,-2.5775,-2.7891,-2.7461,-2.7393,-2.749,-2.6885,-2.6797,-2.6963,-2.6543,-2.6241,-2.5947,0.0,0.0,0.0,0.0,0.0,0.0,0.0,0.0,0.0,0.0,0.0,0.0,0.0,0.0,0.0,0.0,0.0,0.0,0.0,0.8309,0.8745,0.9335,0.9185,0.9159,0.9335,0.9159,0.9087,0.9087,0.8003,0.7289,0.6913,0.4307,0.195,-0.0189,-0.3542,-0.6753,-0.9893,-1.4288,-1.721,-1.9191,-2.2544,-2.4578,-2.5684,-2.6352,-2.6587,-2.6737,-2.7904,-2.8304,0.0,0.0,-2.927,-2.9363,-3.0375,-2.9958,-2.8698,-2.6774,-2.5594,-2.4624,-2.3232,-2.2715,-2.2712,-2.3274,-2.2584,-2.1579,-2.0973,-1.9802,-1.8627,-1.801,-1.7812,-1.7831,-1.8317,-1.7241,-1.6332,-1.6451,-1.5479,-1.4384,-1.3384,-1.3734,-1.3361,-1.1495,-1.1922,-1.241,-1.259,-1.4166,-1.5719,-1.6953,-1.7538,-1.8506,-2.0265,-2.0392,-2.0459,-2.0688,-2.0595,-2.0414,-2.0114,-1.9826,-1.9679,-1.9679,-1.9466,-1.9424,-1.9424,-1.9279,-2.063,-2.3038,-2.3075,-2.4552,-2.6954,-2.6858,-2.6914,-2.6963,-2.6416,-2.6465,-2.6787,-2.6367,-2.6084,-2.5849,0.0,0.0,0.0,0.0,0.0,0.0,0.0,0.0,0.0,0.0,0.0,0.0,0.0,0.0,0.0,0.0,0.0,0.0,0.0,0.8078,0.8626,1.0636,1.0115,1.0064,1.0745,1.009,0.9762,0.9762,0.7864,0.6981,0.7027,0.3966,0.1545,-0.0344,-0.4034,-0.8161,-1.2605,-1.608,-1.9021,-2.1582,-2.3772,-2.503,-2.5684,-2.6352,-2.6587,-2.6701,-2.739,0.0,0.0,0.0,-2.7409,-2.6172,-2.8107,-2.8254,0.0,-2.5894,-2.4169,-2.2552,-2.1542,-2.1983,-2.2656,-2.2567,-2.1257,-2.0038,-2.036,-1.8768,-1.7351,-1.7535,-1.6583,-1.5749,-1.5957,-1.5155,-1.4046,-1.2594,-1.2565,-1.2809,-1.3059,-1.1569,-1.1148,-1.3012,-1.1674,-1.0616,0.0,-1.2347,-1.3386,-1.3451,-1.5009,-1.6754,-1.8506,-1.857,-1.9226,-2.0681,-2.0394,-2.0107,-1.9813,-1.9526,-1.9379,-1.9379,-1.943,-1.9424,-1.9417,-1.9065,-1.9752,-2.1251,-2.2269,-2.3614,-2.5167,-2.6049,-2.665,-2.6934,-2.6035,-2.6025,-2.6357,-2.5869,-2.6016,-2.6309,0.0,0.0,0.0,0.0,0.0,0.0,0.0,0.0,0.0,0.0,0.0,0.0,0.0,0.0,0.0,0.0,0.0,0.0,0.0,0.6563,0.7694,0.933,0.9181,0.9629,1.0762,1.0871,1.0922,1.0922,1.0172,0.9669,0.9272,0.594,0.2788,-0.0279,-0.4991,-1.0015,-1.5188,-1.8691,-2.2238,-2.5531,-2.6275,-2.7258,-2.8083,-2.6524,-2.5687,-2.5253,0.0,0.0,0.0,0.0,-2.4253,-2.3905,-2.5005,-2.4477,-2.3124,-2.1346,-2.0566,-2.0385,-2.0717,-2.1039,-2.1382,-2.1768,-2.0638,-1.9398,-1.9098,-1.7901,-1.6671,-1.5876,-1.5198,-1.4527,-1.3952,-1.2785,-1.1892,-1.1749,-1.111,-1.0775,-1.1309,-1.0658,-1.0422,-1.1366,-1.0907,-1.0514,0.0,0.0,0.0,-1.3193,-1.384,-1.4944,-1.6695,-1.7859,-1.8566,-1.8637,-1.9659,-2.0,-1.9519,-1.9477,-1.9424,-1.9424,-1.9165,-1.8971,-1.8784,-1.8684,-1.9438,-2.0912,-2.1855,-2.3168,-2.4576,-2.5244,-2.5596,-2.5693,-2.541,-2.5381,-2.5546,-2.5352,-2.5381,-2.5488,0.0,0.0,0.0,0.0,0.0,0.0,0.0,0.0,0.0,0.0,0.0,0.0,0.0,0.0,0.0,0.0,0.0,0.0,0.0,0.0,0.6338,0.7514,0.8521,0.9471,1.0383,1.1216,1.161,1.161,1.1227,1.0439,0.9201,0.6513,0.2492,-0.2643,-0.6742,-1.2364,-1.8864,-2.1303,-2.4196,-2.7156,-2.693,-2.7084,-2.7316,-2.5802,-2.4836,0.0,0.0,0.0,0.0,0.0,-2.1647,-2.135,-2.1757,-2.1263,-2.025,-1.8889,-1.8927,-1.9565,-2.0393,-2.0323,-2.0205,-2.0882,-1.9732,-1.8265,-1.7857,-1.6578,-1.5238,-1.44,-1.3326,-1.2309,-1.1714,-1.0559,-0.9796,-1.0266,-0.9756,-0.9513,-1.0161,-1.0046,-1.0,-1.0521,-1.0571,-1.0571,-1.0571,-1.0711,0.0,-1.2289,-1.2406,-1.3199,-1.4884,-1.6043,-1.6928,-1.757,-1.8673,-1.9341,-1.9372,-1.9424,-1.9424,-1.9424,-1.9065,-1.8824,-1.8637,-1.8424,-1.8796,-1.966,-2.0643,-2.1793,-2.3038,-2.3886,-2.4448,-2.4834,-2.4834,-2.4834,-2.4834,-2.4834,-2.4834,-2.4834,0.0,0.0,0.0,0.0,0.0,0.0,0.0,0.0,0.0,0.0,0.0,0.0,0.0,0.0,0.0,0.0,0.0,0.0,0.0,0.0,0.0,0.5468,0.8084,0.9596,0.9757,1.1124,1.185,1.1927,1.116,0.9603,0.7377,0.5955,0.1044,-0.6631,-0.8938,-1.4851,-2.3112,-2.3566,-2.4847,-2.6541,-2.5839,-2.4844,-2.3818,-2.4185,0.0,0.0,0.0,0.0,0.0,0.0,-1.9672,-1.8706,-1.8643,-1.8856,-1.9053,-1.8649,-1.9206,-2.0029,-2.0511,-1.9833,-1.9214,-1.9931,-1.8374,-1.6645,-1.6601,-1.4801,-1.3069,-1.3012,-1.1036,-0.9317,-0.9342,-0.8517,-0.7843,-0.8103,-0.8424,-0.8834,-0.9496,-0.9556,-0.9804,-1.0501,-1.0658,-1.0727,-1.0721,-1.0793,0.0,-1.0731,0.0,-1.1535,-1.307,-1.3251,-1.4552,-1.7257,-1.7541,-1.8155,-1.9249,-1.9366,-1.9352,-1.9377,-1.9038,-1.8885,-1.8838,-1.8222,-1.7856,-1.7647,-1.8724,-1.9693,-2.0618,-2.2002,-2.3243,-2.4293,-2.4339,-2.4385,-2.4385,-2.4385,-2.4385,-2.4385,0.0,0.0,0.0,0.0,0.0,0.0,0.0,0.0,0.0,0.0,0.0,0.0,0.0,0.0,0.0,0.0,0.0,0.0,0.0,0.0,0.0,0.0,0.0,0.0,0.0,0.0,0.0,0.0,0.0,1.3002,1.264,0.842,0.3518,-0.1971,-0.7008,-1.3761,-2.1401,-2.2581,-2.4387,-2.6452,0.0,-2.5163,-2.4754,0.0,0.0,0.0,0.0,0.0,0.0,-1.8484,-1.8585,-1.8872,-1.8946,-1.9286,-1.9551,-1.9213,-1.9723,-2.051,-2.0918,-2.0266,-1.9384,-1.9067,-1.7012,-1.4797,-1.3987,-1.2822,-1.1638,-1.0529,-0.9583,-0.8674,-0.7614,-0.7451,-0.7237,-0.642,-0.6807,-0.7008,-0.6415,-0.754,-0.8462,-0.8681,-0.9935,-1.0779,-1.0731,-1.0793,-1.0816,0.0,-1.0758,-1.0958,-1.131,-1.2478,-1.3387,-1.3957,-1.6259,-1.7476,-1.763,-1.8823,-1.9145,-1.8711,-1.8637,-1.8364,-1.7923,-1.7769,-1.7542,-1.7358,-1.8637,-1.9204,-1.9351,-2.1336,-2.2317,-2.2686,-2.3573,-2.3945,-2.3945,-2.3945,-2.3945,-2.3906,0.0,0.0,0.0,0.0,0.0,0.0,0.0,0.0,0.0,0.0,0.0,0.0,0.0,0.0,0.0,0.0,0.0,0.0,0.0,0.0,0.0,0.0,0.0,0.0,0.0,0.0,0.0,0.0,0.0,0.0,0.0,0.7933,0.2822,-0.435,-0.8102,-1.4279,-2.1924,0.0,0.0,0.0,0.0,0.0,0.0,0.0,0.0,0.0,0.0,0.0,0.0,-1.6597,-1.7137,-1.775,-1.7998,-1.8164,-1.8248,-1.8259,-1.8762,-1.9344,-1.962,-1.8918,-1.7954,-1.7458,-1.5332,-1.3226,-1.2572,-1.1166,-0.9694,-0.8375,-0.7552,-0.6675,-0.5443,-0.5483,-0.5496,-0.4812,-0.5175,-0.5354,-0.4993,-0.5844,-0.6638,-0.6801,-0.789,-0.879,-0.9466,-0.9667,-0.9995,-1.0664,-1.0721,-1.069,-1.0622,-1.1436,-1.2087,-1.2532,-1.4255,-1.5731,-1.6739,-1.8519,-1.9072,-1.849,-1.849,-1.8243,-1.7776,-1.7515,-1.728,-1.6998,0.0,-1.8047,-1.8359,-1.9621,-2.0741,-2.1744,-2.243,-2.3032,-2.3506,-2.3506,-2.3506,-2.3467,0.0,0.0,0.0,0.0,0.0,0.0,0.0,0.0,0.0,0.0,0.0,0.0,0.0,0.0,0.0,0.0,0.0,0.0,0.0,0.0,0.0,0.0,0.0,0.0,0.0,0.0,0.0,0.0,0.0,0.0,0.0,0.0,0.0,0.0,0.0,0.0,0.0,0.0,0.0,0.0,0.0,0.0,0.0,0.0,0.0,0.0,0.0,0.0,0.0,0.0,-1.5576,-1.6305,-1.6767,-1.6728,-1.6573,-1.678,-1.7133,-1.7474,-1.7423,-1.653,-1.5618,-1.5347,-1.3463,-1.1593,-1.1462,-0.9513,-0.7517,-0.6565,-0.537,-0.4284,-0.3411,-0.3438,-0.3559,-0.3368,-0.3557,-0.3823,-0.4046,-0.4273,-0.4591,-0.4962,-0.5401,-0.6147,-0.7498,-0.8043,-0.8811,-1.0233,-1.0538,-1.0612,-1.0497,-1.0337,-1.0925,-1.2344,-1.2401,-1.374,-1.6518,-1.8185,-1.8854,-1.849,-1.845,-1.827,-1.7909,-1.7402,-1.7038,-1.6693,-1.64,-1.6718,-1.7458,-1.7645,-1.9047,-2.1069,-2.1248,-2.2031,-2.3091,-2.3091,-2.3091,-2.3091,0.0,0.0,0.0,0.0,0.0,0.0,0.0,0.0,0.0,0.0,-1.8597,0.0,0.0,0.0,0.0,0.0,0.0,0.0,0.0,0.0,0.0,0.0,0.0,0.0,0.0,0.0,0.0,0.0,0.0,0.0,0.0,0.0,0.0,0.0,0.0,0.0,0.0,0.0,0.0,0.0,0.0,0.0,0.0,0.0,0.0,0.0,0.0,0.0,0.0,0.0,-1.4602,-1.6577,-1.726,-1.7629,-1.7667,-1.6672,-1.6616,-1.6611,-1.5523,-1.4361,-1.3411,-1.3256,-1.1248,-0.9224,-0.8898,-0.7187,-0.5542,-0.5121,-0.4265,-0.3519,-0.318,-0.3401,-0.3257,-0.211,-0.2153,-0.1996,-0.0962,-0.2173,-0.3212,-0.3144,-0.4584,-0.5649,-0.5858,-0.719,-0.815,0.0,-0.9577,-1.0395,-1.0487,-1.0236,-1.0689,-1.2212,-1.2203,-1.372,-1.6897,-1.6964,-1.7484,-1.849,-1.8243,-1.7963,-1.7649,-1.736,-1.7038,-1.6693,-1.64,0.0,-1.6204,-1.7271,-1.8549,-1.9898,-2.0935,-2.2031,-2.3091,-2.3091,-2.3091,-2.3091,0.0,0.0,0.0,0.0,0.0,0.0,0.0,0.0,0.0,0.0,-1.9209,-1.8037,0.0,0.0,0.0,0.0,0.0,0.0,0.0,0.0,0.0,0.0,0.0,0.0,0.0,0.0,0.0,0.0,0.0,0.0,0.0,0.0,0.0,0.0,0.0,0.0,0.0,0.0,0.0,0.0,0.0,0.0,0.0,0.0,0.0,0.0,0.0,0.0,0.0,0.0,-1.1894,-1.2905,-1.4627,-1.5007,-1.4682,-1.3975,-1.3941,-1.3894,-1.307,-1.245,-1.1982,-1.1693,-1.0038,-0.8481,-0.8151,-0.6391,-0.4565,-0.3818,-0.2928,-0.2128,-0.1587,-0.1616,-0.1505,-0.0881,-0.0886,-0.0731,-0.0063,-0.0774,-0.1385,-0.1299,-0.2112,-0.3049,-0.3933,-0.4778,-0.5926,-0.7682,-0.8478,-0.9306,-1.0199,-0.999,-1.0199,-1.0902,-1.1736,-1.3182,-1.5286,-1.6109,-1.7004,-1.8016,-1.7982,-1.7802,-1.74,-1.7105,-1.676,-1.6466,-1.6166,-1.5965,-1.5825,-1.648,-1.7809,-1.9534,-2.0124,-2.1489,-2.3091,-2.3091,-2.3091,-2.3091,0.0,0.0,0.0,0.0,0.0,0.0,0.0,-2.0831,-2.0358,-1.9927,-1.9225,-1.7998,-1.6041,-1.4862,-1.3648,0.0,0.0,0.0,0.0,0.0,0.0,0.0,0.0,0.0,0.0,0.0,0.0,0.1344,0.2484,0.0,0.0,0.0,0.0,0.0,-0.7894,0.0,0.0,0.0,0.0,0.0,0.0,0.0,0.0,0.0,0.0,0.0,0.0,0.0,0.0,0.0,-0.8357,-0.8204,-1.0285,-1.0919,-1.0888,-1.0779,-1.0793,-1.0805,-1.0483,-1.0419,-1.039,-0.9969,-0.8932,-0.7975,-0.7654,-0.5824,-0.3926,-0.2919,-0.1817,-0.0806,-0.0121,0.0,0.0,0.0,0.0,0.0,0.0,0.0,0.0,0.0,0.0,-0.054,-0.197,-0.249,-0.3779,-0.6444,-0.7162,-0.8196,-0.9881,-0.9886,-0.9822,-0.9822,-1.102,-1.2247,-1.338,-1.5063,-1.6354,-1.7282,-1.7728,-1.7669,-1.7192,-1.684,-1.6547,-1.6259,-1.5959,-1.5784,0.0,-1.5784,-1.7117,-1.9131,-1.9405,-2.0809,-2.2775,-2.3003,-2.3091,-2.3091,0.0,0.0,0.0,0.0,0.0,0.0,0.0,-1.988,-1.9862,-1.9816,-1.8758,-1.772,-1.6938,-1.6333,-1.516,0.0,0.0,0.0,0.0,0.0,0.0,0.0,0.0,0.0,0.0,0.0,0.0,-0.2045,-0.2046,0.0,0.0,0.0,0.0,0.0,0.0,-1.0442,-1.2132,0.0,0.0,0.0,0.0,0.0,0.0,0.0,0.0,0.0,0.0,0.0,-0.6254,-0.4729,-0.4173,-0.4168,-0.4529,-0.6303,-0.8249,-0.8283,-0.8226,-0.8149,-0.8112,-0.7955,-0.7709,-0.7487,-0.7129,-0.6746,-0.6301,-0.464,-0.3145,-0.2774,-0.1336,-0.0077,0.0,0.0,0.0,0.0,0.0,0.0,0.0,0.0,0.0,0.0,0.0,-0.0067,-0.0265,-0.1715,-0.28,-0.2978,-0.559,-0.7952,-0.9714,-0.9829,-0.9822,-0.9822,-0.994,-1.0767,-1.2341,-1.3394,-1.4713,-1.6233,-1.7206,-1.7462,-1.7192,-1.684,-1.6547,-1.6259,-1.5959,-1.5784,0.0,-1.5784,-1.6615,-1.7956,-1.9085,-2.0305,-2.1614,-2.2677,-2.3091,-2.3091,0.0,0.0,0.0,0.0,0.0,0.0,0.0,-2.0363,-2.0384,-2.0397,-1.9231,-1.8116,-1.7434,-1.677,-1.5454,0.0,0.0,0.0,0.0,0.0,0.0,0.0,0.0,0.0,0.0,0.0,-0.3475,-0.3287,-0.3325,0.0,0.0,0.0,0.0,0.0,0.0,-0.9172,-1.0269,0.0,0.0,0.0,0.0,0.0,0.0,0.0,0.0,0.0,0.0,0.0,-0.4977,-0.3732,-0.289,-0.2289,-0.1812,-0.1972,-0.2743,-0.4754,-0.5382,-0.5398,-0.5309,-0.5263,-0.5178,-0.5027,-0.4839,-0.4625,-0.4312,-0.3199,-0.2136,-0.1899,-0.0864,0.0,0.0,0.0,0.0,0.0,0.0,0.0,0.0,0.0,0.0,0.0,0.0,0.0,0.0,-0.0654,-0.1861,-0.3669,-0.5833,-0.7849,-0.9498,-0.9557,-0.9557,-0.9557,-0.9557,-1.0204,-1.1648,-1.2064,-1.3426,-1.5668,-1.5901,-1.6323,-1.6874,-1.658,-1.6286,-1.5999,-1.5879,-1.5784,0.0,-1.5784,-1.6574,-1.7824,-1.9047,-2.026,-2.1436,-2.2633,-2.3091,-2.3091,0.0,0.0,0.0,0.0,0.0,0.0,-2.0428,-2.0278,-2.0178,-2.0167,-1.8941,-1.7747,-1.7008,-1.6252,-1.4955,-1.276,0.0,0.0,0.0,0.0,0.0,0.0,0.0,0.0,0.0,0.0,-0.4339,-0.4259,-0.4299,-0.4797,0.0,0.0,-0.5704,-0.6811,0.0,0.0,0.0,0.0,0.0,0.0,0.0,0.0,0.0,0.0,0.0,0.0,0.0,0.0,0.0,0.0,0.0,-0.0978,0.0,0.0,0.0,0.0,-0.2807,-0.3018,-0.3566,-0.3755,-0.3784,-0.3683,-0.3519,-0.3304,-0.3128,-0.2315,-0.1544,-0.1341,-0.0616,0.0,0.0,0.0,0.0,0.0,0.0,0.0,0.0,0.0,0.0,0.0,0.0,0.0,0.0,0.0,-0.1126,-0.3829,-0.5493,-0.6993,-0.8504,-0.8977,-0.9242,-0.9378,-0.9381,-0.9838,-1.073,-1.1071,-1.2376,-1.4716,-1.4868,-1.5509,-1.6573,-1.6366,-1.6112,-1.5784,-1.5784,-1.5784,0.0,-1.5784,-1.6339,-1.7271,-1.8495,-1.9724,-2.089,-2.2129,-2.2775,-2.3091,0.0,0.0,0.0,0.0,0.0,0.0,0.0,-1.9196,-1.8721,-1.8711,-1.744,-1.6234,-1.5418,-1.468,-1.3567,-1.1943,0.0,0.0,0.0,0.0,0.0,0.0,0.0,0.0,0.0,0.0,0.0,-0.5392,-0.5508,-0.6104,-0.7066,-0.6062,-0.6535,-0.813,0.0,0.0,0.0,0.0,0.0,0.0,0.0,0.0,0.0,0.0,0.0,0.0,0.0,0.0,0.0,0.0,0.0,0.0,0.0,0.0,0.0,0.0,-0.075,-0.1216,-0.3379,-0.3892,-0.3798,-0.3796,-0.3559,-0.3278,-0.3115,-0.2304,-0.156,-0.1325,-0.06,0.0,0.0,0.0,0.0,0.0,0.0,0.0,0.0,0.0,0.0,0.0,0.0,0.0,0.0,0.0,-0.0719,-0.2412,-0.3757,0.0,-0.6654,-0.7971,-0.8923,-0.9367,-0.9381,-0.9381,-0.9436,-1.052,-1.176,-1.3048,-1.4217,-1.5332,-1.6279,-1.6321,-1.6112,-1.5784,-1.5784,-1.5784,0.0,-1.5784,-1.5832,-1.5967,-1.7225,-1.8457,-1.967,-2.089,-2.2076,-2.3091,0.0,0.0,0.0,0.0,0.0,0.0,0.0,-1.8674,-1.8633,-1.8043,-1.6617,-1.5582,-1.5332,-1.4312,-1.3457,-1.2924,0.0,0.0,0.0,0.0,0.0,0.0,0.0,0.0,0.0,0.0,-0.6033,-0.5395,-0.5443,-0.5678,-0.6069,-0.5637,-0.5789,-0.642,-0.6237,-0.6324,0.0,0.0,0.0,0.0,0.0,0.0,0.0,0.0,0.0,0.0,0.0,0.0,0.0,0.0,0.0,0.0,0.0,0.0,0.0,0.0,0.0,0.1644,0.1012,0.0401,-0.0089,-0.0089,-0.0589,-0.103,-0.0991,-0.0744,-0.0505,-0.0431,-0.0203,0.0,0.0,0.0,0.0,0.0,0.0,0.0,0.0,0.0,0.0,0.0,0.0,0.0,0.0,0.0,-0.0653,-0.2164,-0.3558,-0.4947,-0.6478,-0.7827,-0.8618,-0.8764,-0.8767,-0.8767,-0.8767,-0.9147,-1.0042,-1.1449,-1.2511,-1.369,-1.4955,-1.566,-1.5919,-1.5784,-1.5784,-1.5784,0.0,-1.5784,-1.5784,-1.592,-1.7178,-1.8457,-1.9633,-2.0845,-2.2076,-2.3052,0.0,0.0,0.0,0.0,0.0,0.0,0.0,-1.7775,-1.7547,-1.6618,-1.5419,-1.451,-1.4171,-1.3426,-1.2851,-1.2666,0.0,0.0,0.0,0.0,0.0,0.0,0.0,0.0,0.0,-0.6931,-0.6164,-0.5481,-0.5481,-0.5559,-0.5667,-0.5552,-0.5562,-0.5692,-0.584,-0.5919,0.0,0.0,0.0,0.0,0.0,0.0,-0.5703,0.0,0.0,0.0,0.0,0.0,0.0,0.0,0.0,0.0,0.0,0.0,0.0,0.0,0.3836,0.4034,0.3295,0.2625,0.2079,0.169,0.1079,0.0479,0.008,0.0,0.0,0.0,0.0,0.0,0.0,0.0,0.0,0.0,0.0,0.0,0.0,0.0,0.0,0.0,0.0,0.0,0.0,0.0,-0.041,-0.128,-0.2659,-0.4089,-0.5468,-0.6925,-0.7846,-0.8316,-0.8425,-0.8482,-0.8482,-0.8428,-0.9116,-1.0531,-1.1599,-1.2784,-1.4205,-1.5319,-1.5784,-1.5784,-1.5784,0.0,0.0,-1.5784,-1.5784,-1.5879,-1.6662,-1.7918,-1.9335,-2.009,-2.1346,-2.2627,0.0,0.0,0.0,0.0,0.0,0.0,0.0,0.0,0.0,0.0,-1.3969,-1.3181,-1.2304,-1.2111,-1.1831,0.0,0.0,0.0,0.0,0.0,0.0,0.0,0.0,0.0,0.0,-0.7177,-0.6348,-0.5676,-0.5607,-0.5647,-0.5783,-0.564,-0.5654,-0.5789,-0.5539,0.0,0.0,0.0,0.0,0.0,0.0,0.0,0.0,0.0,0.0,0.0,0.0,0.0,0.0,0.0,0.0,0.0,0.0,0.0,0.0,0.0,0.0,0.0,0.0,0.3315,0.3023,0.2074,0.172,0.1351,0.0335,0.0041,0.0,0.0,0.0,0.0,0.0,0.0,0.0,0.0,0.0,0.0,0.0,0.0,0.0,0.0,0.0,0.0,0.0,0.0,0.0,0.0,-0.1362,-0.2677,-0.3819,-0.5406,-0.6746,-0.7842,-0.8255,-0.8448,-0.8448,-0.8319,-0.8853,-1.0041,-1.1206,-1.2479,-1.3776,-1.5092,-1.573,0.0,-1.5758,0.0,0.0,-1.5724,-1.5718,-1.5718,-1.5718,-1.6955,-1.8645,-1.8645,-1.9972,-2.1792,0.0,0.0,0.0,0.0,0.0,0.0,0.0,0.0,0.0,0.0,-1.3159,-1.2565,-1.2247,-1.1142,0.0,0.0,0.0,0.0,0.0,0.0,0.0,0.0,0.0,0.0,0.0,-0.7502,-0.6609,-0.6428,-0.5777,-0.5525,-0.5637,-0.5521,-0.5586,-0.5793,-0.5613,0.0,0.0,0.0,0.0,0.0,0.0,0.0,0.0,0.0,0.0,0.0,-0.1778,-0.1415,0.0,0.0,0.0,0.0,0.0,0.0,0.0,0.0,0.4952,0.6381,0.5982,0.0,0.4552,0.434,0.3014,0.1667,0.0,0.0679,0.0,0.0,0.0,0.0,0.0,0.0,0.0,0.0,0.0,0.0,0.0,0.0,0.0,0.0,0.0,0.0,0.0,0.0,0.0,0.0,-0.1269,-0.2179,-0.2433,-0.4752,-0.6205,-0.6481,-0.755,-0.8093,-0.8093,-0.8109,-0.8239,-0.8532,-0.9821,-1.1116,-1.2431,-1.3734,-1.4902,-1.5771,-1.5591,0.0,-1.5478,-1.5257,-1.5209,-1.5209,-1.5209,-1.6036,-1.7272,-1.7272,-1.8689,-2.0555,0.0,0.0,0.0,0.0,0.0,0.0,0.0,0.0,0.0,0.0,0.0,0.0,0.0,0.0,0.0,0.0,0.0,0.0,0.0,0.0,0.0,0.0,0.0,0.0,-0.8275,-0.7353,-0.6678,-0.6302,-0.5799,-0.5572,-0.5589,-0.5572,-0.5647,-0.58,-0.5793,0.0,0.0,0.0,0.0,0.0,-0.4585,0.0,0.0,0.0,0.0,0.0,-0.1077,-0.0776,0.0,-0.0196,0.0,0.0,0.0,0.0,0.0,0.0,0.4925,0.6702,0.6783,0.6376,0.5822,0.5352,0.4323,0.3194,0.2117,0.1354,0.0661,0.0132,0.0,0.0,0.0,0.0,0.0,0.0,0.0,0.0,0.0,0.0,0.0,0.0,0.0,0.0,0.0,0.0,0.0,0.0,-0.0678,-0.1335,-0.1964,-0.3889,-0.5257,-0.5901,-0.7134,-0.7853,-0.7988,-0.7988,-0.7988,-0.8041,-0.9361,-1.0342,-1.1023,-1.2835,-1.402,-1.4617,0.0,0.0,-1.519,-1.5075,-1.5008,-1.4995,-1.481,-1.5393,-1.6355,-1.6865,-1.7945,-1.9207,0.0,0.0,0.0,0.0,0.0,0.0,0.0,0.0,0.0,0.0,0.0,0.0,0.0,0.0,0.0,0.0,0.0,0.0,0.0,0.0,0.0,0.0,0.0,-0.7774,-0.7327,-0.7043,-0.6619,-0.6015,-0.5871,-0.5739,-0.5627,-0.5745,-0.5813,-0.5844,-0.5793,-0.5793,0.0,0.0,-0.4955,-0.4242,-0.3933,0.0,0.0,0.0,0.0,0.0,0.0,0.0,0.0,0.0,0.0,0.0,0.0,0.0,0.0,0.0,0.0,0.0,0.6867,0.6953,0.6803,0.5904,0.5593,0.4954,0.3012,0.0,0.0,0.0,0.0,0.0232,0.0047,0.0,0.0,0.0,0.0,0.0,0.0,0.0,0.0,0.0,0.0,0.0,0.0,0.0,0.0,0.0,0.0,-0.0512,-0.1656,-0.2861,-0.4147,-0.5444,-0.67,-0.7525,-0.7921,-0.7924,-0.7924,-0.797,-0.909,-0.9688,-0.9811,-1.2067,-1.313,-1.3257,0.0,0.0,-1.4941,-1.4894,-1.4847,-1.478,-1.4482,-1.4733,-1.5431,-1.6329,-1.7094,-1.7858,0.0,0.0,0.0,0.0,0.0,0.0,0.0,0.0,0.0,0.0,0.0,0.0,0.0,0.0,0.0,0.0,0.0,0.0,0.0,0.0,0.0,0.0,-0.6404,-0.6825,-0.8157,-0.6754,-0.6301,-0.6904,-0.6158,-0.5789,-0.5769,-0.5789,-0.5871,-0.5932,-0.5221,-0.4885,-0.485,-0.391,-0.3451,-0.3254,-0.2341,0.0,0.0,0.0,0.0,0.0,0.0,0.0,0.0,0.0,0.0,0.0,0.0,0.0,0.0,0.0,0.0,0.0,0.6765,0.7299,0.7419,0.7151,0.6391,0.5616,0.5156,0.4219,0.0,0.0,0.0,0.1229,0.0189,0.0,0.0,0.0,0.0,0.0,0.0,0.0,0.0,0.0,0.0,0.0,0.0,0.0,0.0,0.0,0.0,-0.0101,-0.0296,-0.1568,-0.2861,-0.4054,-0.5367,-0.6564,-0.7665,-0.7665,-0.7665,-0.7665,-0.7855,-0.8534,-0.9609,-1.1005,-1.2191,-1.3245,0.0,-1.4589,-1.4569,-1.4322,-1.4075,-1.38,-1.3753,-1.3675,-1.3613,-1.3765,-1.497,-1.6728,0.0,0.0,0.0,0.0,0.0,0.0,0.0,0.0,0.0,0.0,0.0,0.0,0.0,0.0,0.0,0.0,0.0,0.0,0.0,0.0,0.0,0.0,-0.6396,-0.6626,-0.7366,-0.6536,-0.6271,-0.6682,-0.6271,-0.6006,-0.5888,-0.5365,-0.5512,-0.62,-0.4546,-0.4205,-0.4746,-0.3584,-0.2805,-0.2262,0.0,0.0,0.0,0.0,0.0,0.0,0.0,0.0,0.0,0.0,0.0,0.0,0.0,0.0,0.0,0.0,0.0,0.0,0.6676,0.7248,0.7458,0.7436,0.7116,0.6682,0.5958,0.5329,0.4293,0.0,0.0,0.0,0.0241,0.0,0.0,0.0,0.0,0.0,0.0,0.0,0.0,0.0,0.0,0.0,0.0,0.0,0.0,0.0,0.0,0.0,0.0,-0.1213,-0.2149,-0.2713,-0.4572,-0.5802,-0.6236,-0.6917,-0.736,-0.76,-0.76,-0.783,-0.8238,-0.945,-1.0524,-1.1497,0.0,-1.3304,-1.3801,-1.3667,-1.3534,-1.3353,-1.322,-1.3073,-1.3017,-1.3345,-1.4861,-1.6883,0.0,0.0,0.0,0.0,0.0,0.0,0.0,0.0,0.0,0.0,0.0,0.0,0.0,0.0,0.0,0.0,0.0,0.0,0.0,0.0,-0.6556,-0.6746,-0.6719,-0.6627,-0.6515,-0.6371,-0.6282,-0.6245,-0.6207,-0.6091,-0.5942,-0.5007,-0.5084,-0.5943,-0.372,-0.3276,-0.4055,-0.2888,-0.1917,-0.1236,0.0,0.0,0.0,0.0,0.0,0.0,0.0,0.0,0.0,0.0,0.0,0.0,0.0,0.0,0.0,0.2822,0.3988,0.5129,0.6212,0.6913,0.7319,0.7319,0.7543,0.7536,0.6672,0.6342,0.5641,0.3465,0.0,0.2553,0.1229,0.0699,0.0462,0.0488,0.0216,0.0,0.0,0.0,0.0,0.0,0.0,0.0,0.0,0.0,0.0,0.0,0.0,0.0,0.0,-0.0858,-0.1495,-0.1777,-0.3801,-0.4956,-0.5104,-0.6269,-0.7048,-0.739,-0.739,-0.7265,-0.7034,-0.8241,-0.9185,-0.9979,-1.1169,-1.2273,-1.3213,-1.3213,-1.3166,-1.308,-1.2878,-1.2737,-1.2801,-1.3725,-1.5201,-1.6786,0.0,0.0,0.0,0.0,0.0,0.0,0.0,0.0,0.0,0.0,0.0,0.0,0.0,0.0,0.0,0.0,0.0,0.0,0.0,0.0,-0.6603,-0.6856,-0.6776,-0.6627,-0.6515,-0.6371,-0.6228,-0.601,-0.5905,-0.583,-0.5787,-0.5042,-0.4652,-0.455,-0.2587,-0.1739,-0.1774,-0.0664,-0.0179,-0.0134,-0.0134,0.0,0.0,0.0,0.0,0.0,0.0,0.0,0.0,0.0,0.0,0.0,0.0,0.0,0.0379,0.1594,0.2645,0.3701,0.4907,0.6147,0.7112,0.7112,0.7387,0.7638,0.7812,0.7756,0.7346,0.6236,0.0,0.5343,0.4145,0.2763,0.1846,0.184,0.0808,0.0,0.0,0.0,0.0,0.0,0.0,0.0,0.0,0.0,0.0,0.0,0.0,0.0,0.0,-0.0093,-0.0637,-0.1744,-0.2867,-0.399,-0.5072,-0.6168,-0.6732,-0.6766,-0.6766,-0.6753,-0.6774,-0.7912,-0.8955,-0.9979,-1.1169,-1.2273,-1.3213,-1.3213,-1.3039,-1.2817,-1.279,-1.2616,-1.2546,-1.4422,-1.5215,-1.5594,0.0,0.0,0.0,0.0,0.0,0.0,0.0,0.0,0.0,0.0,0.0,0.0,0.0,0.0,0.0,0.0,0.0,0.0,0.0,0.0,-0.6749,-0.7004,-0.6876,-0.677,-0.6617,-0.6422,-0.6183,-0.5993,-0.5936,-0.6037,-0.6224,-0.5265,-0.4851,-0.4795,-0.2669,-0.1711,-0.1637,-0.0492,0.0,0.0,0.0,0.0,0.0,0.0,0.0,0.0,0.0,0.0,0.0,0.0,0.0,0.0,0.0,0.0,0.0252,0.1443,0.2527,0.359,0.469,0.6029,0.7075,0.6987,0.7234,0.0,0.0,0.7944,0.7595,0.6516,0.6307,0.5875,0.4464,0.3657,0.3255,0.3253,0.2826,0.2507,0.2486,0.2507,0.2153,0.1349,0.1269,0.0898,0.0099,0.0,0.0,0.0,0.0,0.0,0.0,0.0,-0.0224,-0.0652,-0.1797,-0.2853,-0.3852,-0.4927,-0.5735,-0.6288,-0.6566,-0.6651,-0.66,-0.7035,-0.7732,-0.8647,-0.9738,-1.0787,-1.1745,-1.2373,-1.2579,-1.2509,-1.2509,-1.2405,-1.2372,-1.3127,-1.3774,-1.4482,0.0,0.0,0.0,0.0,0.0,0.0,0.0,0.0,0.0,0.0,0.0,0.0,0.0,0.0,0.0,0.0,0.0,0.0,0.0,-0.6675,-0.681,-0.7018,-0.6937,-0.6858,-0.6705,-0.6453,-0.6183,-0.5993,-0.5993,-0.6135,-0.6335,-0.5352,-0.4738,-0.441,-0.2611,-0.1592,-0.1165,-0.0357,0.0,0.0,0.0,0.0,0.0,0.0,0.0,0.0,0.0,0.0,0.0,0.0,0.0,0.0,0.0,0.0,0.0,0.1008,0.1997,0.3058,0.4146,0.5412,0.6527,0.6877,0.0,0.0,0.7887,0.7988,0.7805,0.72,0.7122,0.6774,0.5684,0.5025,0.4633,0.4614,0.4259,0.3996,0.3996,0.4006,0.3497,0.2138,0.1988,0.1461,0.0145,0.0,0.0,0.0,0.0,0.0,0.0,0.0,0.0,0.0,-0.1131,-0.2167,-0.301,-0.4087,-0.5074,-0.5925,-0.6271,-0.6363,-0.6261,-0.6261,-0.6774,-0.768,-0.8412,-0.9484,-1.0788,-1.1545,-1.1944,-1.2178,-1.2265,-1.2245,-1.2201,-1.2521,-1.3085,-1.3897,0.0,0.0,0.0,0.0,0.0,0.0,0.0,0.0,0.0,0.0,0.0,0.0,0.0,0.0,0.0,0.0,0.0,0.0,0.0,-0.6614,-0.6766,-0.6879,-0.6883,-0.6858,-0.6705,-0.6457,-0.6186,-0.5993,-0.5993,-0.5993,-0.6003,-0.523,-0.4263,-0.3056,-0.2179,-0.1119,0.0,0.0,0.0,0.0,0.0,0.0,0.0,0.0,0.0,0.0,0.0,0.0,0.0,0.0,0.0,0.0,0.0,0.0,0.0,0.0,0.0758,0.1866,0.3076,0.4222,0.5386,0.6747,0.7258,0.7492,0.7887,0.7988,0.8116,0.8615,0.8584,0.8435,0.8347,0.7074,0.6015,0.6026,0.4903,0.4023,0.4023,0.4023,0.3564,0.221,0.2053,0.1493,0.0139,0.0,0.0,0.0,0.0,0.0,0.0,0.0,0.0,0.0,-0.1015,-0.2022,-0.2868,-0.3951,-0.4902,-0.58,-0.5796,-0.5796,-0.58,-0.58,-0.633,-0.7291,-0.7443,-0.8661,-1.0587,-1.072,-1.123,-1.1933,-1.2184,-1.2118,-1.2006,-1.2944,-1.3461,-1.3894,0.0,0.0,0.0,0.0,0.0,0.0,0.0,0.0,0.0,0.0,0.0,0.0,0.0,0.0,0.0,0.0,0.0,0.0,0.0,-0.6573,-0.6658,-0.6876,-0.6824,-0.6797,-0.6861,-0.6671,-0.6393,-0.5993,-0.5993,-0.6135,-0.6346,-0.5357,-0.4288,-0.3185,-0.2216,-0.1116,0.0,0.0,0.0,0.0,0.0,0.0,0.0,0.0,0.0,0.0,0.0,0.0,0.0,0.0,0.0,0.0,0.0,0.0,0.0,0.0,0.0758,0.1658,0.2028,0.3062,0.4333,0.5581,0.6076,0.6541,0.7627,0.7914,0.0,0.0,0.8347,0.8191,0.8258,0.7787,0.7397,0.739,0.7089,0.6832,0.6832,0.6755,0.6178,0.4838,0.4577,0.3668,0.1495,0.1248,0.0921,0.0043,0.0,0.0,0.0,0.0,0.0,0.0,-0.0312,-0.0951,-0.1986,-0.2812,-0.3732,-0.4693,-0.5264,-0.5599,-0.58,-0.58,-0.5979,-0.6297,-0.7024,-0.7766,-0.8519,-0.9938,-1.0945,-1.1563,-1.165,-1.1637,-1.1591,-1.1861,-1.2151,-1.2664,0.0,0.0,0.0,0.0,0.0,0.0,0.0,0.0,0.0,0.0,0.0,0.0,0.0,0.0,0.0,0.0,0.0,0.0,0.0,0.0,-0.6647,-0.6831,-0.6749,-0.6746,-0.6834,-0.6749,-0.6569,-0.6295,-0.6295,-0.6146,-0.5944,-0.5281,-0.4185,-0.2681,-0.2064,-0.1138,0.0,0.0,0.0,0.0,0.0,0.0,0.0,0.0,0.0,0.0,0.0,0.0,0.0,0.0,0.0,0.0,-0.0733,0.0,0.0,-0.0161,0.0442,0.1057,0.155,0.2285,0.3302,0.5097,0.5665,0.617,0.7573,0.8021,0.8197,0.8435,0.8296,0.816,0.8252,0.8143,0.7988,0.7988,0.7938,0.7897,0.7897,0.7821,0.7203,0.5813,0.5588,0.4531,0.1946,0.1716,0.1231,0.0083,0.0,0.0,0.0,0.0,0.0,0.0,0.0,-0.0478,-0.1468,-0.2287,-0.3192,-0.4117,-0.4995,-0.5487,-0.5627,-0.5627,-0.5627,-0.57,-0.6763,-0.7495,-0.8069,-0.9644,-1.0672,-1.1269,-1.1349,-1.1322,-1.1222,-1.1222,-1.1449,-1.1858,0.0,0.0,0.0,0.0,0.0,0.0,0.0,0.0,0.0,0.0,0.0,0.0,0.0,0.0,0.0,0.0,0.0,0.0,0.0,0.0,-0.6692,-0.6719,-0.6732,-0.6742,-0.6742,-0.6742,-0.6742,-0.6742,-0.6702,-0.6134,-0.5085,-0.496,-0.379,-0.179,-0.1671,-0.1023,0.0,0.0,0.0,0.0,0.0,0.0,0.0,0.0,0.0,0.0,0.0,0.0,0.0,0.0,0.0,0.0,-0.1929,-0.1875,-0.1589,-0.0488,-0.0081,0.0246,0.1322,0.1623,0.2253,0.4824,0.5631,0.6192,0.7641,0.8126,0.8265,0.8394,0.8319,0.8275,0.8262,0.8096,0.7948,0.7948,0.7882,0.7787,0.7773,0.7648,0.703,0.5683,0.5513,0.4554,0.2123,0.19,0.1409,0.0244,0.0165,0.0123,0.0,0.0,0.0,0.0,0.0,-0.0394,-0.1184,-0.2121,-0.2985,-0.378,-0.4788,-0.5259,-0.5259,-0.5359,-0.5395,-0.5468,-0.6497,-0.7513,-0.8499,-0.9494,-1.0291,-1.0883,-1.1209,-1.1182,-1.0962,-1.0976,-1.112,-1.1469,0.0,0.0,0.0,0.0,0.0,0.0,0.0,0.0,0.0,0.0,0.0,0.0,0.0,0.0,0.0,0.0,0.0,0.0,0.0,0.0,-0.6627,-0.6868,-0.6943,-0.7001,-0.7001,-0.7001,-0.7001,-0.7001,-0.6695,-0.5991,-0.4933,-0.3993,-0.2867,-0.1591,-0.0752,-0.0238,0.0,0.0,0.0,0.0,0.0,0.0,0.0,0.0,0.0,0.0,0.0,0.0,0.0,0.0,0.0,0.0,-0.2909,-0.2562,-0.174,-0.1475,-0.0731,0.0041,0.0329,0.0382,0.0796,0.2391,0.4384,0.6275,0.7534,0.7885,0.7919,0.795,0.7929,0.7875,0.7763,0.7716,0.7695,0.7695,0.7665,0.7604,0.7482,0.7336,0.704,0.6647,0.6482,0.5829,0.4347,0.4189,0.3394,0.1384,0.127,0.0872,0.0039,0.0,0.0,0.0,0.0,-0.0105,-0.0272,-0.1151,-0.1684,0.0,-0.3513,-0.4317,-0.4317,-0.5057,-0.5395,-0.5405,-0.576,-0.6377,-0.7185,-0.8194,-0.9014,-0.975,-1.049,-1.074,-1.0687,-1.0707,-1.0845,-1.1185,0.0,0.0,0.0,0.0,0.0,0.0,0.0,0.0,0.0,0.0,0.0,0.0,0.0,0.0,0.0,0.0,0.0,0.0,0.0,0.0,0.0,0.0,-0.7173,-0.7251,-0.7251,-0.7251,-0.7214,-0.7095,-0.6837,-0.6146,-0.51,-0.3889,-0.277,-0.1659,-0.0521,0.0,0.0,0.0,0.0,0.0,0.0,0.0,0.0,0.0,0.0,0.0,0.0,0.0,0.0,0.0,0.0,0.0,0.0,0.0,-0.2547,-0.199,-0.0934,0.0,0.0,0.0,0.044,0.2404,0.4384,0.6214,0.7452,0.7709,0.7689,0.7614,0.7658,0.7689,0.7614,0.76,0.76,0.76,0.7475,0.7353,0.7272,0.7071,0.6875,0.6725,0.6637,0.6124,0.4907,0.4817,0.4119,0.2427,0.188,0.1365,0.081,0.0264,0.0,0.0,0.0,0.0,0.0,-0.0873,-0.1307,-0.1307,-0.3145,-0.4185,-0.4558,-0.5019,-0.525,-0.525,-0.5264,-0.5728,-0.6522,-0.7416,-0.8323,-0.9237,-1.0047,-1.0463,-1.0593,-1.0593,-1.0694,-1.0841,0.0,0.0,0.0,0.0,0.0,0.0,0.0,0.0,0.0,0.0,0.0,0.0,0.0,0.0,0.0,0.0,0.0,0.0,0.0,0.0,0.0,0.0,-0.7329,0.0,0.0,-0.7415,-0.7295,-0.7095,-0.6953,-0.6519,-0.5727,-0.4456,-0.3112,-0.1759,-0.0739,-0.0204,0.0,0.0,0.0,0.0,0.0,0.0,0.0,0.0,0.0,0.0,0.0,-0.0786,-0.2004,-0.3179,0.0,0.0,0.0,0.0,-0.3394,-0.2388,-0.1097,0.0,0.0,0.0,0.0577,0.2904,0.4466,0.5752,0.6973,0.7419,0.7516,0.7363,0.7455,0.7553,0.7526,0.7519,0.7519,0.7519,0.724,0.7051,0.7024,0.6831,0.6607,0.6494,0.6474,0.6067,0.5087,0.496,0.453,0.3474,0.2571,0.1967,0.1626,0.0735,0.0143,0.0,0.0,0.0,0.0,-0.0706,-0.1073,-0.1106,-0.2898,-0.4134,-0.4871,-0.4983,-0.5036,-0.5056,-0.4938,-0.5305,-0.6044,-0.6784,-0.7747,-0.8784,-0.9549,-1.0091,-1.0446,-1.0446,-1.0446,-1.0451,0.0,0.0,0.0,0.0,0.0,0.0,0.0,0.0,0.0,0.0,0.0,0.0,0.0,0.0,0.0,0.0,0.0,0.0,0.0,0.0,0.0,0.0,-0.7489,-0.7506,-0.7419,-0.7415,-0.7295,-0.7095,-0.6953,-0.697,-0.7118,-0.5609,-0.3777,-0.18,-0.1637,-0.0985,0.0,0.0,0.0,0.0,0.0,0.0,0.0,0.0,0.0,0.0,0.0,-0.0759,-0.2005,-0.3201,-0.4408,0.0,0.0,0.0,-0.3561,-0.3394,-0.1746,0.0,0.0,0.0,0.0362,0.1884,0.3141,0.436,0.5578,0.6661,0.736,0.7204,0.7295,0.736,0.7183,0.7156,0.7156,0.7156,0.7021,0.6869,0.6776,0.661,0.6491,0.6344,0.6327,0.6281,0.6103,0.6103,0.5628,0.4569,0.4251,0.3364,0.17,0.1299,0.0773,0.0035,0.0,0.0,0.0,-0.0101,-0.0168,-0.0202,-0.1899,-0.3157,-0.3998,-0.4529,-0.4823,-0.4914,-0.4897,-0.4979,-0.5127,-0.5988,-0.6822,-0.7614,-0.8453,-0.9217,-0.9812,-0.9812,-0.9812,-0.9812,0.0,0.0,0.0,0.0,0.0,0.0,0.0,0.0,0.0,0.0,0.0,0.0,0.0,0.0,0.0,0.0,0.0,0.0,0.0,0.0,0.0,-0.7412,-0.7438,-0.7441,-0.7419,-0.7415,-0.7295,-0.7095,-0.6953,-0.6994,-0.7234,-0.6476,-0.4954,-0.2877,-0.222,-0.1209,0.0,0.0,0.0,0.0,0.0,0.0,0.0,0.0,0.0,0.0,0.0,-0.0755,-0.1965,-0.3174,-0.4423,-0.5581,-0.6738,0.0,0.0,0.0,-0.2314,-0.0749,-0.0162,0.0,0.0306,0.1571,0.2778,0.3981,0.5217,0.6382,0.7221,0.7109,0.7149,0.7221,0.7109,0.7095,0.7068,0.6991,0.6856,0.6749,0.6593,0.6484,0.6371,0.6306,0.63,0.63,0.63,0.63,0.6066,0.548,0.4849,0.3854,0.2402,0.1676,0.0909,0.0035,0.0,0.0,0.0,0.0,-0.0234,-0.0756,-0.1942,-0.2904,-0.3716,-0.4392,-0.4728,-0.4785,-0.4701,-0.4663,-0.475,-0.5506,-0.6104,-0.6687,-0.7909,-0.8676,-0.9143,-0.9551,-0.9707,-0.9697,0.0,0.0,0.0,0.0,0.0,0.0,0.0,0.0,0.0,0.0,0.0,0.0,0.0,0.0,0.0,0.0,0.0,0.0,0.0,0.0,0.0,-0.7412,-0.7453,-0.7456,-0.7415,-0.7415,-0.7278,-0.7045,-0.69,-0.692,-0.7092,-0.6953,-0.5955,-0.4216,-0.2976,-0.166,-0.04,-0.0131,0.0,0.0,0.0,0.0,0.0,0.0,0.0,0.0,0.0,-0.0796,-0.1964,-0.3204,-0.441,-0.5581,-0.6738,-0.6196,0.0,0.0,0.0,-0.1025,-0.0202,0.0,0.021,0.1113,0.2261,0.3475,0.4647,0.5777,0.6686,0.6991,0.7011,0.6984,0.6984,0.7045,0.7051,0.691,0.68,0.6647,0.6535,0.6388,0.63,0.63,0.63,0.63,0.63,0.63,0.6235,0.6003,0.5278,0.4352,0.3275,0.2243,0.1245,0.0347,0.0102,0.0,0.0,0.0,-0.033,-0.0966,-0.1964,-0.2699,-0.328,-0.4212,-0.4662,-0.4655,-0.4539,-0.4491,-0.4546,-0.503,-0.5489,-0.6008,-0.7302,-0.8022,-0.8471,-0.9193,-0.9475,-0.9475,0.0,0.0,0.0,0.0,0.0,0.0,0.0,0.0,0.0,0.0,0.0,0.0,0.0,-0.661,-0.6644,-0.6538,0.0,0.0,0.0,0.0,0.0,-0.7415,-0.7509,0.0,-0.7419,-0.7415,-0.7231,-0.6896,-0.6787,-0.6858,-0.7092,-0.6953,-0.6399,-0.5445,-0.4129,-0.279,-0.1436,-0.0453,0.0,0.0,0.0,0.0,0.0,0.0,0.0,0.0,0.0,-0.0762,-0.1968,-0.321,-0.4414,-0.5581,-0.6738,-0.6196,-0.4892,0.0,0.0,0.0,0.0,0.0,0.0,0.0084,0.101,0.2199,0.3411,0.4475,0.553,0.6692,0.6824,0.6722,0.6722,0.691,0.7051,0.691,0.68,0.6647,0.6535,0.6388,0.63,0.63,0.63,0.63,0.63,0.63,0.6235,0.6003,0.5822,0.528,0.4201,0.3167,0.2214,0.1276,0.0438,0.0,0.0,0.0,-0.0032,-0.0097,-0.1517,-0.2235,-0.2311,-0.3826,-0.4501,-0.4501,-0.4494,-0.4491,-0.4491,-0.4546,-0.4951,-0.5595,-0.6391,-0.7117,-0.7851,-0.856,-0.8837,-0.8837,0.0,0.0,0.0,0.0,0.0,0.0,0.0,0.0,0.0,0.0,0.0,0.0,0.0,-0.7356,-0.6916,-0.6905,-0.6949,0.0,0.0,0.0,0.0,-0.7224,-0.799,-0.8039,-0.7224,-0.7975,-0.787,0.0,0.0,-0.6756,-0.6854,-0.6705,-0.6466,-0.6108,-0.4465,-0.2971,-0.1671,-0.0499,0.0,0.0,0.0,0.0,0.0,0.0,0.0,0.0,0.0,-0.0272,-0.0959,-0.3052,-0.3963,-0.4598,-0.6647,-0.6753,-0.5741,-0.3839,-0.1724,0.0,0.0,0.0,0.0,0.0,0.0904,0.2062,0.3163,0.4292,0.5407,0.6557,0.6739,0.6702,0.6702,0.6787,0.681,0.6661,0.659,0.6545,0.6399,0.633,0.63,0.63,0.63,0.63,0.63,0.6169,0.6047,0.5895,0.5749,0.5212,0.4118,0.3734,0.3111,0.2242,0.1307,0.0566,0.0,0.0,0.0,0.0,-0.101,-0.174,-0.2242,-0.3307,-0.4042,-0.4491,-0.4491,-0.4491,-0.4491,-0.4491,-0.4632,-0.4919,-0.561,-0.634,-0.7082,-0.7832,-0.8389,-0.8804,0.0,0.0,0.0,0.0,0.0,0.0,0.0,0.0,0.0,0.0,0.0,0.0,0.0,0.0,-0.7533,-0.7139,-0.7142,-0.7217,-0.7217,-0.7217,-0.7348,-0.7741,-0.8585,-0.8773,-0.8273,0.0,0.0,0.0,0.0,0.0,0.0,-0.6546,-0.6542,-0.6481,-0.4875,-0.3471,-0.217,-0.1081,-0.036,0.0,0.0,0.0,0.0,0.0,0.0,0.0,0.0,0.0,-0.037,-0.2926,-0.3733,-0.4059,-0.6615,-0.6839,-0.5773,-0.3796,-0.1951,-0.0441,-0.0079,0.0,0.0,0.0,0.0602,0.1492,0.2555,0.366,0.4752,0.5867,0.6339,0.6552,0.6552,0.6552,0.6536,0.6521,0.6511,0.6463,0.632,0.63,0.63,0.63,0.63,0.63,0.63,0.6169,0.602,0.5817,0.5715,0.0,0.4528,0.4184,0.3613,0.2744,0.1775,0.103,0.0458,0.0157,0.0,0.0,-0.076,-0.137,-0.187,-0.2901,-0.3627,-0.4101,-0.438,-0.4491,-0.4491,-0.4491,-0.4491,-0.4574,-0.5234,-0.5937,-0.6686,-0.7429,-0.8157,-0.8804,0.0,0.0,0.0,0.0,0.0,0.0,0.0,0.0,0.0,-1.1922,0.0,0.0,0.0,0.0,0.0,-0.7241,-0.7292,-0.7426,-0.7426,-0.7426,-0.7913,-0.9066,0.0,0.0,0.0,0.0,0.0,0.0,0.0,0.0,0.0,0.0,-0.6546,-0.6647,-0.548,-0.4296,-0.3091,-0.2179,-0.1082,0.0,0.0,0.0,0.0,0.0,0.0,0.0,0.0,0.0,-0.0372,-0.2928,-0.3701,-0.4036,-0.6581,-0.6349,-0.488,-0.3749,-0.2553,-0.1375,0.0,0.0,0.0,0.0,0.0,0.0316,0.1531,0.0,0.3381,0.4588,0.5562,0.6222,0.6261,0.6261,0.6305,0.6477,0.6504,0.6457,0.632,0.63,0.63,0.63,0.63,0.63,0.63,0.6296,0.6166,0.5823,0.5796,0.5667,0.5412,0.4553,0.3647,0.2778,0.1841,0.1338,0.1305,0.0444,0.0,0.0,-0.0722,-0.1091,-0.1146,-0.2571,-0.3272,-0.3355,-0.4132,-0.4487,-0.4491,-0.4491,-0.4491,-0.4574,-0.5207,-0.591,-0.667,-0.7406,-0.8141,-0.8778,0.0,0.0,0.0,0.0,0.0,0.0,0.0,0.0,-1.3851,0.0,0.0,0.0,-1.1793,-1.0144,-0.8603,-0.7554,-0.7512,-0.7536,-0.7536,-0.7536,-0.8033,-0.907,-1.0149,0.0,0.0,0.0,0.0,0.0,0.0,0.0,0.0,0.0,0.0,0.0,-0.6163,-0.5402,-0.4163,-0.2395,-0.1009,0.0,0.0,0.0,0.0,0.0,0.0,0.0,0.0,0.0,-0.0387,-0.3051,-0.3815,-0.3987,-0.6334,-0.6243,-0.5036,-0.3702,-0.257,-0.1471,-0.0317,0.0,0.0,0.0,0.0,0.0,0.1383,0.0,0.2313,0.3388,0.3806,0.4217,0.5002,0.5157,0.5372,0.6048,0.6247,0.6344,0.6306,0.63,0.63,0.63,0.63,0.63,0.63,0.6159,0.6013,0.0,0.5705,0.5597,0.5405,0.516,0.4586,0.368,0.2788,0.1982,0.1303,0.044,0.0,0.0,-0.0205,-0.0573,-0.1118,-0.1536,-0.2286,-0.3309,-0.3531,-0.395,-0.4491,-0.4491,-0.4491,-0.4519,-0.4719,-0.5183,-0.59,-0.6629,-0.7379,-0.8076,0.0,0.0,0.0,0.0,0.0,0.0,0.0,0.0,-1.5033,0.0,0.0,0.0,-1.275,-1.1621,-1.0255,-0.8662,-0.8548,-0.8353,-0.7784,-0.824,-0.8996,-1.003,-1.1533,-1.242,0.0,0.0,0.0,0.0,0.0,0.0,0.0,0.0,0.0,0.0,0.0,0.0,-0.4628,-0.3458,-0.2094,-0.0645,-0.018,0.0,0.0,0.0,0.0,0.0,0.0,-0.0342,-0.1177,-0.3304,-0.4562,-0.5455,-0.6602,-0.6552,-0.5768,-0.4453,-0.3579,-0.2827,-0.1621,-0.098,-0.0667,-0.0667,0.0,0.0,0.0784,0.1293,0.1758,0.0,0.2811,0.3301,0.3911,0.402,0.4187,0.4723,0.4883,0.5255,0.608,0.6259,0.63,0.63,0.63,0.63,0.63,0.6179,0.6037,0.5817,0.5725,0.5586,0.5405,0.5395,0.516,0.4586,0.372,0.2808,0.1898,0.0987,0.0374,0.0,0.0,-0.0234,-0.0661,-0.096,-0.1564,-0.2423,-0.3056,-0.3583,-0.4036,-0.4374,-0.4491,-0.4491,-0.4491,-0.4913,-0.5548,-0.5982,-0.6805,-0.775,0.0,0.0,0.0,0.0,0.0,0.0,0.0,0.0,0.0,0.0,-1.5028,-1.4572,-1.3385,-1.3327,-1.2518,-1.0297,-1.0157,-0.9715,-0.8556,-0.9466,-1.0544,-1.1643,-1.3005,-1.4133,-1.5017,0.0,0.0,0.0,0.0,0.0,0.0,0.0,0.0,0.0,0.0,0.0,0.0,-0.4895,-0.3692,-0.1689,-0.0621,-0.0139,0.0,0.0,0.0,0.0,0.0,-0.0748,-0.2015,-0.3479,-0.5465,-0.7356,-0.7145,-0.7011,-0.6701,-0.5477,-0.5033,-0.4645,-0.342,-0.2464,-0.1723,-0.1646,-0.09,0.0,-0.0039,0.0741,0.143,0.0,0.2143,0.28,0.2919,0.2942,0.2976,0.3074,0.3081,0.3696,0.5424,0.5831,0.596,0.596,0.596,0.596,0.596,0.6024,0.5975,0.5653,0.5691,0.5637,0.5409,0.5395,0.5395,0.5395,0.4486,0.3613,0.2845,0.1831,0.0904,0.0128,0.0061,0.0,-0.003,-0.0685,-0.101,-0.1178,-0.2647,-0.3279,-0.3387,-0.4177,-0.4491,-0.4491,-0.4491,-0.4862,-0.5416,-0.5565,-0.6443,-0.7589,-2.6024,0.0,0.0,0.0,0.0,0.0,0.0,0.0,0.0,-1.5487,-1.511,-1.467,-1.3826,-1.3538,-1.2987,-1.1969,-1.1683,-1.1531,-1.1556,-1.1516,-1.1937,-1.2976,-1.3548,-1.4311,-1.5317,-1.5074,0.0,0.0,0.0,0.0,0.0,0.0,0.0,0.0,0.0,0.0,0.0,-0.5257,-0.4189,-0.2943,-0.1885,-0.0851,0.0,0.0,0.0,0.0,0.0,-0.0151,-0.0749,-0.2957,-0.4724,-0.612,-0.6873,-0.7078,-0.6823,-0.5501,-0.5085,-0.4777,-0.3474,-0.2968,-0.2618,-0.1802,-0.1429,0.0,-0.0191,0.015,0.0295,0.0,0.0477,0.0878,0.1746,0.189,0.2129,0.2824,0.3043,0.3237,0.3619,0.3703,0.3724,0.3724,0.3724,0.3724,0.3724,0.4395,0.4759,0.4545,0.5099,0.5457,0.5399,0.5395,0.5395,0.5395,0.4486,0.3915,0.3747,0.2131,0.1203,0.1026,0.0338,0.0,0.0,-0.0141,-0.0533,-0.115,-0.2046,-0.2792,-0.3442,-0.4177,-0.4491,-0.4491,-0.4491,-0.457,-0.4838,-0.5955,-0.6561,-0.6993,-2.5961,0.0,0.0,0.0,0.0,0.0,0.0,0.0,0.0,-1.6089,-1.5705,-1.553,-1.5126,-1.4936,-1.4425,-1.3446,0.0,0.0,0.0,-1.264,-1.3095,-1.3637,-1.4434,-1.5018,-1.5404,-1.5398,0.0,0.0,0.0,0.0,0.0,0.0,0.0,0.0,0.0,0.0,0.0,0.0,-0.527,-0.4124,-0.245,0.0,0.0,0.0,0.0,0.0,0.0,-0.0454,-0.1352,-0.3797,-0.5104,0.0,-0.6805,-0.7149,-0.7108,-0.6248,-0.5952,-0.5732,-0.5012,-0.4371,-0.3789,-0.3283,-0.2689,0.0,0.0,-0.0718,-0.0517,-0.0073,0.0,0.0181,0.0704,0.0806,0.0942,0.1374,0.1526,0.154,0.154,0.2459,0.311,0.311,0.311,0.311,0.311,0.3511,0.3911,0.4196,0.4935,0.5395,0.5395,0.5395,0.5395,0.5395,0.4954,0.4486,0.4015,0.2678,0.1772,0.1291,0.0408,0.0,0.0,0.0,-0.0196,-0.0589,-0.1319,-0.2096,-0.2856,-0.3641,-0.4177,-0.4491,-0.4491,-0.4491,-0.4625,-0.5655,-0.6285,-0.675,-2.5764,0.0,0.0,0.0,0.0,0.0,0.0,0.0,0.0,-1.6566,-1.6319,-1.638,-1.6489,-1.6489,-1.6097,-1.518,-1.4855,0.0,-1.3095,-1.3796,-1.4262,-1.4262,-1.5242,-1.5691,-1.5404,-1.5398,-1.5137,0.0,0.0,0.0,0.0,0.0,0.0,0.0,0.0,0.0,0.0,-0.6824,-0.6245,-0.4966,0.0,-0.1422,-0.0334,-0.0384,-0.0246,0.0,0.0,-0.0704,-0.1993,-0.4434,-0.5334,-0.5628,-0.6805,-0.7272,0.0,-0.7017,-0.682,-0.6668,-0.6555,-0.5765,-0.496,-0.4766,-0.3937,-0.2974,0.0,0.0,0.0,-0.0432,-0.0251,-0.0212,-0.0034,0.0,0.0,0.0,0.0,0.0,0.0,0.1461,0.0,0.2488,0.2489,0.2489,0.2489,0.2655,0.3154,0.4092,0.4748,0.5226,0.5395,0.5395,0.5395,0.5395,0.5395,0.5024,0.4284,0.3228,0.233,0.157,0.0507,0.0,0.0,0.0,0.0,-0.0028,-0.0785,-0.1506,-0.227,-0.3053,-0.3812,-0.4491,-0.4491,-0.4491,-0.457,-0.5242,-0.5955,-0.6696,-2.6304,-2.4607,0.0,0.0,0.0,0.0,0.0,0.0,0.0,0.0,-1.65,-1.676,-1.7072,-1.7105,-1.7368,-1.7945,-1.6823,-1.6331,-1.6905,-1.6104,-1.5588,-1.5588,-1.573,-1.5691,-1.5404,-1.5398,-1.5237,0.0,0.0,0.0,0.0,0.0,0.0,0.0,-0.6759,0.0,-0.6836,0.0,-0.63,0.0,-0.3924,-0.2657,0.0,-0.1729,-0.1054,0.0,0.0,-0.01,-0.059,0.0,-0.4002,-0.4409,0.0,-0.7402,-0.7312,-0.7017,0.0,0.0,0.0,0.0,0.0,0.0,-0.4525,-0.4044,-0.3001,0.0,-0.2273,-0.1354,0.0,-0.0913,-0.0135,0.0,0.0,0.0,0.0,0.0,0.0,0.02,0.0343,0.0352,0.0352,0.0352,0.0352,0.1066,0.2195,0.3899,0.4123,0.4519,0.5359,0.5395,0.5395,0.5395,0.5395,0.5359,0.5226,0.3556,0.2656,0.2526,0.0825,0.0,0.0,0.0,0.0,-0.0028,-0.0785,-0.1506,-0.227,-0.301,-0.3769,-0.4491,-0.4491,-0.4491,-0.457,-0.5242,-0.5955,-0.6696,-2.5532,-2.4221,0.0,0.0,0.0,0.0,0.0,0.0,0.0,0.0,0.0,-1.7261,-1.744,-1.7454,-1.7622,-1.8183,-1.7495,-1.7041,-1.7074,-1.6453,-1.6012,-1.5791,-1.5784,-1.5691,-1.5404,-1.5565,-1.5424,-1.5008,-1.4836,0.0,0.0,0.0,0.0,0.0,-0.7243,-0.6903,-0.6889,0.0,-0.6775,0.0,0.0,-0.3998,0.0,-0.135,-0.0495,0.0,0.0,0.0,-0.0293,0.0,-0.3173,0.0,0.0,0.0,0.0,-0.7071,0.0,0.0,0.0,0.0,0.0,0.0,0.0,0.0,-0.4063,0.0,-0.3189,-0.2298,0.0,0.0,0.0,0.0,0.0,0.0,-0.1564,0.0,0.0,0.0,-0.118,-0.0137,0.0,0.0,0.0,0.0785,0.1608,0.2376,0.2945,0.3647,0.4553,0.4586,0.4858,0.5491,0.544,0.5436,0.5528,0.3635,0.2689,0.2676,0.0862,0.0,0.0,0.0,0.0,-0.0028,-0.0336,-0.1117,-0.2223,-0.2538,-0.3375,-0.4491,-0.4491,-0.4491,-0.457,-0.5242,-0.5955,-0.6696,-2.4491,-2.3681,-2.3091,0.0,0.0,0.0,0.0,0.0,0.0,0.0,-1.7021,-1.7555,-1.7802,-1.7836,-1.8023,-1.8484,-1.7949,-1.7442,-1.7094,-1.6567,-1.6139,-1.5798,-1.5784,-1.5691,-1.5404,-1.5605,-1.5504,-1.5129,0.0,0.0,0.0,0.0,0.0,0.0,0.0,-0.7041,-0.695,-0.7051,-0.7095,-0.7017,-0.5947,-0.4582,-0.2863,-0.0803,0.0,0.0,0.0,0.0,-0.0193,-0.1455,-0.2481,0.0,-0.4591,0.0,-0.6882,0.0,0.0,0.0,-0.6729,0.0,0.0,0.0,0.0,0.0,0.0,0.0,0.0,0.0,0.0,0.0,0.0,0.0,0.0,0.0,0.0,-0.2642,0.0,-0.2685,0.0,0.0,0.0,0.0,0.0,0.0442,0.104,0.1273,0.1941,0.2711,0.358,0.3647,0.4121,0.5139,0.5078,0.5075,0.5176,0.3522,0.2585,0.2305,0.0737,0.0,0.0,0.0,0.0,0.0,0.0,-0.0727,-0.1927,-0.212,-0.2982,-0.4211,-0.4432,-0.4491,-0.457,-0.5058,-0.5683,-0.6394,-2.3461,-2.3135,-2.3091,0.0,0.0,0.0,0.0,0.0,0.0,-1.6912,-1.6967,-1.7548,-1.837,-1.8464,-1.8804,-1.9666,-1.8417,-1.7702,-1.7929,-1.6921,-1.6139,-1.5798,-1.5784,-1.5691,-1.5404,-1.5404,-1.5398,-1.5384,0.0,0.0,0.0,0.0,0.0,0.0,-0.7731,-0.7095,-0.7088,-0.7095,-0.7095,-0.7007,-0.5852,-0.3982,-0.1712,0.0,0.0,0.0,0.0,0.0,0.0,-0.156,-0.2019,0.0,0.0,0.0,0.0,0.0,0.0,0.0,0.0,0.0,0.0,-0.6303,0.0,0.0,0.0,0.0,-0.5096,0.0,0.0,0.0,0.0,0.0,0.0,-0.252,0.0,0.0,0.0,-0.262,-0.2678,-0.2611,0.0,0.0,0.0,-0.0471,0.0404,0.124,0.134,0.1742,0.2678,0.2744,0.3147,0.402,0.4051,0.4051,0.4054,0.3158,0.2244,0.1332,0.0417,0.0,0.0,0.0,0.0,0.0,0.0,-0.0421,-0.1177,-0.1899,-0.2676,-0.3511,-0.4211,-0.4491,-0.4491,-0.4515,-0.4948,-0.5651,-2.4469,-2.3637,-2.3091,-2.3091,-2.3091,0.0,0.0,-2.0526,-1.9829,-1.9052,-1.8416,-1.8377,-1.9265,-1.9185,-1.9265,-1.976,-1.8811,-1.8143,-1.8002,-1.7295,-1.677,-1.642,-1.6413,-1.6273,-1.5985,-1.5979,-1.5879,-1.5678,0.0,0.0,0.0,0.0,0.0,0.0,0.0,-0.7095,0.0,0.0,0.0,0.0,0.0,-0.3721,-0.276,0.0,0.0,0.0,0.0,0.0,0.0,-0.0505,-0.1185,-0.1945,-0.2351,-0.3755,-0.5251,-0.5213,-0.5911,0.0,0.0,0.0,-0.6419,-0.6323,0.0,0.0,0.0,0.0,0.0,0.0,0.0,0.0,0.0,0.0,0.0,0.0,0.0,0.0,0.0,-0.4465,-0.4486,-0.4486,-0.3145,-0.2225,0.0,0.0,-0.0752,-0.0457,0.0098,0.0817,0.1729,0.1758,0.2228,0.3233,0.3177,0.3173,0.3267,0.2277,0.1624,0.1302,0.042,0.0,0.0,0.0,0.0,0.0,0.0,-0.0421,-0.115,-0.1902,-0.2681,-0.3483,-0.4211,-0.4491,-0.4491,-0.4491,-0.4921,-0.5678,-2.451,-2.3584,-2.3091,-2.3091,-2.3227,0.0,0.0,0.0,-2.0606,-2.0182,-1.9241,-1.8898,-1.9573,-1.9479,-1.9446,-1.9633,-1.8938,-1.8364,-1.8009,-1.7382,-1.6907,-1.6714,-1.6506,-1.6353,-1.6279,-1.6166,-1.6019,-1.5784,0.0,-1.5197,0.0,0.0,0.0,0.0,0.0,-0.7095,-0.7095,-0.7095,-0.7095,0.0,0.0,-0.3972,0.0,0.0,-0.0645,-0.0605,0.0,0.0,0.0,0.0,-0.0533,-0.1239,-0.1623,-0.2984,-0.4529,-0.4917,-0.5808,-0.66,-0.6538,-0.6474,0.0,-0.6323,-0.6101,0.0,-0.5912,0.0,-0.5542,0.0,0.0,0.0,0.0,0.0,0.0,0.0,0.0,0.0,0.0,-0.5848,-0.6002,-0.6364,-0.4467,-0.3155,-0.308,-0.2318,-0.1651,-0.1269,-0.0769,-0.0097,0.0,0.0,0.1306,0.2303,0.2231,0.223,0.2339,0.1656,0.1139,0.0838,0.0269,0.0,0.0,0.0,0.0,0.0,0.0,-0.028,-0.0785,-0.179,-0.2512,-0.3067,-0.4098,-0.4491,-0.4491,-0.4491,-0.5089,-0.6018,-2.3637,-2.3154,-2.312,-2.312,-2.3496,0.0,0.0,0.0,-2.124,-2.031,-1.9534,-1.9102,-1.943,-1.9444,-1.9424,-1.9424,-1.8818,-1.8343,-1.7989,-1.7208,-1.672,-1.6707,-1.6166,-1.5999,-1.6315,-1.5999,-1.5798,-1.5784,0.0,0.0,0.0,0.0,0.0,0.0,-0.8344,0.0,-0.7095,-0.7095,-0.7095,-0.7007,-0.5849,-0.4732,-0.357,-0.2281,-0.1789,-0.1654,-0.0449,0.0,0.0,0.0,-0.0043,-0.026,-0.1267,-0.2428,-0.3553,-0.4599,-0.5636,-0.6501,-0.6501,-0.6399,-0.6289,-0.6289,0.0,0.0,0.0,0.0,-0.5405,0.0,0.0,0.0,0.0,0.0,0.0,0.0,0.0,0.0,-0.6526,-0.6748,-0.7118,-0.8087,-0.5781,-0.4065,-0.3958,-0.3218,-0.2315,-0.1298,-0.1266,-0.0934,0.0,0.0,0.0393,0.1206,0.124,0.124,0.124,0.124,0.0806,0.0,0.0,0.0,0.0,0.0,0.0,0.0,0.0,0.0,-0.0112,-0.1591,-0.2204,-0.2343,-0.3901,-0.4491,-0.4491,-0.4491,-0.5344,-0.6505,-2.4628,-2.3941,-2.3623,0.0,-2.3447,-2.3382,0.0,0.0,0.0,0.0,-2.1003,-2.0409,-2.0046,-1.9626,-1.9424,-1.9424,-1.8624,-1.8029,-1.7722,-1.7281,-1.6941,-1.6714,-1.656,-1.6413,-1.6279,-1.6199,-1.6052,-1.5784,-1.5464,0.0,-1.5064,0.0,0.0,0.0,0.0,-0.7929,-0.7095,-0.7095,-0.7095,-0.7007,-0.5849,-0.5223,-0.4688,0.0,-0.1817,-0.1621,-0.0446,0.0,0.0,0.0,-0.0516,-0.1226,-0.1512,-0.2857,-0.441,-0.4656,-0.5505,-0.6354,-0.6354,-0.6203,-0.6088,-0.6088,-0.5945,-0.58,0.0,0.0,0.0,0.0,0.0,0.0,0.0,0.0,0.0,-0.5052,-0.5606,-0.6135,-0.6442,-0.715,-0.7754,-0.8005,-0.6722,-0.5845,-0.5954,-0.448,-0.3406,-0.3138,-0.1897,0.0,0.0,0.0,0.0,0.0337,0.0337,0.0337,0.0337,0.0337,0.0236,0.0,0.0,0.0,0.0,0.0,0.0,0.0,0.0,0.0,-0.0112,-0.1597,-0.2211,-0.2343,-0.3901,-0.4491,-0.4491,-0.4491,-0.4739,-0.5175,-2.5231,-2.4533,-2.4121,-2.4316,0.0,0.0,-2.4893,-2.4119,0.0,-2.3328,-2.2104,0.0,-2.034,-1.9625,-1.9072,-1.8811,-1.821,-1.7716,-1.7467,-1.7052,-1.6747,-1.6707,-1.646,-1.6306,-1.6321,-1.6019,-1.5872,-1.5784,-1.5284,0.0,-1.495,0.0,0.0,0.0,0.0,-0.8233,-0.7095,-0.7095,-0.7095,-0.7051,-0.6381,-0.5849,0.0,-0.3802,-0.2931,-0.2383,-0.161,-0.1081,-0.0684,-0.072,-0.1379,-0.2348,-0.2814,-0.3744,-0.4783,-0.5263,-0.581,-0.6286,-0.6179,-0.6095,-0.5976,-0.5909,-0.582,-0.5708,-0.5708,-0.5596,-0.5525,0.0,0.0,-0.5395,0.0,0.0,0.0,-0.51,-0.5821,-0.6571,-0.7035,-0.795,-0.871,-0.9096,-0.827,-0.7698,-0.7817,-0.5669,-0.417,-0.3911,-0.2957,0.0,0.0,0.0,0.0,0.0,0.0,0.0,0.0,0.0,0.0,0.0,0.0,0.0,0.0,0.0,0.0,0.0,0.0,0.0,-0.0084,-0.1234,-0.1902,-0.2364,-0.3898,-0.4491,-0.4491,-0.4491,-0.4688,-0.5053,-2.5457,-2.4872,-2.4619,0.0,0.0,0.0,0.0,-2.5288,0.0,-2.4584,0.0,-2.1328,-2.0404,-1.9368,-1.8524,-1.7922,-1.7642,-1.7393,-1.7105,-1.661,-1.6366,-1.658,-1.6066,-1.5912,-1.6213,-1.5638,-1.5484,-1.5772,0.0,0.0,0.0,0.0,0.0,0.0,0.0,0.0,0.0,-0.7068,-0.7078,-0.7095,-0.7095,-0.6416,-0.5326,-0.518,-0.4396,-0.334,-0.3149,-0.2544,-0.1789,-0.1797,-0.2466,-0.3491,-0.4403,-0.4805,-0.5076,-0.5999,-0.6269,-0.6235,-0.6044,-0.5949,-0.5902,-0.5806,-0.5667,-0.5559,-0.5559,-0.5491,-0.5395,-0.5395,-0.5395,-0.5395,0.0,0.0,0.0,0.0,0.0,0.0,-0.7705,-0.8678,-0.9594,-1.0333,-0.9621,0.0,-0.93,-0.6782,-0.4926,-0.4403,0.0,0.0,0.0,0.0,0.0,-0.0034,0.0,0.0,0.0,0.0,0.0,0.0,0.0,0.0,0.0,0.0,0.0,0.0,0.0,0.0,-0.0056,-0.0898,-0.173,-0.2631,-0.3978,-0.4491,-0.4491,-0.4491,-0.486,-0.5376,-2.4872,-2.4788,-2.498,0.0,0.0,-2.5771,-2.6211,-2.6427,-2.5979,-2.4422,-2.3519,-2.2298,-2.0339,-1.8765,-1.7682,-1.7387,-1.7034,0.0,0.0,0.0,0.0,-1.5992,-1.5651,-1.5611,-1.5899,-1.5337,-1.5177,-1.5471,0.0,0.0,0.0,0.0,0.0,0.0,0.0,0.0,-0.6923,-0.6923,0.0,-0.7095,-0.7095,-0.6314,-0.517,-0.5107,-0.4269,-0.3153,-0.3097,-0.2972,-0.2847,-0.2837,-0.3555,-0.4438,-0.4654,-0.5315,-0.6037,-0.6029,-0.6071,-0.6037,-0.5881,-0.5755,-0.5661,-0.5633,-0.5545,-0.5436,-0.5436,-0.5416,-0.5395,-0.5395,-0.5395,-0.5395,-0.5395,0.0,0.0,0.0,0.0,0.0,0.0,-0.8285,-0.937,-0.9498,-0.8622,-0.8321,-0.9218,0.0,0.0,0.0,0.0,0.0,0.0,0.0,0.0,0.0,0.0,0.0,0.0,0.0,0.0,0.0,0.0,0.0,0.0,0.0,0.0,0.0,0.0,0.0,-0.0112,-0.1459,-0.2826,-0.4119,-0.4405,-0.4491,-0.4491,-0.4491,-0.4574,-0.4746,-2.5073,0.0,-2.5184,-2.5371,0.0,0.0,0.0,-2.6416,-2.6185,-2.4803,-2.3788,-2.2605,-2.1123,-1.9263,-1.7958,-1.7697,-1.6949,-1.6359,-1.6059,-1.5905,-1.5752,-1.5611,-1.5331,-1.5237,-1.5378,-1.4957,-1.4877,-1.517,0.0,0.0,0.0,0.0,0.0,0.0,0.0,-0.7508,0.0,0.0,0.0,-0.6987,-0.6987,-0.6549,-0.59,-0.5832,-0.544,-0.4844,-0.4788,-0.4767,-0.4688,-0.413,-0.4653,-0.5512,-0.5512,-0.5816,-0.6125,-0.6013,-0.5936,-0.5878,-0.5732,-0.564,-0.5569,-0.5525,-0.545,-0.5395,-0.5395,-0.5395,-0.5395,-0.5395,-0.5395,-0.5395,-0.5395,-0.5334,0.0,0.0,0.0,0.0,0.0,0.0,-0.8602,-0.847,-0.8001,-0.8147,-0.9302,0.0,0.0,0.0,0.0,0.0,0.0,0.0,0.0,0.0,0.0,0.0,0.0,0.0,0.0,0.0,0.0,0.0,0.0,0.0,0.0,0.0,0.0,-0.0224,-0.0673,-0.2151,-0.3206,-0.3923,-0.4346,-0.4491,-0.4491,-0.4491,-0.4491,-0.4546,-2.5547,-2.511,0.0,0.0,-2.5742,-2.585,-2.546,-2.5752,-2.5752,-2.5194,-2.3877,-2.2694,-2.1922,-2.0012,-1.861,-1.8048,-1.706,-1.6259,-1.5752,-1.5464,-1.5304,-1.5304,-1.5023,-1.4948,-1.5008,-1.4609,-1.4576,0.0,0.0,0.0,0.0,0.0,0.0,0.0,0.0,0.0,0.0,0.0,-0.6957,-0.6883,-0.6852,-0.679,-0.6637,-0.6559,-0.6494,-0.6453,-0.634,-0.63,-0.6177,-0.5283,-0.5547,-0.6245,-0.6211,-0.6081,-0.5939,-0.5909,-0.585,-0.5725,-0.5583,-0.5542,-0.5545,-0.5426,-0.5395,-0.5395,-0.5395,-0.5395,-0.5395,-0.5395,-0.5395,-0.5395,-0.5395,-0.5395,0.0,0.0,0.0,0.0,0.0,0.0,-0.7844,-0.7456,-0.7788,-0.8325,-0.9023,0.0,0.0,0.0,0.0,0.0,-0.429,0.0,0.0,0.0,0.0,-0.0339,-0.0337,0.0,0.0,0.0,0.0,0.0,0.0,0.0,0.0,0.0,-0.0168,-0.0728,-0.1649,-0.2809,-0.3387,-0.3613,-0.4263,-0.4491,-0.4491,-0.4491,-0.4491,-0.4491,0.0,0.0,0.0,0.0,0.0,0.0,-2.4551,-2.457,-2.4717,-2.5077,-2.3877,-2.2751,-2.2069,-2.0674,-1.924,-1.7852,-1.7346,-1.662,-1.553,-1.5209,-1.5048,-1.5048,-1.4716,-1.4689,-1.5001,-1.4416,-1.4269,0.0,0.0,-1.3487,0.0,0.0,0.0,0.0,0.0,0.0,0.0,-0.6797,-0.6814,-0.6873,-0.6776,-0.663,-0.6532,-0.6518,-0.6433,-0.6317,-0.6306,-0.63,-0.624,-0.5985,-0.5938,-0.599,-0.5888,-0.5833,-0.5796,-0.5671,-0.5623,-0.5576,-0.5457,-0.5416,-0.5412,-0.5399,-0.5395,-0.5395,-0.5395,-0.5395,-0.5395,-0.5395,-0.5395,-0.5395,-0.5395,-0.5395,-0.5653,0.0,0.0,0.0,0.0,0.0,-0.7624,-0.6625,-0.8064,-0.8768,-0.7791,-0.9539,0.0,0.0,-0.7571,0.0,0.0,0.0,0.0,-0.2613,0.0,-0.1459,-0.1451,-0.0472,0.0,0.0,0.0,0.0,0.0,0.0,0.0,-0.0028,-0.0701,-0.1788,-0.3111,-0.3247,-0.3724,-0.4405,-0.446,-0.4491,-0.4491,-0.4491,-0.4491,-0.4491,0.0,0.0,0.0,0.0,0.0,0.0,0.0,-2.3662,-2.3535,-2.3203,-2.3357,-2.3172,-2.2394,-2.0569,-1.906,-1.8176,-1.6559,-1.5383,-1.4914,-1.4429,-1.4168,-1.4168,-1.3895,-1.3874,-1.4162,-1.3774,-1.3788,0.0,0.0,0.0,0.0,0.0,0.0,0.0,0.0,-0.6836,-0.6787,-0.6725,-0.6681,-0.6651,-0.6586,-0.6515,-0.6385,-0.6385,-0.6351,-0.6286,-0.6156,-0.6122,-0.6084,-0.5847,-0.5884,-0.5966,-0.5847,-0.5742,-0.5664,-0.5606,-0.5559,-0.5474,-0.5412,-0.5327,-0.5247,-0.5371,-0.5324,-0.5247,-0.5375,-0.5324,-0.525,-0.5375,-0.5395,-0.5395,-0.5395,-0.5395,-0.5524,0.0,0.0,0.0,0.0,0.0,0.0,-0.5574,0.0,-0.6634,-0.6832,-0.8417,0.0,0.0,0.0,0.0,0.0,0.0,0.0,-0.3792,0.0,-0.1466,-0.1585,-0.0539,0.0,0.0,0.0,0.0,0.0,0.0,0.0,-0.0056,-0.1254,-0.2083,-0.2715,-0.3641,-0.4205,-0.4491,-0.4491,-0.4491,-0.4491,-0.4491,-0.4491,-0.4491,-2.6394,0.0,-2.4654,0.0,-2.3831,-2.3477,-2.2924,-2.2773,-2.2559,-2.1963,-2.2666,-2.2998,-2.2393,-2.0763,-1.9325,-1.8369,-1.6407,-1.4916,-1.4262,-1.3753,-1.3473,-1.3473,-1.332,0.0,-1.3467,-1.3313,-1.3414,-1.3828,-1.3281,0.0,0.0,0.0,0.0,0.0,-0.6861,-0.6803,-0.6698,-0.6654,-0.6569,-0.6508,-0.6467,-0.6388,-0.63,-0.63,-0.63,-0.6279,-0.6084,-0.5993,-0.5946,-0.5691,-0.5728,-0.5874,-0.5722,-0.5603,-0.5556,-0.5556,-0.5446,-0.5327,-0.5327,-0.5182,-0.5063,-0.5203,-0.5148,-0.5066,-0.5206,-0.5148,-0.5079,-0.526,-0.5327,-0.5341,-0.5385,-0.5395,-0.5491,-0.5752,0.0,0.0,0.0,-0.5581,0.0,-0.5293,-0.5688,-0.6062,-0.6265,-0.7757,0.0,0.0,0.0,0.0,0.0,0.0,0.0,0.0,0.0,0.0,0.0,-0.0679,0.0,0.0,0.0,0.0,0.0,0.0,-0.0112,-0.0392,-0.1643,-0.233,-0.2631,-0.395,-0.4491,-0.4491,-0.4491,-0.4491,-0.4491,-0.4491,-0.4491,-0.4491,-2.6496,-2.4781,-2.3313,-2.3313,-2.2564,-2.1914,-2.1904,-2.1904,-2.1894,-2.1885,-2.1894,-2.1904,-2.1894,-2.1463,-2.0323,-1.8188,-1.7291,-1.5928,-1.3729,-1.334,-1.3213,0.0,0.0,-1.3213,-1.3213,-1.3213,-1.3213,-1.322,0.0,0.0,-0.9718,0.0,-0.66,-0.6705,-0.6705,-0.6702,-0.6692,-0.6539,-0.6515,-0.6501,-0.6358,-0.6303,-0.63,-0.63,-0.63,-0.6279,-0.6084,-0.5993,-0.5946,-0.5691,-0.5593,-0.5569,-0.545,-0.5399,-0.5399,-0.5399,-0.5254,-0.5103,-0.5103,-0.4999,-0.4891,-0.4894,-0.4891,-0.4891,-0.4894,-0.4891,-0.4931,-0.5073,-0.5103,-0.5179,-0.5365,-0.5395,-0.5686,-0.656,0.0,0.0,0.0,-0.6387,0.0,-0.6186,-0.7821,-0.8182,-0.6194,-0.8131,0.0,0.0,0.0,0.0,0.0,0.0,0.0,-0.5405,-0.3765,0.0,-0.2868,-0.0967,0.0,0.0,0.0,0.0,0.0,0.0,-0.0393,-0.1122,-0.1881,-0.2599,-0.336,-0.4177,-0.4491,-0.4491,-0.4491,-0.4491,-0.4491,-0.4491,-0.4491,-0.4491,-2.5138,-2.4137,-2.3078,-2.205,-2.1874,-2.1582,-2.0684,-2.0791,-2.0811,-2.0233,-2.0117,-2.0117,-2.0117,-1.9875,-1.8921,0.0,-1.5713,-1.4507,0.0,-1.2752,-1.2592,-1.2592,-1.2592,-1.2685,-1.2924,-1.2699,-1.244,-1.2194,0.0,0.0,0.0,-0.8113,-0.742,-0.6695,-0.659,-0.6546,-0.6536,-0.6429,-0.6368,-0.6364,-0.6317,-0.6235,-0.6101,-0.6101,-0.6037,-0.5928,-0.5783,-0.5732,-0.5698,-0.5535,-0.5467,-0.544,-0.5254,-0.5277,-0.5375,-0.5237,-0.5137,-0.5076,-0.4982,-0.4877,-0.4789,-0.4864,-0.484,-0.4792,-0.4864,-0.4887,-0.4901,-0.4945,-0.5032,-0.5147,-0.5365,-0.5395,-0.5491,-0.5785,-0.5587,0.0,-0.5498,0.0,-0.532,-0.5185,-0.5628,-0.5685,-0.5046,-0.6447,0.0,0.0,0.0,0.0,0.0,0.0,0.0,0.0,-0.4362,0.0,-0.3636,-0.2354,-0.1624,-0.1487,-0.0982,-0.0757,-0.0757,-0.0757,-0.115,-0.1881,-0.2673,-0.3137,-0.336,-0.4177,-0.4491,-0.4491,-0.4491,-0.4491,-0.4491,-0.4491,-0.4491,-0.4491,-2.4194,-2.3412,-2.2556,-2.125,-2.0996,-2.0635,-1.9805,-1.9912,-1.993,-1.9355,-1.9287,-1.9219,-1.9062,-1.8611,0.0,-1.6175,-1.5155,-1.4015,-1.2692,-1.2405,-1.2305,-1.2305,-1.2305,-1.2392,-1.2616,-1.2398,0.0,-1.1917,-1.097,-0.9491,-0.7604,-0.7604,-0.7247,-0.6532,-0.6474,-0.6399,-0.6302,-0.621,-0.6139,-0.6126,-0.6126,-0.603,-0.5905,-0.5905,-0.5884,-0.5783,-0.564,-0.5589,-0.5566,-0.5446,-0.5354,-0.5257,-0.513,-0.5162,-0.5176,-0.5049,-0.4978,-0.4945,-0.4857,-0.4721,-0.4655,-0.4724,-0.4674,-0.4658,-0.4724,-0.4748,-0.4765,-0.4819,-0.4904,-0.5013,-0.5165,-0.524,-0.5257,-0.5235,-0.524,-0.5203,-0.4996,0.0,-0.4914,0.0,0.0,0.0,0.0,-0.5843,-0.616,0.0,0.0,0.0,0.0,0.0,0.0,-0.5637,-0.4591,0.0,-0.4017,-0.3013,-0.2424,-0.2319,-0.1765,-0.1375,-0.1122,-0.1398,-0.1619,-0.1843,-0.2601,-0.2929,-0.2938,-0.3415,-0.3809,-0.4036,-0.3751,-0.3978,-0.446,-0.4177,-0.4263,-0.4491,-2.3424,-2.2422,-2.1521,0.0,-1.9828,0.0,-1.917,-1.918,-1.9189,-1.916,-1.9131,-1.8919,-1.844,-1.7606,-1.6687,-1.5693,0.0,0.0,0.0,-1.2238,-1.2238,-1.2238,-1.2238,-1.2238,-1.2238,-1.2265,-1.2204,-1.2077,-1.0083,-0.8118,-0.6282,-0.6282,-0.6279,-0.6269,-0.6269,-0.6149,-0.5976,-0.5976,-0.5932,-0.58,-0.58,-0.5796,-0.5786,-0.5786,-0.5779,-0.5752,-0.5623,-0.5576,-0.5552,-0.5443,-0.5257,-0.5096,-0.5086,-0.4985,-0.4874,-0.4874,-0.4802,-0.4687,-0.4677,-0.46,-0.4491,-0.4491,-0.4491,-0.4491,-0.4491,-0.4491,-0.4535,-0.466,-0.4691,-0.4738,-0.486,-0.4995,-0.5042,-0.4911,-0.4999,-0.4985,-0.4731,-0.4691,-0.4999,0.0,0.0,0.0,0.0,-0.6028,-0.5647,0.0,0.0,0.0,0.0,0.0,-0.5644,-0.5402,-0.4544,-0.4105,-0.4069,-0.3134,-0.2627,-0.2548,-0.2376,-0.1908,-0.1288,-0.1974,-0.1909,-0.1298,-0.1991,-0.2242,-0.2189,-0.2189,-0.2607,-0.3166,-0.2467,-0.3081,-0.4267,-0.3558,-0.3754,-0.4349,0.0,0.0,-1.9157,-1.8335,-1.8532,-1.8574,-1.793,-1.8105,-1.8203,-1.7871,-1.7549,-1.7056,-1.6323,-1.605,-1.5277,-1.3729,-1.3685,-1.3127,-1.1713,-1.1595,-1.1595,-1.1595,-1.1595,-1.1595,-1.1595,-1.1857,-1.1338,-1.0013,-0.8008,-0.669,-0.6084,-0.6084,-0.602,-0.5911,-0.5911,-0.5888,-0.5857,-0.5857,-0.5833,-0.58,-0.58,-0.5735,-0.564,-0.564,-0.5566,-0.5494,-0.5463,-0.545,-0.5443,-0.5405,-0.5257,-0.5079,-0.4972,-0.4867,-0.4745,-0.4745,-0.4718,-0.4663,-0.4576,-0.4518,-0.4491,-0.4491,-0.4491,-0.4491,-0.4491,-0.4491,-0.4535,-0.466,-0.4691,-0.4738,-0.486,-0.4918,-0.4928,-0.4894,-0.4918,-0.4904,-0.4718,-0.4691,-0.4733,0.0,-0.4878,-0.4936,-0.4995,-0.4955,-0.4908,0.0,0.0,0.0,0.0,-0.5423,-0.5467,-0.5395,-0.519,-0.4984,-0.4848,-0.449,-0.395,-0.3191,-0.3141,-0.3005,-0.2781,-0.2965,-0.2933,-0.2798,-0.2966,-0.2728,-0.2212,-0.2212,-0.2298,-0.2437,-0.2268,-0.241,-0.2719,-0.2539,-0.2591,-0.2732,-1.9605,-1.8818,-1.8061,-1.7233,-1.7428,-1.7574,-1.7158,-1.7285,-1.7344,-1.7119,-1.6853,-1.6529,-1.6087,-1.533,-1.4408,-1.3305,-1.3152,-1.2626,-1.1471,-1.1389,-1.1389,-1.1389,-1.1389,-1.1217,-1.0798,-1.1368,-1.0776,-0.8993,-0.7488,-0.6482,-0.5925,-0.5925,-0.5881,-0.58,-0.58,-0.5766,-0.5705,-0.5705,-0.5664,-0.5599,-0.5599,-0.559,-0.5521,-0.5521,-0.5467,-0.5395,-0.5395,-0.5347,-0.5257,-0.5257,-0.5111,-0.4914,-0.484,-0.4711,-0.4614,-0.4614,-0.4614,-0.4597,-0.4511,-0.4491,-0.4491,-0.4491,-0.4491,-0.4491,-0.4491,-0.4491,-0.4511,-0.4597,-0.4614,-0.4641,-0.4694,-0.4769,-0.4792,-0.4721,-0.4769,-0.4762,-0.4638,-0.4614,0.0,-0.4501,-0.4552,-0.46,-0.4614,-0.4604,-0.4668,-0.4813,-0.4819,0.0,-0.5078,-0.5153,-0.5255,-0.5392,-0.5326,-0.5223,-0.5087,-0.4892,-0.4512,-0.3895,-0.3895,-0.3528,-0.2826,-0.3519,-0.3292,-0.2325,-0.2645,-0.2378,-0.1685,-0.1347,-0.1403,-0.1657,-0.1319,-0.1598,-0.216,-0.182,-0.1899,-0.2204,-1.9046,-1.8276,-1.7522,-1.6648,-1.6502,-1.6521,-1.659,-1.6599,-1.6599,-1.6599,-1.6541,-1.6408,-1.6179,-1.4839,-1.3728,-1.3195,-1.2787,-1.2198,-1.133,-1.1296,-1.1296,-1.1296,-1.1296,-1.0916,-1.0194,-1.0641,-1.0088,-0.8413,-0.7495,-0.6635,-0.5769,-0.5769,-0.5755,-0.5735,-0.5735,-0.5667,-0.5555,-0.5555,-0.5515,-0.5395,-0.5395,-0.5395,-0.5392,-0.5368,-0.5375,-0.5388,-0.5344,-0.5223,-0.5096,-0.5073,-0.4918,-0.4691,-0.4691,-0.4614,-0.4491,-0.4491,-0.4491,-0.4491,-0.4491,-0.4491,-0.4491,-0.4491,-0.4491,-0.4491,-0.4491,-0.4491,-0.4491,-0.4491,-0.4491,-0.4491,-0.4491,-0.4597,-0.4641,-0.4511,-0.46,-0.4641,-0.4508,0.0,-0.4491,-0.4491,-0.4604,-0.4641,-0.4535,-0.4624,-0.4641,-0.4532,-0.4624,-0.4667,-0.4691,-0.4813,-0.5013,-0.5317,-0.5173,-0.5052,-0.5026,-0.4809,-0.4632,-0.4491,-0.4377,-0.3644,-0.2413,-0.3619,-0.3028,-0.1133,-0.1761,-0.1628,-0.0898,-0.0252,-0.0364,-0.087,-0.0252,-0.0756,-0.1792,-0.1177,-0.1343,-0.187,-1.8058,-1.7233,-1.65,-1.5733,-1.5586,-1.5742,-1.6144,-1.6202,-1.6202,-1.6202,-1.584,-1.5072,-1.3726,-1.3328,-1.2601,-1.1192,-1.1012,-1.0887,-1.0727,-1.0727,-1.0727,-1.0727,-1.0727,-1.0663,-1.0528,-0.9325,-0.8299,-0.7491,-0.6508,-0.588,-0.5623,-0.5623,-0.5586,-0.5463,-0.5463,-0.545,-0.5429,-0.5429,-0.5416,-0.5395,-0.5395,-0.5395,-0.5382,-0.5216,-0.5247,-0.5361,-0.5077,-0.5019,-0.5079,-0.4961,-0.4836,-0.4691,-0.4691,-0.4614,-0.4491,-0.4491,-0.4491,-0.4491,-0.4491,-0.4491,-0.4491,-0.4491,-0.4491,-0.4491,-0.4491,-0.4491,-0.4491,-0.4491,-0.4491,-0.4491,-0.4491,-0.4508,-0.4518,-0.4494,-0.4508,-0.4515,-0.4494,0.0,-0.4491,-0.4491,-0.4511,-0.4566,-0.4675,-0.4586,-0.4569,-0.4675,-0.4586,-0.4583,-0.4684,-0.4714,-0.4806,-0.4982,-0.4938,-0.488,-0.4752,-0.471,-0.4632,-0.4491,-0.3865,-0.3403,-0.3119,-0.2723,-0.2035,-0.1105,-0.1228,-0.0842,-0.0168,-0.0056,-0.0056,-0.0168,-0.0056,-0.014,-0.0336,-0.0224,-0.0252,-0.0336,-1.6421,-1.5702,-1.5104,-1.4754,-1.4699,-1.4873,-1.5332,-1.5176,-1.5107,-1.5371,-1.499,-1.427,-1.3173,-1.2675,-1.2019,-1.1047,-1.0592,-1.0419,-1.0579,-1.0593,-1.0593,-1.0593,-1.0593,-1.0364,-0.9913,-0.7805,-0.6798,-0.6975,-0.6036,-0.5566,-0.5501,-0.5501,-0.5463,-0.5395,-0.5395,-0.5347,-0.5237,-0.5237,-0.5237,-0.5237,-0.5237,-0.5287,-0.5378,-0.5189,-0.5143,-0.5209,-0.4996,-0.4877,-0.4884,-0.4816,-0.4694,-0.4597,-0.4597,-0.4545,-0.4491,-0.4491,-0.4491,-0.4491,-0.4491,-0.4491,-0.4491,-0.4491,-0.4491,-0.4491,-0.4491,-0.4491,-0.4491,-0.4491,-0.4491,-0.4491,-0.4491,-0.4491,-0.4491,-0.4491,-0.4491,0.0,0.0,-0.4491,-0.4491,-0.4491,-0.4491,-0.4518,-0.459,-0.4532,-0.4518,-0.459,-0.4532,-0.4522,-0.4593,-0.4597,-0.4627,-0.467,-0.476,-0.4726,-0.4608,-0.4159,-0.3938,-0.391,-0.3121,-0.2541,-0.2107,-0.2165,-0.1568,-0.0529,-0.0924,-0.0673,0.0,0.0,0.0,0.0,0.0,0.0,0.0,0.0,0.0,0.0,-1.5236,-1.467,-1.4189,-1.4111,-1.4026,-1.4104,-1.457,-1.4319,-1.4221,-1.459,-1.42,-1.3602,-1.2913,-1.2125,-1.1474,-1.0968,-1.0359,-1.0114,-1.0372,-1.0385,-1.0445,-1.0586,-1.0396,-0.9786,-0.8665,-0.6664,-0.5839,-0.6274,-0.5611,-0.5293,-0.5293,-0.5293,-0.5293,-0.5293,-0.5293,-0.5192,-0.5049,-0.5049,-0.5049,-0.5049,-0.5049,-0.5152,-0.5272,-0.5087,-0.5019,-0.5026,-0.4877,-0.4762,-0.4684,-0.465,-0.4586,-0.4491,-0.4491,-0.4491,-0.4491,-0.4491,-0.4491,-0.4491,-0.4491,-0.4491,-0.4491,-0.4491,-0.4491,-0.4491,-0.4491,-0.4491,-0.4491,-0.4491,-0.4491,-0.4491,-0.4491,-0.4491,-0.4491,-0.4491,0.0,0.0,0.0,-0.4491,-0.4491,-0.4491,-0.4491,-0.4491,-0.4491,-0.4491,-0.4491,-0.4491,-0.4491,-0.4491,-0.4491,-0.4491,-0.4405,-0.4236,-0.4324,-0.433,-0.4242,-0.3436,-0.3079,-0.3109,-0.2319,-0.1649,-0.1122,-0.1515,-0.1066,-0.0028,-0.0589,-0.0533,0.0,0.0,0.0,0.0,0.0,0.0,0.0,0.0,0.0,0.0,-1.5339,-1.4873,-1.4474,-1.4159,-1.3782,-1.3665,-1.4094,-1.4124,-1.4114,-1.4153,-1.3576,-1.2859,-1.2089,-1.1371,-1.0665,-0.988,-0.9771,-0.9755,-0.9775,-0.9775,-1.0023,-1.0566,-0.9817,-0.8515,-0.6661,-0.6436,-0.5892,-0.504,-0.4982,-0.4952,-0.4952,-0.4952,-0.4952,-0.4952,-0.4952,-0.4914,-0.4904,-0.4904,-0.4904,-0.4904,-0.4904,-0.4911,-0.4935,-0.4782,-0.4813,-0.4897,-0.4631,-0.4607,-0.467,-0.4556,-0.4498,-0.4491,-0.4491,-0.4491,-0.4491,-0.4491,-0.4491,-0.4491,-0.4491,-0.4491,-0.4491,-0.4491,-0.4491,-0.4491,-0.4491,-0.4491,-0.4491,-0.4491,-0.4491,-0.4491,-0.4491,-0.4491,-0.4491,-0.4491,0.0,0.0,-0.4491,-0.4491,-0.4491,-0.4491,-0.4491,-0.4491,-0.4491,-0.4491,-0.4491,-0.4491,-0.4491,-0.4491,-0.4491,-0.4491,-0.4153,-0.34,-0.339,-0.3423,-0.3469,-0.2687,-0.2298,-0.2275,-0.1539,-0.1147,-0.1066,-0.0449,-0.0112,0.0,-0.0056,-0.0056,0.0,0.0,0.0,0.0,0.0,0.0,0.0,0.0,0.0,0.0,-1.3831,-1.365,-1.3501,-1.338,-1.3223,-1.3262,-1.3656,-1.3525,-1.3295,-1.3118,-1.2628,-1.1861,-1.0732,-1.0367,-1.0006,-0.9448,-0.9384,-0.9486,-0.9673,-0.9715,-0.9809,-1.0037,-0.878,-0.772,-0.6967,-0.5969,-0.5276,-0.4887,-0.4887,-0.4887,-0.4887,-0.4887,-0.4887,-0.4887,-0.4887,-0.4867,-0.4775,-0.4775,-0.4775,-0.4775,-0.4775,-0.4833,-0.487,-0.4748,-0.4728,-0.4752,-0.4566,-0.4528,-0.4566,-0.4508,-0.4491,-0.4491,-0.4491,-0.4491,-0.4491,-0.4491,-0.4491,-0.4491,-0.4491,-0.4491,-0.4491,-0.4491,-0.4491,-0.4491,-0.4491,-0.4491,-0.4491,-0.4491,-0.4491,-0.4491,-0.4491,-0.4491,-0.4491,-0.4491,0.0,-0.4491,-0.4491,-0.4491,-0.4491,-0.4491,-0.4491,-0.4491,-0.4491,-0.4491,-0.4491,-0.4491,-0.4491,-0.4294,-0.3846,-0.3345,-0.2926,-0.2619,-0.2178,-0.2178,-0.2653,-0.19,-0.1511,-0.1512,-0.0784,-0.042,-0.0421,-0.014,0.0,0.0,0.0,0.0,0.0,0.0,0.0,0.0,0.0,0.0,0.0,0.0,0.0,0.0,-1.2905,-1.2905,-1.2905,-1.2905,-1.2905,-1.3003,-1.3271,-1.2874,-1.2482,-1.2297,-1.1641,-1.0813,-0.9891,-0.9614,-0.9367,-0.9112,-0.9078,-0.9164,-0.9392,-0.9208,-0.9045,-0.8955,-0.7887,-0.7052,-0.6484,-0.5404,-0.4823,-0.4775,-0.4775,-0.4775,-0.4775,-0.4775,-0.4775,-0.4775,-0.4775,-0.4718,-0.4648,-0.4648,-0.4502,-0.427,-0.427,-0.4181,-0.4047,-0.3958,-0.3923,-0.3912,-0.3822,-0.379,-0.379,-0.379,-0.379,-0.379,-0.379,-0.379,-0.379,-0.379,-0.3932,-0.4125,-0.4153,-0.4322,-0.4491,-0.4491,-0.4491,-0.4491,-0.4491,-0.4491,-0.4491,-0.4491,-0.4491,-0.4491,-0.4491,-0.4491,-0.4491,-0.4491,-0.4491,-0.4491,-0.4491,-0.4491,-0.4491,-0.4491,-0.4491,-0.4491,-0.4491,-0.4491,-0.4491,-0.4491,-0.4267,-0.379,-0.3065,-0.251,-0.2093,-0.187,-0.1369,-0.1229,-0.1507,-0.1006,-0.0755,-0.0755,-0.0252,0.0,0.0,0.0,0.0,0.0,0.0,0.0,0.0,0.0,0.0111,0.0276,0.0083,0.0219,0.0541,0.0343,0.0392,0.0544,-1.2905,-1.2905,-1.2905,-1.2905,-1.2905,-1.2881,-1.2881,-1.227,-1.1789,-1.1789,-1.0644,-0.9788,-0.9788,-0.9211,-0.8804,-0.8804,-0.8804,-0.8804,-0.8778,-0.8103,-0.7583,-0.7294,-0.7284,-0.6484,-0.4749,-0.4691,-0.4644,-0.4491,-0.4491,-0.4491,-0.4491,-0.4491,-0.4491,-0.4491,-0.4491,-0.4491,-0.4491,-0.4491,-0.4015,-0.3287,-0.3287,-0.2843,-0.2202,-0.2202,-0.2202,-0.2202,-0.2202,-0.2202,-0.2202,-0.2202,-0.2202,-0.2202,-0.2202,-0.2202,-0.2202,-0.2202,-0.273,-0.3314,-0.3372,-0.3929,-0.4491,-0.4491,-0.4491,-0.4491,-0.4491,-0.4491,-0.4491,-0.4491,-0.4491,-0.4491,-0.4491,-0.4491,-0.4491,-0.4491,-0.4491,-0.4491,-0.4491,-0.4491,-0.4491,-0.4491,-0.4491,-0.4491,-0.4491,-0.4491,-0.4491,-0.4491,-0.3732,-0.2954,-0.2232,-0.2174,-0.1842,-0.1118,-0.109,-0.0727,0.0,0.0,0.0,0.0,0.0,0.0,0.0,0.0,0.0,0.0,0.0,0.0,0.0028,0.0028,0.0357,0.0852,0.0239,0.0754,0.1735,0.1134,0.1284,0.1724,-1.2905,-1.2905,-1.2905,-1.2905,-1.2476,-1.2129,-1.2129,-1.155,-1.0939,-1.0466,-1.0038,-0.9614,-0.9166,-0.891,-0.8804,-0.8804,-0.8804,-0.8593,-0.8076,-0.7343,-0.6666,-0.6062,-0.6043,-0.5793,-0.527,-0.4808,-0.4535,-0.4491,-0.4491,-0.4491,-0.4491,-0.4491,-0.4491,-0.4491,-0.4491,-0.4181,-0.3649,-0.3649,-0.3231,-0.2536,-0.2536,-0.2397,-0.2202,-0.2202,-0.2202,-0.2202,-0.2202,-0.2202,-0.2202,-0.2202,-0.2202,-0.2202,-0.2202,-0.2202,-0.2202,-0.2202,-0.2343,-0.2536,-0.2565,-0.2732,-0.3148,-0.4236,-0.4491,-0.4491,-0.4491,-0.4491,-0.4491,-0.4491,-0.4491,-0.4491,-0.4491,-0.4491,-0.4491,-0.4491,-0.4491,-0.4491,-0.4491,-0.4491,-0.4491,-0.4491,-0.4012,-0.368,-0.3735,-0.3204,-0.2899,-0.2899,-0.2174,-0.1647,-0.1452,-0.095,-0.056,-0.0336,-0.0336,-0.0224,0.0,0.0,0.0,0.0,0.0,0.0,0.0,0.0,0.028,0.0783,0.0783,0.1062,0.1533,0.1445,0.1502,0.1643,0.1369,0.1473,0.178,0.1587,0.1643,0.1778,-1.2905,-1.2905,-1.2905,-1.2905,-1.2295,-1.1789,-1.1789,-1.1015,-1.0261,-0.9865,-0.9562,-0.9256,-0.8831,-0.8804,-0.8804,-0.8804,-0.8533,-0.8049,-0.7316,-0.6583,-0.5846,-0.5136,-0.5109,-0.5109,-0.5109,-0.4708,-0.4491,-0.4491,-0.4491,-0.4491,-0.4491,-0.4491,-0.4349,-0.407,-0.407,-0.3624,-0.2871,-0.2871,-0.2426,-0.1758,-0.1758,-0.1591,-0.134,-0.134,-0.134,-0.134,-0.134,-0.134,-0.134,-0.134,-0.134,-0.134,-0.134,-0.134,-0.134,-0.134,-0.1535,-0.1758,-0.1758,-0.1989,-0.2431,-0.336,-0.3586,-0.3594,-0.3594,-0.3594,-0.3594,-0.3594,-0.3594,-0.3594,-0.3594,-0.3594,-0.3594,-0.3594,-0.3594,-0.3594,-0.3594,-0.3594,-0.3594,-0.3594,-0.3148,-0.2871,-0.2926,-0.2482,-0.2091,-0.1786,-0.1341,-0.0978,-0.0671,-0.0252,0.0,0.0,0.0,0.0,0.0,0.028,0.028,0.0,0.0308,0.0448,0.0448,0.0727,0.1118,0.1535,0.1535,0.1786,0.2197,0.2046,0.2134,0.233,0.1947,0.2095,0.2492,0.2244,0.2316,0.247,-1.2905,-1.2905,-1.2881,-1.2798,-1.2187,-1.169,-1.1641,-1.0542,-0.971,-0.971,-0.9185,-0.8804,-0.8804,-0.8804,-0.8778,-0.8699,-0.7963,-0.7208,-0.6534,-0.5819,-0.5136,-0.4515,-0.4491,-0.4491,-0.4491,-0.4491,-0.4491,-0.4491,-0.4436,-0.4405,-0.4405,-0.4322,-0.3929,-0.3289,-0.3289,-0.2843,-0.2093,-0.2093,-0.1675,-0.1006,-0.1006,-0.0588,0.0,0.0,0.0,0.0,0.0,0.0,0.0,0.0,0.0,0.0,0.0,0.0,0.0,0.0,-0.0474,-0.1001,-0.0998,-0.1487,-0.2004,-0.2002,-0.1999,-0.2046,-0.2156,-0.2189,-0.2192,-0.2192,-0.2199,-0.2202,-0.2202,-0.2202,-0.2202,-0.2202,-0.2202,-0.2202,-0.2202,-0.2202,-0.2202,-0.2202,-0.2148,-0.2093,-0.2093,-0.2035,-0.173,-0.1062,-0.1006,-0.0699,-0.0028,0.0,0.0,0.0,0.0056,0.0112,0.0112,0.0838,0.0838,0.0112,0.0838,0.1202,0.1229,0.1898,0.2232,0.2313,0.228,0.2305,0.2354,0.2216,0.2474,0.2911,0.2229,0.2631,0.3534,0.299,0.3126,0.3534,-1.2905,-1.2905,-1.2725,-1.2138,-1.1466,-1.0838,-1.0312,-0.9536,-0.9008,-0.9008,-0.8883,-0.8804,-0.8804,-0.8804,-0.856,-0.7996,-0.6735,-0.5923,-0.576,-0.5085,-0.4653,-0.4519,-0.4491,-0.4491,-0.4491,-0.4491,-0.4491,-0.4491,-0.3873,-0.3594,-0.3624,-0.2982,-0.2619,-0.2454,-0.2454,-0.2037,-0.134,-0.134,-0.0923,-0.0252,-0.0252,-0.014,0.0,0.0,0.0,0.0,0.0,0.0,0.0,0.0,0.0,0.0,0.0,0.0,0.0,0.0,-0.0108,-0.0241,-0.0234,-0.0359,-0.0485,-0.0484,-0.0487,-0.0775,-0.1933,-0.2207,-0.2195,-0.2195,-0.2189,-0.2202,-0.2202,-0.2202,-0.2202,-0.2202,-0.2202,-0.2202,-0.2202,-0.2202,-0.2202,-0.2202,-0.1703,-0.134,-0.134,-0.0811,-0.042,-0.0252,-0.0252,-0.0168,0.0,0.0,0.0,0.0,0.056,0.0866,0.0866,0.1591,0.1591,0.0867,0.1619,0.1952,0.198,0.212,0.2538,0.3118,0.2986,0.3246,0.3738,0.35,0.3483,0.3586,0.3312,0.3382,0.3578,0.3442,0.349,0.3644,-1.2389,-1.2369,-1.2138,-1.1441,-1.0771,-1.0192,-0.9865,-0.9237,-0.8804,-0.8804,-0.8507,-0.8262,-0.8262,-0.7969,-0.7564,-0.7123,-0.5984,-0.5306,-0.5306,-0.471,-0.4362,-0.4362,-0.4453,-0.4491,-0.4491,-0.4153,-0.3959,-0.3929,-0.3148,-0.2788,-0.2815,-0.2397,-0.2009,-0.1675,-0.1675,-0.1256,-0.0588,-0.0588,-0.0364,0.0,0.0,0.0,0.0,0.0,0.0,0.0,0.0,0.0,0.0,0.0,0.0,0.0,0.0,0.0,0.0,0.0,0.0,0.0,0.0,0.0,0.0,0.0,0.0,-0.0193,-0.0976,-0.115,-0.1142,-0.1163,-0.1158,-0.115,-0.1142,-0.1146,-0.1146,-0.1146,-0.1146,-0.1146,-0.1146,-0.1146,-0.1146,-0.1146,-0.0811,-0.0588,-0.0588,-0.0224,0.0,0.0,0.0,0.014,0.0504,0.0532,0.0699,0.1034,0.1424,0.1619,0.1619,0.2343,0.2536,0.2147,0.2538,0.273,0.2732,0.3121,0.3539,0.3926,0.4152,0.44,0.4636,0.48,0.4751,0.4608,0.4475,0.4403,0.4403,0.4403,0.4403,0.4491,-1.1528,-1.147,-1.1274,-1.0582,-1.0021,-0.9598,-0.9497,-0.8921,-0.8521,-0.8521,-0.7882,-0.7457,-0.7457,-0.6791,-0.6293,-0.6187,-0.5406,-0.4923,-0.4923,-0.4334,-0.401,-0.401,-0.4083,-0.4098,-0.4098,-0.3372,-0.3121,-0.3317,-0.2454,-0.2009,-0.2009,-0.187,-0.1507,-0.0923,-0.0923,-0.056,0.0,0.0,0.0,0.0,0.0,0.0,0.0,0.0,0.0,0.0,0.0,0.0,0.0,0.0,0.0,0.0,0.0,0.0,0.0,0.0,0.0,0.0025,0.0124,0.0145,0.0189,0.0284,0.0299,0.0297,0.0317,0.0149,0.0,0.0,0.0,0.0,0.0,0.0,0.0,0.0,0.0,0.0,0.0,0.0,0.0,0.0,0.0,0.0,0.0,0.0112,0.0196,0.0196,0.0308,0.0643,0.1257,0.1284,0.1563,0.2174,0.2343,0.2397,0.2397,0.3148,0.3566,0.3671,0.3671,0.3671,0.3702,0.437,0.4736,0.4897,0.5431,0.5513,0.5358,0.5844,0.5844,0.553,0.5412,0.5338,0.5303,0.5303,0.5373,0.5524,-1.0171,-1.0188,-1.0012,-0.9291,-0.908,-0.8827,-0.8252,-0.7692,-0.7328,-0.7328,-0.6798,-0.64,-0.64,-0.5735,-0.5304,-0.5282,-0.4593,-0.4143,-0.4143,-0.3588,-0.3239,-0.3239,-0.2766,-0.2508,-0.2508,-0.1786,-0.2065,-0.3372,-0.1953,-0.1257,-0.1229,-0.0588,-0.0252,-0.014,-0.014,-0.0084,0.0,0.0,0.0,0.0,0.0,0.0,0.0,0.0,0.0,0.0,0.0,0.0,0.0,0.0,0.0,0.0,0.0,0.0,0.0,0.0,0.0,0.0119,0.0644,0.0771,0.0903,0.1419,0.1547,0.1567,0.1563,0.0748,0.0,0.0,0.0,0.0,0.0,0.0,0.0,0.0,0.0,0.0,0.0,0.0,0.0,0.0,0.0,0.0,0.0,0.0588,0.095,0.095,0.1535,0.1952,0.2035,0.2063,0.2093,0.2202,0.2871,0.3234,0.3234,0.3959,0.4618,0.521,0.521,0.521,0.521,0.5324,0.571,0.6303,0.6299,0.6252,0.6232,0.6184,0.5976,0.5677,0.5647,0.5492,0.5303,0.5303,0.5631,0.6093,-0.9365,-0.9359,-0.9159,-0.8475,-0.8341,-0.8247,-0.7953,-0.744,-0.7098,-0.7098,-0.6213,-0.558,-0.558,-0.4851,-0.4363,-0.4363,-0.3691,-0.3269,-0.3269,-0.2786,-0.2496,-0.2496,-0.2302,-0.2188,-0.2188,-0.1479,-0.1426,-0.2111,-0.1016,-0.0499,-0.049,-0.0139,0.0,0.0,0.0,0.0,0.0,0.0,0.0,0.0,0.0,0.0,0.0,0.0,0.0,0.0,0.0,0.0,0.0053,0.0397,0.0284,0.0125,0.08,0.0779,0.0565,0.0901,0.1011,0.1053,0.1325,0.1407,0.1474,0.1741,0.1808,0.1808,0.1808,0.1382,0.0995,0.0995,0.1013,0.1007,0.1003,0.1064,0.1116,0.1116,0.1175,0.1229,0.1229,0.1229,0.1229,0.1229,0.1229,0.1229,0.1229,0.1535,0.1703,0.1703,0.2391,0.2834,0.2871,0.3224,0.3445,0.3483,0.4199,0.458,0.458,0.53,0.5823,0.6118,0.6118,0.6118,0.6118,0.6118,0.6285,0.661,0.6961,0.705,0.6906,0.7078,0.7074,0.6888,0.656,0.6563,0.6797,0.7099,0.7377,0.7599]}]]